[[{"header":{"parameterUnit":"m.s-1","parameterCategory":1,"la1":30.6,"la2":29.2853,"lo1":-89.7004,"lo2":-87.6739,"dy":0.0162,"dx":0.0183,"nx":112,"ny":82,"refTime":"2024-07-31T12:00:00:Z","depth":0,"parameterNumber":2,"parameterNumberName":"U-component_of_WINDS"},"data":[0.0,0.0,0.0,0.0,0.0,0.0,0.0,0.0,0.0,0.0,0.0,0.0,0.0,0.0,0.0,0.0,0.0,0.0,0.0,0.0,0.0,0.0,0.0,0.0,0.0,0.0,0.0,0.0,0.0,0.0,0.0,0.0,0.0,0.0,0.0,0.0,0.0,0.0,0.0,0.0,0.0,0.0,0.0,0.0,0.0,0.0,0.0,0.0,0.0,0.0,0.0,0.0,0.0,0.0,0.0,0.0,0.0,0.0,0.0,0.0,0.0,0.0,0.0,0.0,0.0,0.0,0.0,0.0,0.0,0.0,0.0,0.0,0.0,0.0,0.0,0.0,0.0,0.0,0.0,0.0,0.0,0.0,0.0,0.0,0.0,0.0,0.0,0.0,0.0,0.0,0.0,-2.7739,-3.1451,-3.3643,-3.3643,-3.2811,-3.0524,-2.6416,0.0,0.0,0.0,0.0,0.0,0.0,0.0,0.0,0.0,0.0,0.0,0.0,0.0,0.0,0.0,0.0,0.0,0.0,0.0,0.0,0.0,0.0,0.0,0.0,0.0,0.0,0.0,0.0,0.0,0.0,0.0,0.0,0.0,0.0,0.0,0.0,0.0,0.0,0.0,0.0,0.0,0.0,0.0,0.0,0.0,0.0,0.0,0.0,0.0,0.0,0.0,0.0,0.0,0.0,0.0,0.0,0.0,0.0,0.0,0.0,0.0,0.0,0.0,0.0,0.0,0.0,0.0,0.0,0.0,0.0,0.0,0.0,0.0,0.0,0.0,0.0,0.0,0.0,0.0,0.0,0.0,0.0,0.0,0.0,0.0,0.0,0.0,0.0,0.0,0.0,0.0,0.0,0.0,0.0,0.0,0.0,0.0,0.0,0.0,0.0,0.0,0.0,0.0,0.0,-2.3922,-2.95,-3.2094,-3.3452,-3.3452,-3.2073,-2.9709,-2.617,0.0,0.0,0.0,0.0,0.0,0.0,0.0,0.0,0.0,0.0,0.0,0.0,0.0,0.0,0.0,0.0,0.0,0.0,0.0,0.0,0.0,0.0,0.0,0.0,0.0,0.0,0.0,0.0,0.0,0.0,0.0,0.0,0.0,0.0,0.0,0.0,0.0,0.0,0.0,0.0,0.0,0.0,0.0,0.0,0.0,0.0,0.0,0.0,0.0,0.0,0.0,0.0,0.0,0.0,0.0,0.0,0.0,0.0,0.0,0.0,0.0,0.0,0.0,0.0,0.0,0.0,0.0,0.0,0.0,0.0,0.0,0.0,0.0,0.0,0.0,0.0,0.0,0.0,0.0,0.0,0.0,0.0,0.0,0.0,0.0,0.0,0.0,0.0,0.0,0.0,0.0,0.0,0.0,0.0,0.0,0.0,0.0,0.0,0.0,0.0,0.0,0.0,0.0,-2.3152,-2.5885,-3.0006,-3.2007,-3.2997,-3.2777,-3.1673,-2.9349,-2.5494,-2.3316,0.0,0.0,0.0,0.0,0.0,0.0,0.0,0.0,0.0,0.0,0.0,0.0,0.0,0.0,0.0,0.0,0.0,0.0,0.0,0.0,0.0,0.0,0.0,0.0,0.0,0.0,0.0,0.0,0.0,0.0,0.0,0.0,0.0,0.0,0.0,0.0,0.0,0.0,0.0,0.0,0.0,0.0,0.0,0.0,0.0,0.0,0.0,0.0,0.0,0.0,0.0,0.0,0.0,0.0,0.0,0.0,0.0,0.0,0.0,0.0,0.0,0.0,0.0,0.0,0.0,0.0,0.0,0.0,0.0,0.0,0.0,0.0,0.0,0.0,0.0,0.0,0.0,0.0,0.0,0.0,0.0,0.0,0.0,0.0,0.0,0.0,0.0,0.0,0.0,0.0,0.0,0.0,0.0,0.0,0.0,0.0,0.0,0.0,0.0,0.0,0.0,0.0,-2.561,-2.7321,-2.9611,-3.1217,-3.1979,-3.1696,-3.0666,-2.8486,-2.4764,-2.1945,0.0,0.0,0.0,0.0,0.0,0.0,0.0,0.0,0.0,0.0,0.0,0.0,0.0,0.0,0.0,0.0,0.0,0.0,0.0,0.0,0.0,0.0,0.0,0.0,0.0,0.0,0.0,0.0,0.0,0.0,0.0,0.0,0.0,0.0,0.0,0.0,0.0,0.0,0.0,0.0,0.0,0.0,0.0,0.0,0.0,0.0,0.0,0.0,0.0,0.0,0.0,0.0,0.0,0.0,0.0,0.0,0.0,0.0,0.0,0.0,0.0,0.0,0.0,0.0,0.0,0.0,0.0,0.0,0.0,0.0,0.0,0.0,0.0,0.0,0.0,0.0,0.0,0.0,0.0,0.0,0.0,0.0,0.0,0.0,0.0,0.0,0.0,0.0,0.0,0.0,0.0,0.0,0.0,0.0,0.0,0.0,0.0,0.0,0.0,0.0,0.0,0.0,-2.4265,-2.655,-2.8097,-2.9358,-3.0088,-3.0068,-2.8355,-2.6322,-2.4102,-2.0679,0.0,0.0,0.0,0.0,0.0,0.0,0.0,0.0,0.0,0.0,0.0,0.0,0.0,0.0,0.0,0.0,0.0,0.0,0.0,0.0,0.0,0.0,0.0,0.0,0.0,0.0,0.0,0.0,0.0,0.0,0.0,0.0,0.0,0.0,0.0,0.0,0.0,0.0,0.0,0.0,0.0,0.0,0.0,0.0,0.0,0.0,0.0,0.0,0.0,0.0,0.0,0.0,0.0,0.0,0.0,0.0,0.0,0.0,0.0,0.0,0.0,0.0,0.0,0.0,0.0,0.0,0.0,0.0,0.0,0.0,0.0,0.0,0.0,0.0,0.0,0.0,0.0,0.0,0.0,0.0,0.0,0.0,0.0,0.0,0.0,0.0,0.0,0.0,0.0,0.0,0.0,0.0,0.0,0.0,0.0,0.0,0.0,0.0,0.0,0.0,0.0,0.0,-2.3493,-2.5707,0.0,-2.8904,-2.9365,-2.9106,-2.8029,-2.6055,-2.2959,0.0,0.0,0.0,0.0,0.0,0.0,0.0,0.0,0.0,0.0,0.0,0.0,0.0,0.0,0.0,0.0,0.0,0.0,0.0,0.0,0.0,0.0,0.0,0.0,0.0,0.0,0.0,0.0,0.0,0.0,0.0,0.0,0.0,0.0,0.0,0.0,0.0,0.0,0.0,0.0,0.0,0.0,0.0,0.0,0.0,0.0,0.0,0.0,0.0,0.0,0.0,0.0,0.0,0.0,0.0,0.0,0.0,0.0,0.0,0.0,0.0,0.0,0.0,0.0,0.0,0.0,0.0,0.0,0.0,0.0,0.0,0.0,0.0,0.0,0.0,0.0,0.0,0.0,0.0,0.0,0.0,0.0,0.0,0.0,0.0,0.0,0.0,0.0,0.0,0.0,0.0,0.0,0.0,0.0,0.0,0.0,0.0,0.0,0.0,0.0,0.0,0.0,-2.067,-2.2818,-2.4863,0.0,-2.7858,-2.8066,-2.7562,-2.6736,-2.4838,-2.1496,0.0,0.0,0.0,0.0,0.0,0.0,0.0,0.0,0.0,0.0,0.0,0.0,0.0,0.0,0.0,0.0,0.0,0.0,0.0,0.0,0.0,0.0,0.0,0.0,0.0,0.0,0.0,0.0,0.0,0.0,0.0,0.0,0.0,0.0,0.0,0.0,0.0,0.0,0.0,0.0,0.0,0.0,0.0,0.0,0.0,0.0,0.0,0.0,0.0,0.0,0.0,0.0,0.0,0.0,0.0,0.0,0.0,0.0,0.0,0.0,0.0,0.0,0.0,0.0,0.0,0.0,0.0,0.0,0.0,0.0,0.0,0.0,0.0,0.0,0.0,0.0,0.0,0.0,0.0,0.0,0.0,0.0,0.0,0.0,0.0,0.0,0.0,0.0,0.0,0.0,0.0,0.0,0.0,0.0,0.0,0.0,0.0,0.0,0.0,0.0,0.0,0.0,-1.9937,-2.2152,-2.4,-2.5357,-2.5977,-2.5979,-2.528,-2.4096,-2.2304,0.0,0.0,0.0,0.0,0.0,0.0,0.0,0.0,0.0,0.0,0.0,0.0,0.0,0.0,0.0,0.0,0.0,0.0,0.0,0.0,0.0,0.0,0.0,0.0,0.0,0.0,0.0,0.0,0.0,0.0,0.0,0.0,0.0,0.0,0.0,0.0,0.0,0.0,0.0,0.0,0.0,0.0,0.0,0.0,0.0,0.0,0.0,0.0,0.0,0.0,0.0,0.0,0.0,0.0,0.0,0.0,0.0,0.0,0.0,0.0,0.0,0.0,0.0,0.0,0.0,0.0,0.0,0.0,0.0,0.0,0.0,0.0,0.0,0.0,0.0,0.0,0.0,0.0,0.0,0.0,0.0,0.0,0.0,0.0,0.0,0.0,0.0,0.0,0.0,0.0,0.0,0.0,0.0,0.0,0.0,0.0,0.0,0.0,0.0,0.0,0.0,0.0,0.0,-1.9937,-2.1894,-2.3647,-2.5303,-2.5652,-2.5573,-2.5177,-2.4363,-2.2507,-1.9273,0.0,0.0,0.0,0.0,0.0,0.0,0.0,0.0,0.0,0.0,0.0,0.0,0.0,0.0,0.0,0.0,0.0,0.0,0.0,0.0,0.0,0.0,0.0,0.0,0.0,0.0,0.0,0.0,0.0,0.0,0.0,0.0,0.0,0.0,0.0,0.0,0.0,0.0,0.0,0.0,0.0,0.0,0.0,0.0,0.0,0.0,0.0,0.0,0.0,0.0,0.0,0.0,0.0,0.0,0.0,0.0,0.0,0.0,0.0,0.0,0.0,0.0,0.0,0.0,0.0,0.0,0.0,0.0,0.0,0.0,0.0,0.0,0.0,0.0,0.0,0.0,0.0,0.0,0.0,0.0,0.0,0.0,0.0,0.0,0.0,0.0,0.0,0.0,0.0,0.0,0.0,0.0,0.0,0.0,0.0,0.0,0.0,0.0,0.0,0.0,0.0,0.0,-1.9714,-2.1538,-2.3205,-2.4862,-2.516,-2.4965,-2.4248,-2.3964,-2.2279,-1.8658,0.0,0.0,0.0,0.0,0.0,0.0,0.0,0.0,0.0,0.0,0.0,0.0,0.0,0.0,0.0,0.0,0.0,0.0,0.0,0.0,0.0,0.0,0.0,0.0,0.0,0.0,0.0,0.0,0.0,0.0,0.0,0.0,0.0,0.0,0.0,0.0,0.0,0.0,0.0,0.0,0.0,0.0,0.0,0.0,0.0,0.0,0.0,0.0,0.0,0.0,0.0,0.0,0.0,0.0,0.0,0.0,0.0,0.0,0.0,0.0,0.0,0.0,0.0,0.0,0.0,0.0,0.0,0.0,0.0,0.0,0.0,0.0,0.0,0.0,0.0,0.0,0.0,0.0,0.0,0.0,0.0,0.0,0.0,0.0,0.0,0.0,0.0,0.0,0.0,0.0,0.0,0.0,0.0,0.0,0.0,0.0,0.0,0.0,0.0,0.0,0.0,0.0,-1.9346,-2.1203,-2.2778,-2.4148,-2.4576,-2.4232,-2.2891,-2.3087,-2.1697,-1.8019,0.0,0.0,0.0,0.0,0.0,0.0,0.0,0.0,0.0,0.0,0.0,0.0,0.0,0.0,0.0,0.0,0.0,0.0,0.0,0.0,0.0,0.0,0.0,0.0,0.0,0.0,0.0,0.0,0.0,0.0,0.0,0.0,0.0,0.0,0.0,0.0,0.0,0.0,0.0,0.0,0.0,0.0,0.0,0.0,0.0,0.0,0.0,0.0,0.0,0.0,0.0,0.0,0.0,0.0,0.0,0.0,0.0,0.0,0.0,0.0,-1.695,0.0,0.0,0.0,0.0,0.0,0.0,0.0,0.0,0.0,0.0,0.0,0.0,0.0,0.0,0.0,0.0,0.0,0.0,0.0,0.0,0.0,0.0,0.0,0.0,0.0,0.0,0.0,0.0,0.0,0.0,0.0,0.0,0.0,0.0,0.0,0.0,0.0,0.0,0.0,0.0,0.0,-1.9346,-2.0971,-2.2455,-2.4122,-2.3915,-2.339,-2.2859,-2.2397,-2.1132,-1.8731,0.0,0.0,0.0,0.0,0.0,0.0,0.0,0.0,0.0,0.0,0.0,0.0,0.0,0.0,0.0,0.0,0.0,0.0,0.0,0.0,0.0,0.0,0.0,0.0,0.0,0.0,0.0,0.0,0.0,0.0,0.0,0.0,0.0,0.0,0.0,0.0,0.0,0.0,0.0,0.0,0.0,0.0,0.0,0.0,0.0,0.0,0.0,0.0,0.0,0.0,0.0,0.0,0.0,0.0,0.0,0.0,0.0,0.0,0.0,0.0,0.0,-1.8804,0.0,0.0,0.0,0.0,0.0,0.0,0.0,0.0,0.0,0.0,0.0,0.0,0.0,0.0,0.0,0.0,0.0,0.0,0.0,0.0,0.0,0.0,0.0,0.0,0.0,0.0,0.0,0.0,0.0,0.0,0.0,0.0,0.0,0.0,0.0,0.0,0.0,0.0,0.0,0.0,-1.939,-2.0857,-2.2269,-2.3815,-2.3401,-2.2812,-2.2317,-2.1792,-2.0879,-1.9324,-1.8273,0.0,0.0,0.0,0.0,0.0,0.0,0.0,0.0,0.0,0.0,0.0,0.0,0.0,0.0,0.0,0.0,0.0,0.0,0.0,0.0,0.0,0.0,0.0,0.0,0.0,0.0,0.0,0.0,0.0,0.0,0.0,0.0,0.0,0.0,0.0,0.0,0.0,0.0,0.0,0.0,0.0,0.0,0.0,0.0,0.0,0.0,0.0,0.0,0.0,0.0,0.0,0.0,0.0,0.0,-2.3014,-2.3878,-2.4395,-2.5051,-2.5615,-2.2832,-2.1838,-2.2079,0.0,0.0,0.0,0.0,0.0,0.0,0.0,0.0,0.0,0.0,0.0,0.0,0.0,0.0,0.0,0.0,0.0,0.0,0.0,0.0,0.0,0.0,0.0,0.0,0.0,-2.2264,-2.2068,0.0,0.0,0.0,0.0,0.0,0.0,0.0,0.0,0.0,0.0,0.0,0.0,-1.963,-2.1036,-2.2308,-2.3475,-2.2951,-2.2278,-2.1739,-2.1235,-2.0613,-1.9829,-1.9185,-1.8489,0.0,0.0,0.0,0.0,0.0,0.0,0.0,0.0,0.0,0.0,0.0,0.0,0.0,0.0,0.0,0.0,0.0,0.0,0.0,0.0,0.0,0.0,0.0,0.0,0.0,0.0,0.0,0.0,0.0,0.0,0.0,0.0,-1.3299,-1.4291,0.0,0.0,0.0,0.0,0.0,0.0,0.0,0.0,0.0,0.0,0.0,0.0,0.0,0.0,-2.1468,-2.3256,-2.397,-2.3672,-2.5567,-2.617,-2.5696,-2.6562,-2.7065,-2.7203,-2.668,0.0,-2.3638,-2.2865,0.0,0.0,0.0,0.0,0.0,0.0,0.0,0.0,0.0,0.0,0.0,0.0,0.0,0.0,0.0,0.0,0.0,0.0,0.0,0.0,0.0,0.0,-2.5073,-2.3885,-2.4199,-2.4363,0.0,-2.0273,-1.8084,-1.7482,0.0,0.0,0.0,0.0,0.0,0.0,0.0,0.0,-2.0393,-2.1739,-2.2817,-2.3535,-2.2532,-2.1799,-2.171,-2.0603,-1.9985,-2.0119,-1.9472,-1.9185,-1.9448,-1.8241,0.0,0.0,0.0,0.0,0.0,0.0,0.0,0.0,0.0,0.0,0.0,0.0,0.0,0.0,0.0,0.0,0.0,0.0,0.0,0.0,0.0,0.0,0.0,0.0,0.0,0.0,0.0,0.0,0.0,-1.2373,-1.4175,-1.5227,-1.5219,-1.5017,0.0,0.0,0.0,0.0,0.0,0.0,0.0,0.0,0.0,-2.1946,-2.264,-2.3555,-2.4761,-2.5905,-2.6678,-2.7022,-2.8466,-2.9077,-2.8871,-2.9557,-2.9739,-2.9512,-2.9723,-2.8614,-2.6603,-2.5463,-2.4229,-2.3009,0.0,0.0,0.0,0.0,0.0,-2.2599,-2.4078,0.0,0.0,0.0,0.0,0.0,0.0,0.0,0.0,0.0,0.0,0.0,0.0,0.0,0.0,-2.6465,-2.67,-2.6648,-2.5644,-2.3697,-2.1643,0.0,-1.9351,-1.8627,-1.7131,0.0,0.0,0.0,0.0,0.0,-2.1096,-2.2084,-2.2921,-2.3535,-2.2458,-2.1695,-2.1695,-2.0468,-1.9854,-2.0174,-1.9897,-2.0011,-2.0622,-1.9524,-1.8489,0.0,0.0,0.0,0.0,0.0,0.0,0.0,0.0,0.0,0.0,0.0,0.0,0.0,0.0,0.0,0.0,0.0,0.0,0.0,0.0,0.0,0.0,0.0,0.0,0.0,0.0,0.0,0.0,-1.3621,-1.5354,-1.6127,-1.6732,-1.6835,0.0,0.0,0.0,0.0,0.0,0.0,-2.0533,-2.1668,-2.3065,-2.4702,-2.547,-2.6484,-2.7878,-2.8247,-2.8748,-2.9439,-3.0207,-3.0709,-3.0861,-3.1242,-3.1258,-3.1061,-3.1242,-3.064,-2.9391,-2.7854,-2.6558,-2.5398,-2.4605,-2.4212,-2.4083,-2.4372,-2.4815,-2.5455,-2.7085,-2.7474,-2.7118,-2.6512,0.0,-2.4603,-2.2491,0.0,0.0,0.0,0.0,-2.4576,-2.6733,0.0,-2.7568,-2.8252,-2.8506,-2.8336,-2.7248,-2.6224,-2.4792,0.0,-2.1741,-2.1066,-1.9091,0.0,0.0,0.0,0.0,-2.0812,-2.1814,-2.2517,-2.3086,-2.355,-2.2607,-2.1874,-2.171,-2.0617,-1.9978,-2.005,-2.0085,-2.0395,-2.1151,-2.0353,-1.9796,-1.96,0.0,0.0,0.0,0.0,0.0,0.0,0.0,0.0,0.0,0.0,0.0,0.0,0.0,0.0,0.0,0.0,0.0,0.0,0.0,0.0,0.0,0.0,0.0,0.0,0.0,0.0,0.0,0.0,0.0,-1.7462,-1.9258,0.0,0.0,0.0,0.0,-2.079,-2.1515,-2.2668,-2.4312,-2.5168,-2.6364,-2.8102,-2.8808,-2.95,-3.0207,-3.0134,-3.0097,-3.0143,-3.0225,-3.0241,-3.0241,-3.0293,-3.0536,-3.0861,-3.0485,-3.0713,-3.1326,-2.9838,-2.8116,-2.6373,-2.5841,-2.5584,-2.5672,-2.6183,-2.6689,-2.7344,-2.8511,-2.8397,-2.7973,-2.9231,-2.9042,-2.8072,-2.6918,-2.6245,0.0,0.0,-2.6784,-2.7296,-2.8108,-2.8804,-2.9112,-2.8522,-2.8887,-2.8911,-2.7344,-2.6941,-2.6197,0.0,-2.2503,-2.165,-2.1515,0.0,-2.1545,-2.15,-2.2084,-2.2589,-2.2664,-2.3176,-2.3565,-2.3595,-2.3011,-2.2368,-2.1739,-2.1051,-2.0378,-1.9756,-1.9726,-2.0065,-2.0794,-2.0398,-2.0255,-2.0439,-1.8451,0.0,0.0,0.0,0.0,0.0,0.0,0.0,0.0,0.0,0.0,0.0,0.0,0.0,0.0,0.0,0.0,0.0,0.0,0.0,0.0,0.0,0.0,0.0,0.0,0.0,0.0,0.0,0.0,-2.0291,-2.1406,0.0,0.0,-2.215,-2.2733,-2.3389,-2.4339,-2.5545,-2.6977,-2.7758,-2.8602,-2.9673,-2.9935,-3.0381,-3.1043,-3.0884,-3.1098,-3.162,-3.1527,-3.1527,-3.1636,-3.1636,-3.1728,-3.1874,-3.207,-3.1857,-3.1471,-3.1286,-3.089,-3.0369,-2.9887,-3.0076,-3.0647,-3.0509,-3.0792,-3.1268,-3.1692,-3.1286,-3.0494,-3.0005,-2.922,-2.8439,-2.8047,-2.7789,-2.7745,-2.8384,-2.8622,-2.882,-2.9646,-2.9987,-3.0063,-2.9814,-2.9947,-2.9798,-2.8618,-2.8028,-2.7306,-2.5786,-2.4822,-2.3939,-2.3071,-2.2921,-2.2787,-2.2383,-2.2532,-2.2858,-2.3221,-2.346,-2.3595,-2.3595,-2.3041,-2.2413,-2.1754,-2.1096,-2.0423,-1.9735,-1.969,-2.003,-2.0761,-2.0429,-2.0555,-2.1312,-1.9949,-1.8022,0.0,0.0,0.0,0.0,0.0,0.0,0.0,0.0,0.0,0.0,0.0,0.0,0.0,0.0,0.0,0.0,0.0,0.0,0.0,0.0,0.0,0.0,0.0,0.0,0.0,0.0,-2.0632,-2.177,-2.3121,-2.3887,-2.3659,-2.4627,-2.5455,-2.5894,-2.7071,-2.815,-2.9042,-2.972,-3.0289,-3.0735,-3.0966,-3.1289,-3.172,-3.1627,-3.1842,-3.2398,-3.2302,-3.2287,-3.2398,-3.2398,-3.2398,-3.2453,-3.2803,-3.2485,-3.1774,-3.2133,-3.2453,-3.2705,-3.195,-3.2269,-3.3074,-3.2823,-3.2884,-3.3177,-3.3364,-3.3001,-3.2278,-3.1241,-3.0459,-2.9928,-2.9923,-2.9732,-2.9599,-3.0142,-3.0028,-2.9897,-3.0476,-3.0568,-3.0526,-3.0526,-3.0526,-3.0241,-2.9303,-2.8756,-2.8122,-2.7146,-2.6213,-2.533,-2.4433,-2.4268,-2.4059,-2.343,-2.3325,-2.34,-2.358,-2.3595,-2.3595,-2.3595,-2.3236,-2.2637,-2.1769,-2.1252,-2.0609,-1.9735,-1.969,-1.994,-2.0579,-1.9993,-2.0122,-2.118,-2.0085,-1.8475,-1.6362,0.0,0.0,0.0,0.0,0.0,0.0,0.0,0.0,0.0,0.0,0.0,0.0,0.0,0.0,0.0,0.0,0.0,0.0,0.0,0.0,0.0,0.0,0.0,-1.7949,-2.0774,-2.2611,-2.1859,-2.4537,-2.6045,-2.4957,-2.7038,-2.8473,-2.8473,-2.9704,-3.0458,-3.0458,-3.1074,-3.1413,-3.1413,-3.2074,-3.2428,-3.2428,-3.2444,-3.2459,-3.2459,-3.2459,-3.2459,-3.2459,-3.2459,-3.2444,-3.2428,-3.2428,-3.2413,-3.2398,-3.2398,-3.2695,-3.3056,-3.1795,-3.1838,-3.2685,-3.2757,-3.2757,-3.2774,-3.3253,-3.3287,-3.3131,-3.3115,-3.2909,-3.2717,-3.2722,-3.2194,-3.1667,-3.1667,-3.11,-3.0543,-3.0543,-3.0543,-3.0526,-3.0526,-3.0526,-3.0258,-2.9303,-2.912,-2.8795,-2.781,-2.6542,-2.5659,-2.5644,-2.563,-2.542,-2.4716,-2.4597,0.0,-2.3714,-2.361,-2.3595,-2.3595,-2.3595,-2.3086,-2.1829,-2.1575,-2.0995,-1.9809,-1.9647,-1.9797,-2.0208,-1.922,-1.9107,-2.0031,-1.8852,-1.7811,-1.702,0.0,0.0,0.0,0.0,0.0,0.0,0.0,0.0,0.0,0.0,0.0,0.0,0.0,0.0,0.0,0.0,0.0,0.0,0.0,0.0,0.0,0.0,-2.0555,-2.1087,-2.2825,-2.4477,-2.5652,-2.7009,-2.7917,-2.8112,-2.9143,-2.9874,-2.9874,-3.0643,-3.112,-3.112,-3.1751,-3.2121,-3.2121,-3.2782,-3.3121,-3.3121,-3.3644,-3.3906,-3.3906,-3.3906,-3.3906,-3.3906,-3.3906,-3.3614,-3.3121,-3.3121,-3.2844,-3.2398,-3.2398,-3.2695,-3.3203,-3.3198,-3.3649,-3.4237,-3.4667,-3.4818,-3.4734,-3.4327,-3.4132,-3.396,-3.3465,-3.3161,-3.3035,-3.3128,-3.288,-3.2547,-3.2552,-3.1945,-3.1279,-3.1279,-3.0882,-3.0526,-3.0526,-3.0526,-3.0342,-2.975,-2.9348,-2.8889,-2.8255,-2.7557,-2.6886,-2.6408,-2.6318,-2.6093,-2.5435,0.0,0.0,-2.4373,-2.3909,-2.3595,-2.3595,-2.3595,-2.3266,-2.2473,-2.1924,-2.1296,0.0,-2.0161,-2.0224,-2.0613,-2.0358,-2.0429,-2.0924,-1.9609,-1.907,0.0,0.0,0.0,0.0,0.0,0.0,0.0,0.0,0.0,0.0,0.0,0.0,0.0,0.0,0.0,0.0,0.0,0.0,0.0,0.0,0.0,0.0,-2.0895,-2.2692,-2.3655,-2.4667,-2.5845,-2.7257,-2.8242,-2.8981,-2.9381,-3.0274,-3.0828,-3.0828,-3.1428,-3.1921,-3.2213,-3.2613,-3.2952,-3.326,-3.3644,-3.386,-3.386,-3.426,-3.4475,-3.4475,-3.4475,-3.4475,-3.4475,-3.4475,-3.4245,0.0,-3.386,-3.3629,-3.3244,-3.2936,-3.302,0.0,0.0,0.0,0.0,0.0,-3.5424,-3.5554,-3.5115,-3.4908,-3.4813,-3.4421,-3.4139,-3.4024,-3.4034,-3.3717,-3.335,-3.33,-3.2701,-3.2067,-3.2067,-3.152,-3.0974,-3.0974,-3.0742,-3.0384,-2.9897,-2.9438,-2.8935,-2.8384,0.0,0.0,-2.7066,-2.7006,-2.6782,-2.6123,-2.5465,-2.4941,0.0,-2.4029,-2.3595,-2.3595,-2.3595,-2.3355,-2.2727,-2.2282,0.0,0.0,0.0,-2.0497,-2.0351,-2.0416,0.0,0.0,0.0,0.0,0.0,0.0,0.0,0.0,-1.9794,-2.0586,0.0,0.0,0.0,0.0,0.0,0.0,0.0,0.0,0.0,0.0,0.0,0.0,0.0,0.0,0.0,0.0,-2.2449,-2.4278,-2.5524,-2.6138,-2.6677,-2.7454,-2.8652,-2.9449,-2.9627,-3.0766,-3.149,-3.149,-3.2121,-3.2767,-3.3367,0.0,0.0,0.0,0.0,-3.4583,-3.4583,-3.466,-3.4706,-3.4706,-3.4706,-3.4706,-3.4706,-3.4706,-3.466,-3.4583,-3.4583,-3.4552,-3.4429,-3.3783,-3.3532,-3.3547,-3.385,-3.4036,-3.4185,-3.4673,-3.5178,0.0,0.0,0.0,0.0,-3.5492,-3.5429,-3.5304,-3.5174,-3.4655,-3.4121,-3.3983,-3.3387,-3.2812,-3.2812,-3.2216,-3.1576,-3.1576,-3.1056,-3.0384,-2.9984,-2.9483,-2.8982,-2.8496,-2.7978,-2.7625,-2.7625,-2.7625,-2.743,-2.6782,-2.6138,0.0,-2.4776,-2.4148,-2.3684,-2.361,0.0,0.0,-2.2873,-2.2629,-2.2184,-2.1421,-2.132,-2.0965,-2.021,-2.0351,-2.0826,-2.1598,-2.1755,-2.2489,-2.3833,-2.4454,-2.44,-2.3694,-2.1698,-2.2376,0.0,0.0,0.0,0.0,0.0,0.0,0.0,0.0,0.0,0.0,0.0,0.0,0.0,0.0,0.0,-2.1944,-2.3266,-2.4484,-2.5706,-2.5966,-2.6563,-2.812,-2.9056,-2.9925,-3.0898,-3.1736,-3.2198,-3.2198,-3.2829,-3.326,-3.3398,-3.3952,0.0,-3.4475,-3.4999,-3.5291,-3.5291,-3.583,-3.6107,-3.6107,0.0,0.0,-3.6107,-3.6107,-3.5799,-3.5291,-3.5291,-3.4983,-3.446,-3.4321,-3.4193,-3.4053,-3.3989,-3.4268,-3.4721,-3.5224,-3.5515,-3.5622,-3.5622,-3.5577,-3.5594,-3.5594,-3.5515,-3.5481,-3.5402,-3.5191,0.0,-3.4844,-3.4263,-3.3574,-3.3574,-3.2613,-3.1576,-3.1576,-3.1056,-3.0485,-3.0384,-2.9705,-2.9074,-2.8982,-2.8238,-2.7625,-2.7625,-2.7625,-2.758,-2.7445,-2.6826,-2.6153,-2.5495,-2.4837,-2.4223,-2.3655,-2.3595,-2.355,-2.343,-2.2966,-2.2604,-2.2415,-2.2461,-2.2678,-2.3129,-2.3194,-2.3292,-2.3456,-2.3358,-2.3719,-2.4587,-2.4577,-2.4778,-2.5179,-2.4977,-2.506,0.0,0.0,0.0,0.0,0.0,0.0,0.0,0.0,0.0,0.0,0.0,-1.8017,-1.9593,0.0,-2.1499,-2.3152,-2.4327,-2.5204,-2.5826,-2.6371,-2.7211,-2.8412,-2.9169,-3.006,-3.1267,-3.1997,-3.2536,-3.2875,-3.3213,-3.3706,-3.4398,-3.4783,-3.5122,-3.5476,-3.5814,-3.5984,-3.5984,-3.6322,-3.6492,-3.6492,-3.6492,-3.6492,-3.6492,-3.6492,-3.6307,-3.5984,-3.5984,-3.5799,-3.546,-3.5122,-3.4728,-3.4373,-3.4883,-3.497,-3.4864,-3.5424,-3.5622,-3.5622,-3.5622,-3.5622,-3.5622,-3.5622,-3.556,-3.5543,-3.5458,-3.5328,-3.5177,-3.5027,-3.4665,-3.4336,-3.4336,-3.3524,-3.2613,-3.2249,-3.1603,-3.0931,-3.0593,-2.975,-2.9074,-2.9074,-2.8286,-2.7625,-2.7625,-2.7625,-2.7625,-2.7625,-2.7006,-2.6467,-2.6138,-2.5525,-2.4852,-2.4178,-2.4118,-2.3969,-2.3625,-2.3179,-2.3061,-2.3231,-2.3154,-2.3379,-2.3968,-2.4,-2.4166,-2.4547,-2.4446,-2.4758,-2.5499,-2.5376,-2.5537,-2.593,-2.6571,-2.6954,0.0,0.0,0.0,0.0,0.0,0.0,0.0,0.0,-1.7231,-1.8623,-1.9664,-2.0696,-2.2007,-2.2351,-2.2884,-2.4231,-2.5356,-2.6091,-2.6054,-2.6872,-2.7668,-2.8361,-2.9149,-3.0132,-3.1451,-3.2074,-3.2675,-3.3352,-3.3537,-3.4168,-3.5414,-3.5599,-3.5922,-3.6476,-3.6492,-3.6492,-3.6492,-3.6492,-3.6492,-3.6492,-3.6492,-3.6492,-3.6492,-3.6492,-3.6492,-3.6492,-3.6492,-3.6492,-3.6445,-3.5907,-3.5396,-3.4996,-3.6021,-3.5918,-3.5295,-3.5694,-3.574,-3.5622,-3.5622,-3.5622,-3.5622,-3.5622,-3.556,-3.5532,-3.5371,-3.5302,-3.521,-3.4949,-3.4899,-3.4899,-3.4899,-3.4336,-3.364,-3.3044,-3.2249,-3.1427,-3.0815,-2.9847,-2.9074,-2.9074,-2.8286,-2.7625,-2.7625,-2.7625,-2.7625,-2.7625,-2.7126,-2.6737,-2.6602,-2.6123,-2.5555,-2.4896,-2.4776,-2.4537,-2.3864,-2.3584,-2.359,-2.3973,-2.3891,-2.399,-2.4398,-2.4431,-2.4713,-2.5309,-2.5325,-2.5624,-2.622,-2.6352,-2.6419,-2.6435,-2.7367,-2.8101,-1.2378,-1.2563,-1.3144,-1.4964,-1.5517,-1.6561,0.0,0.0,-2.0837,-2.2277,-2.2731,-2.3028,-2.369,-2.4299,-2.4867,-2.5575,-2.6272,-2.6707,-2.6714,-2.6829,-2.7129,-2.7795,-2.8886,-3.0315,-3.2087,-3.2351,-3.2675,-3.3352,-3.3998,-3.4691,-3.5445,-3.6045,-3.6415,-3.6492,-3.6492,-3.6492,-3.6492,-3.6492,-3.6492,-3.6492,-3.6492,-3.6492,-3.6492,-3.6492,-3.6492,-3.6492,-3.6492,-3.6492,-3.6492,-3.6415,-3.6318,-3.6263,-3.6853,-3.6979,-3.6837,-3.6686,-3.6214,-3.5622,-3.5622,-3.5622,-3.5622,-3.5622,-3.5543,-3.5464,-3.5345,-3.5232,-3.5079,-3.4932,-3.4899,-3.4899,-3.4899,-3.4336,-3.3773,-3.369,-3.2613,-3.156,-3.1477,-3.0202,-2.9074,-2.9074,-2.8286,-2.7625,-2.7625,-2.7625,-2.7625,-2.7625,-2.7565,-2.7245,-2.6662,-2.6527,-2.6228,-2.557,-2.5495,-2.5241,-2.4522,-2.4283,-2.4343,-2.4753,-2.5083,-2.5477,-2.5919,-2.5955,-2.6005,-2.6087,-2.6087,-2.6137,-2.622,-2.6849,-2.7201,-2.7164,-2.7756,-2.8115,-1.555,-1.5758,0.0,0.0,-1.8443,-1.9226,-2.1363,-2.1927,-2.235,-2.346,-2.4028,-2.434,-2.4598,-2.4842,-2.5208,0.0,-2.6416,-2.6945,-2.7284,-2.7339,-2.7571,-2.8254,-2.9101,-3.0043,-3.1218,-3.2002,-3.2844,-3.3937,-3.4306,-3.4937,-3.6014,-3.6338,-3.6492,-3.6492,-3.6492,-3.6492,-3.6492,-3.6492,-3.6492,-3.6492,-3.6492,-3.6492,-3.6492,-3.6492,-3.6492,-3.6492,-3.6492,-3.6492,-3.6554,-3.6892,-3.6982,-3.7084,-3.7979,-3.8095,-3.7593,-3.703,-3.6574,-3.6236,-3.5746,-3.5622,-3.5622,-3.5622,-3.5543,-3.5448,-3.5345,-3.5215,-3.5063,-3.4932,-3.4899,-3.4899,-3.4899,-3.4667,-3.4319,-3.3889,-3.2994,-3.2133,-3.1719,-3.0267,-2.9074,-2.9074,-2.8286,-2.7625,-2.7625,-2.7625,-2.7625,-2.7625,-2.7625,-2.752,-2.72,-2.7156,-2.6916,-2.6243,-2.5839,-2.5634,-2.5621,-2.5157,-2.5165,-2.5862,-2.5653,-2.5721,-2.6168,-2.622,-2.6402,-2.6816,-2.6833,-2.7031,-2.7479,-2.7777,-2.7964,-2.7964,-2.8576,-2.9075,-1.7421,0.0,0.0,-1.9482,-2.0359,-2.1107,-2.197,-2.267,-2.3322,-2.4039,-2.4595,-2.5005,-2.5005,-2.5141,-2.5453,-2.605,-2.666,-2.7271,-2.7868,-2.78,-2.794,-2.8647,-2.9097,-2.961,-3.0253,-3.1597,-3.2911,-3.4117,-3.4401,-3.5076,-3.6415,-3.6492,-3.6492,-3.6492,-3.6492,-3.6492,-3.6492,-3.6492,-3.6492,-3.6492,-3.6492,-3.6492,-3.6492,-3.6492,-3.6492,-3.6492,-3.6492,-3.6492,-3.6554,-3.6952,-3.7351,-3.7752,-3.8618,-3.8843,-3.8553,-3.7719,-3.7165,-3.6734,-3.6124,-3.5802,-3.5622,-3.5622,-3.556,-3.5453,-3.5316,-3.5232,-3.5063,-3.4932,-3.4899,-3.4899,-3.4899,-3.4899,-3.4767,-3.422,-3.3524,-3.2796,-3.2067,-3.0603,-2.9357,-2.9121,-2.8286,-2.7625,-2.7625,-2.7625,-2.7625,-2.7625,-2.7625,-2.7625,-2.7625,-2.7625,-2.738,-2.6916,-2.6273,-2.6104,-2.6595,-2.6112,-2.6078,-2.6839,-2.6509,-2.6438,-2.68,-2.6816,-2.7048,-2.7599,-2.7616,-2.7881,-2.8412,-2.8572,-2.8671,-2.8671,-2.9383,-2.9955,0.0,0.0,-1.7784,-1.9312,-2.0496,-2.1512,-2.2451,-2.3475,-2.4239,-2.4266,-2.4694,-2.5005,-2.5005,-2.548,-2.6063,-2.6687,-2.7298,-2.7881,-2.8478,-2.8071,-2.794,-2.8647,-2.8707,-2.8978,0.0,-3.1287,-3.2726,-3.3472,-3.4149,-3.5076,-3.6415,-3.6492,-3.6492,-3.6492,-3.6492,-3.6492,-3.6492,-3.6492,-3.6492,-3.6492,-3.6492,-3.6492,-3.6492,-3.6492,-3.6492,-3.6492,-3.6492,-3.6492,-3.6492,-3.6492,-3.7238,-3.8311,-3.8294,-3.9011,-3.9952,-3.9211,-3.801,-3.6808,-3.6774,-3.6248,-3.5622,-3.5622,-3.5566,-3.548,-3.5354,-3.5218,-3.5063,-3.4932,-3.4899,-3.4899,-3.4899,-3.4899,-3.4883,-3.4866,-3.4286,-3.3557,-3.2812,-3.1332,-2.9943,-2.9262,-2.8286,-2.7625,-2.7625,-2.7625,-2.7625,-2.7625,-2.7625,-2.7625,-2.7625,-2.7625,-2.761,-2.7595,-2.6961,-2.6784,-2.7211,-2.7089,-2.7169,-2.7624,-2.8056,-2.8307,-2.8307,-2.8307,-2.8323,-2.8395,-2.8395,-2.8395,-2.8412,-2.9052,-2.9383,-2.94,-3.0145,-3.0493,0.0,0.0,-1.9958,-2.1773,-2.2305,-2.2605,-2.3577,-2.385,-2.3709,-2.3391,-2.3428,-2.3424,-2.3099,-2.3731,-2.4633,-2.5635,-2.6546,-2.7461,-2.8451,-2.8424,-2.8203,-2.8044,-2.8739,0.0,0.0,0.0,0.0,-3.3411,-3.4149,-3.5076,-3.6415,-3.6492,-3.6492,-3.6492,-3.6492,-3.6492,-3.6492,-3.6492,-3.6492,-3.6492,-3.6492,-3.6492,-3.6492,-3.6492,-3.6492,-3.6492,-3.6492,-3.6492,-3.6554,-3.6952,-3.7335,-3.7793,-3.8581,-3.9157,-3.9547,-3.9649,-3.9125,-3.8111,-3.7126,-3.661,-3.6282,-3.574,-3.5503,-3.5371,-3.5295,-3.5155,-3.4932,-3.4899,-3.4899,-3.4899,-3.4899,-3.4899,-3.4899,-3.4899,-3.4336,-3.3723,-3.3475,-3.206,-3.0623,-2.9959,-2.8962,-2.8113,-2.77,-2.7625,-2.7625,-2.7625,-2.7625,-2.7625,-2.7625,-2.7625,-2.7625,-2.7625,-2.743,-2.761,-2.8435,-2.7989,-2.8014,-2.8796,-2.8543,-2.8412,-2.8412,-2.8412,-2.8605,-2.9052,-2.9069,-2.9301,-2.9798,-3.0029,-3.0145,-3.0162,-3.0352,-3.0609,-1.9585,-2.0414,-2.1292,-2.2896,-2.3133,-2.3108,-2.3767,-2.3485,-2.2883,-2.2382,-2.2214,-2.2073,-2.1506,-2.2074,-2.3067,-2.4505,-2.5382,-2.6505,-2.8381,-2.8448,-2.8471,-2.8949,-2.9265,-2.937,0.0,0.0,0.0,-3.2698,-3.4061,-3.5246,-3.6087,-3.6352,-3.6492,-3.6492,-3.6492,-3.6492,-3.6492,-3.6492,-3.6492,-3.6492,-3.6492,-3.6492,-3.6492,-3.6492,-3.6492,-3.6492,-3.6492,-3.6492,-3.6554,-3.6892,-3.732,-3.7777,-3.8597,-3.9157,-3.9581,-3.9969,-3.98,-3.9211,-3.8021,-3.7407,-3.7051,-3.6282,-3.5879,-3.5626,-3.5379,-3.5121,-3.4899,-3.4899,-3.4899,-3.4899,-3.4899,-3.4899,-3.4899,-3.4899,-3.4535,-3.4104,-3.3856,-3.2595,-3.1286,-3.0655,-2.9469,-2.8457,-2.8008,-2.779,-2.7625,-2.7625,-2.7625,-2.7625,-2.7625,-2.7625,-2.766,-2.7845,-2.7845,-2.8271,-2.9257,-2.8933,-2.8968,-2.9716,-2.94,-2.9135,-2.9135,-2.9135,-2.935,-2.9798,-2.9798,-3.0046,-3.0526,-3.0526,-3.0526,-3.0526,-3.0526,-3.0609,-2.0354,-2.1019,-2.1728,-2.2763,-2.3003,-2.2979,-2.2979,-2.247,-2.184,-2.1325,-2.1091,-2.0888,0.0,0.0,-2.1536,-2.3341,-2.4028,-2.5387,-2.8305,-2.8265,-2.8732,0.0,0.0,0.0,0.0,0.0,0.0,-3.1485,0.0,-3.5431,-3.537,-3.6085,-3.6492,-3.6414,-3.6492,-3.6492,-3.6492,-3.6492,-3.6492,-3.6492,-3.6492,-3.6492,-3.6492,-3.6492,-3.6492,-3.6492,-3.6492,-3.6492,-3.6492,-3.6554,-3.7222,-3.8278,-3.8334,-3.9065,-4.007,-4.007,-4.007,-4.0003,-3.9278,-3.8588,-3.7846,-3.7101,-3.6653,-3.6293,-3.5559,-3.5121,-3.4899,-3.4899,-3.4899,-3.4899,-3.4899,-3.4899,-3.4899,-3.4899,-3.4899,-3.47,-3.4005,-3.3032,-3.2048,-3.1286,-2.9807,-2.8637,-2.8607,-2.8053,-2.767,-2.7625,-2.7625,-2.7625,-2.7625,-2.7625,-2.781,-2.8255,-2.8336,-2.8717,-2.9705,-2.9793,-2.9984,-3.0468,-3.0526,-3.0526,-3.0526,-3.0526,-3.0526,-3.0526,-3.0526,-3.0526,-3.0526,-3.0526,-3.0526,-3.0526,-3.0526,-3.0526,-2.0451,-2.1548,-2.2739,-2.34,-2.328,-2.2979,-2.2979,-2.1971,-2.0698,-1.9806,-1.9226,-1.8669,-1.7725,0.0,0.0,-2.2444,-2.458,0.0,-2.8972,-2.9538,0.0,-3.0556,0.0,-3.0786,-3.061,-3.1485,0.0,0.0,-3.3427,-3.4633,-3.4603,-3.58,-3.6289,-3.5672,-3.6211,-3.6492,-3.6492,-3.6492,-3.6492,-3.6492,-3.6492,-3.6492,-3.6492,-3.6492,-3.6492,-3.6492,-3.6492,-3.6492,-3.6554,-3.7013,-3.7342,-3.7738,-3.8645,-3.9135,-3.947,-3.9918,-4.007,-4.0054,-3.9868,-3.9327,-3.8584,-3.7841,-3.7087,-3.6377,-3.6209,-3.5568,-3.4899,-3.4899,-3.4899,-3.4899,-3.4899,-3.4899,-3.4899,-3.4899,-3.4899,-3.4849,-3.4651,-3.4105,-3.3283,-3.213,-3.0514,-2.9175,-2.8682,-2.8457,-2.8173,-2.77,-2.7894,-2.7978,-2.761,-2.7894,-2.8158,-2.8304,-2.8638,-2.915,-2.975,-2.9793,-2.9984,-3.0468,-3.0526,-3.0526,-3.0526,-3.0526,-3.0526,-3.0526,-3.0526,-3.0526,-3.0526,-3.0526,-3.0526,-3.0526,-3.0526,-3.0526,-2.1416,-2.2462,-2.3448,-2.3965,-2.3713,-2.3207,-2.2751,-2.1392,-1.9817,-1.8265,-1.7712,0.0,-1.5824,0.0,0.0,0.0,0.0,0.0,-2.8772,-2.9657,-3.0317,0.0,-3.1477,0.0,-3.1219,-3.1803,-3.2136,0.0,-3.3321,-3.42,-3.3822,-3.4927,-3.5464,-3.54,-3.58,-3.6148,-3.6492,-3.6492,-3.6492,-3.6492,-3.6492,-3.6492,-3.6492,-3.6492,-3.6492,-3.6492,0.0,-3.6492,-3.6554,-3.6892,-3.7342,-3.7854,-3.8518,-3.9135,-3.9644,-3.9969,-4.007,-4.007,-4.007,-3.9817,-3.9343,-3.8616,-3.7947,-3.7216,-3.6611,-3.5935,-3.5313,-3.4982,-3.4899,-3.4899,-3.4899,-3.4899,-3.4899,-3.4899,-3.4899,-3.4899,-3.4899,-3.4497,-3.3673,-3.2159,-3.1074,-3.0061,-2.9091,-2.8925,-2.8748,-2.833,-2.8496,-2.8559,-2.8271,-2.8511,-2.8732,-2.895,-2.9241,-2.9617,-3.007,-3.0113,-3.0199,-3.0468,-3.0526,-3.0526,-3.0526,-3.0526,-3.0526,-3.0526,-3.0526,-3.0526,-3.0526,-3.0526,-3.0526,-3.0526,-3.0526,-3.0526,-2.2702,-2.3299,-2.3735,-2.4314,-2.397,-2.3233,-2.2234,-2.0682,-1.8903,-1.6931,0.0,-1.5897,-1.4542,-1.6123,-1.8142,-1.9585,0.0,-2.4563,-2.8186,-2.9194,-3.0214,-3.1911,-3.2128,-3.2182,-3.2182,-3.2182,-3.2182,-3.2182,-3.3311,-3.3768,-3.3087,-3.3837,-3.4581,-3.5255,-3.5255,-3.5608,-3.6352,-3.6352,-3.6414,-3.6492,-3.6492,-3.6492,-3.6492,-3.6492,-3.6492,-3.6492,0.0,0.0,-3.6492,-3.6616,-3.7282,-3.8294,-3.839,-3.9119,-4.007,-4.007,-4.007,-4.007,-4.007,-4.007,-3.9969,-3.9343,-3.8874,-3.8338,-3.6932,-3.6319,-3.5843,-3.5098,-3.4899,-3.4899,-3.4899,-3.4899,-3.4899,-3.4899,-3.4899,-3.4899,-3.4899,-3.4497,-3.3655,-3.2039,-3.1665,-3.118,-2.972,-2.9489,-2.941,-2.9061,-2.912,-2.9166,-2.9166,-2.9166,-2.9348,-2.975,-2.9853,-3.007,-3.0485,-3.0526,-3.0526,-3.0526,-3.0526,-3.0526,-3.0526,-3.0526,-3.0526,-3.0526,-3.0526,-3.0526,-3.0526,-3.0526,-3.0526,-3.0526,-3.0526,-3.0526,-2.2702,-2.2881,-2.3012,-2.3735,-2.3022,-2.1922,-2.1045,-1.93,0.0,0.0,-1.5271,-1.4627,-1.4337,-1.5966,-1.8017,-2.0038,0.0,0.0,0.0,0.0,-3.0011,0.0,0.0,0.0,0.0,0.0,0.0,0.0,0.0,0.0,-3.2372,-3.3575,-3.438,-3.4514,-3.4514,-3.4846,-3.5593,-3.5593,-3.5879,-3.6492,-3.6492,-3.6492,-3.6492,-3.6492,-3.6492,-3.6492,0.0,0.0,-3.6554,-3.7074,-3.7679,-3.8351,-3.8865,-3.947,-4.007,-4.007,-4.007,-4.007,-4.007,-4.007,-4.0054,-3.9935,-3.9345,-3.8439,-3.7551,-3.667,-3.5843,-3.5098,-3.4899,-3.4899,-3.4899,-3.4899,-3.4899,-3.4899,-3.4899,-3.4899,-3.4899,-3.4497,-3.4018,-3.3671,-3.3248,-3.2322,-3.0536,-3.0541,-3.0253,-2.8682,-2.915,-2.9661,-2.9661,-2.9661,-2.9705,-2.9793,-3.0156,-3.0426,-3.0468,-3.0526,-3.0526,-3.0526,-3.0526,-3.0526,-3.0526,-3.0526,-3.0526,-3.0526,-3.0526,-3.0526,-3.0526,-3.0526,-3.0526,-3.0526,-3.0526,-3.0526,-2.2622,-2.3015,-2.3273,-2.3532,-2.3015,-2.202,-2.0541,0.0,0.0,0.0,-1.4651,-1.412,-1.3565,0.0,0.0,0.0,0.0,0.0,0.0,0.0,0.0,0.0,0.0,0.0,0.0,0.0,0.0,0.0,0.0,0.0,-3.2182,-3.3171,-3.3768,-3.3768,-3.4109,-3.4447,-3.4846,-3.519,-3.5608,-3.5943,-3.6289,-3.6492,-3.6492,-3.6492,-3.6492,-3.6492,0.0,0.0,-3.6492,-3.6846,-3.7445,-3.8351,-3.8629,-3.9295,-4.007,-4.007,-4.007,-4.007,-4.007,-4.007,-4.002,-3.9581,-3.9026,-3.8455,-3.7652,-3.6721,-3.5843,-3.5098,-3.4899,-3.4899,-3.4899,-3.4899,-3.4899,-3.4899,-3.4899,-3.4899,-3.4899,-3.4691,-3.4448,-3.4151,-3.3882,-3.3147,-3.148,-3.1373,-3.1038,-2.9659,-2.9881,-3.0156,-3.0156,-3.0156,-3.0156,-3.0156,-3.0384,-3.0526,-3.0526,-3.0526,-3.0526,-3.0526,-3.0526,-3.0526,-3.0526,-3.0526,-3.0526,-3.0526,-3.0526,-3.0526,-3.0526,-3.0526,-3.0526,-3.0526,-3.0526,-3.0526,-2.2509,-2.3003,-2.3438,-2.3236,-2.2893,-2.2047,-2.0093,-1.8289,0.0,0.0,-1.4108,-1.3722,-1.3011,0.0,0.0,0.0,0.0,0.0,0.0,0.0,0.0,0.0,0.0,0.0,0.0,0.0,0.0,0.0,0.0,0.0,0.0,-3.2704,-3.296,-3.296,-3.3575,-3.3905,-3.4041,-3.4795,-3.5255,-3.54,-3.6148,-3.6492,-3.6492,-3.6492,-3.6492,-3.6492,0.0,0.0,0.0,-3.6492,-3.7103,-3.8124,-3.8238,-3.8957,-3.9918,-4.007,-4.007,-4.007,-4.007,-4.0087,-3.9902,-3.9026,-3.869,-3.8439,-3.7369,-3.6555,-3.5843,-3.5098,-3.4899,-3.4899,-3.4899,-3.4899,-3.4899,-3.4899,-3.4899,-3.4899,-3.4899,-3.4899,-3.4804,-3.4349,-3.425,-3.3779,-3.219,-3.1978,-3.1691,-3.0514,-3.0426,-3.0526,-3.0526,-3.0526,-3.0526,-3.0526,-3.0526,-3.0526,-3.0526,-3.0526,-3.0526,-3.0526,-3.0526,-3.0526,-3.0526,-3.0526,-3.0526,-3.0526,-3.0526,-3.0526,-3.0526,-3.0526,-3.0526,-3.0526,-3.0526,-3.0526,-2.2308,-2.2486,-2.2369,-2.2605,-2.1896,-2.08,-1.9376,0.0,0.0,-1.453,-1.3529,-1.2975,-1.336,-1.3615,0.0,0.0,0.0,-1.9798,0.0,0.0,0.0,0.0,0.0,0.0,0.0,0.0,0.0,0.0,0.0,0.0,0.0,-3.2241,-3.2314,-3.2314,-3.2386,-3.2704,-3.3297,-3.4027,-3.4714,-3.54,-3.6148,-3.6492,-3.6492,-3.6492,-3.6492,-3.6492,0.0,0.0,0.0,-3.6492,-3.6892,-3.7519,-3.8067,-3.8684,-3.9365,-3.9918,-4.007,-4.007,-4.007,-4.0037,-3.9766,-3.8891,-3.8606,-3.8338,-3.6752,-3.6189,-3.5843,-3.5098,-3.4899,-3.4899,-3.4899,-3.4899,-3.4899,-3.4899,-3.4899,-3.4899,-3.4899,-3.4899,-3.4899,-3.4851,-3.4851,-3.423,-3.2301,-3.2364,-3.2006,-3.0152,-3.0258,-3.0526,-3.0526,-3.0526,-3.0526,-3.0526,-3.0526,-3.0526,-3.0526,-3.0526,-3.0526,-3.0526,-3.0526,-3.0526,-3.0526,-3.0526,-3.0526,-3.0526,-3.0526,-3.0526,-3.0526,-3.0526,-3.0526,-3.0526,-3.0526,-3.0526,-2.177,-2.1933,-2.1897,-2.248,-2.1533,-2.024,-1.9233,0.0,-1.5109,-1.4446,-1.3445,-1.277,-1.2987,-1.3288,-1.3956,0.0,-1.6108,-1.7647,-2.0759,0.0,0.0,0.0,0.0,0.0,0.0,0.0,0.0,0.0,0.0,0.0,0.0,-3.2182,-3.2182,-3.2182,-3.2182,-3.2314,-3.2574,-3.3297,-3.4041,-3.4714,-3.5464,-3.6085,-3.6492,-3.6492,-3.6492,-3.6492,0.0,0.0,0.0,-3.6492,-3.6846,-3.7476,-3.8067,-3.8684,-3.9259,-3.9867,-4.007,-4.007,-3.9986,-3.9935,-3.9648,-3.8254,-3.782,-3.7586,-3.6438,-3.5726,-3.528,-3.4982,-3.4899,-3.4899,-3.4899,-3.4899,-3.4899,-3.4899,-3.4899,-3.4899,-3.4899,-3.4899,-3.4899,-3.4899,-3.4899,-3.4372,-3.2718,-3.2954,-3.2652,-3.0537,-3.0764,-3.0981,-3.0576,-3.0526,-3.0526,-3.0526,-3.0526,-3.0526,-3.0526,-3.0526,-3.0526,-3.0526,-3.0526,-3.0526,-3.0526,-3.0526,-3.0526,-3.0526,-3.0526,-3.0526,-3.0526,-3.0526,-3.0526,-3.0526,-3.0526,-3.0526,-2.0621,-2.0973,-2.1058,-2.1485,-2.0786,-1.9709,0.0,-1.6681,-1.4857,-1.4397,-1.3445,-1.2662,-1.2556,-1.3058,-1.3586,-1.3823,-1.4773,-1.6215,-1.8436,0.0,0.0,0.0,0.0,0.0,0.0,0.0,0.0,0.0,0.0,0.0,0.0,-3.2182,-3.2182,-3.2182,-3.2182,-3.2182,-3.2182,-3.2889,-3.3492,-3.3973,-3.4927,-3.5672,-3.6148,-3.6414,-3.6492,0.0,0.0,0.0,0.0,-3.6492,-3.6723,-3.7178,-3.7796,-3.8407,-3.9028,-3.9627,-3.9918,-4.0037,-3.9935,-3.9849,-3.9528,-3.812,-3.7453,-3.7103,-3.6273,-3.5479,-3.4899,-3.4899,-3.4899,-3.4899,-3.4899,-3.4899,-3.4899,-3.4899,-3.4899,-3.4899,-3.4899,-3.4899,-3.4899,-3.4899,-3.4899,-3.4502,-3.3226,-3.3442,-3.311,-3.1139,-3.1246,-3.1312,-3.0609,-3.0526,-3.0526,-3.0526,-3.0526,-3.0526,-3.0526,-3.0526,-3.0526,-3.0526,-3.0526,-3.0526,-3.0526,-3.0526,-3.0526,-3.0526,-3.0526,-3.0526,-3.0526,-3.0526,-3.0526,-3.0526,-3.0526,-3.0642,-1.8865,-1.9497,-1.9682,-1.9168,-1.925,-1.9114,0.0,-1.6139,-1.4857,-1.4397,-1.3445,-1.2591,-1.2186,-1.2874,-1.3383,-1.2976,-1.4158,-1.5833,-1.7908,0.0,0.0,0.0,0.0,0.0,0.0,0.0,0.0,0.0,0.0,0.0,0.0,0.0,-3.2182,-3.2182,-3.2182,-3.2182,-3.2182,-3.2889,-3.3213,-3.3213,-3.4714,-3.54,-3.5464,-3.6148,0.0,0.0,0.0,0.0,0.0,-3.6492,-3.6492,-3.6554,-3.7178,-3.7796,-3.839,-3.8974,-3.9487,-3.9901,-3.9901,-3.9746,-3.9368,-3.8619,-3.7801,-3.697,-3.6224,-3.5479,-3.4899,-3.4899,-3.4899,-3.4899,-3.4899,-3.4899,-3.4899,-3.4899,-3.4899,-3.4899,-3.4899,-3.4899,-3.4899,-3.4899,-3.4899,-3.4651,-3.3905,-3.3789,-3.3292,-3.1835,-3.1576,-3.1312,-3.0609,-3.0526,-3.0526,-3.0526,-3.0526,-3.0526,-3.0526,-3.0526,-3.0526,-3.0526,-3.0526,-3.0526,-3.0526,-3.0526,-3.0526,-3.0526,-3.0526,-3.0526,-3.0526,-3.0526,-3.0526,-3.0526,-3.0526,-3.0865,-1.7643,-1.7451,-1.6982,-1.7805,-1.7423,-1.6658,-1.6024,-1.5183,-1.4225,-1.3168,-1.2574,-1.215,-1.1774,-1.1945,-1.2502,-1.3608,-1.42,0.0,0.0,0.0,0.0,0.0,0.0,0.0,0.0,0.0,0.0,0.0,0.0,0.0,0.0,0.0,-3.2182,-3.2182,-3.2182,-3.2182,-3.2182,-3.2444,-3.2761,-3.3213,-3.4177,-3.4912,-3.54,-3.6148,0.0,0.0,0.0,0.0,0.0,-3.6492,-3.6492,-3.6554,-3.7178,-3.7796,-3.839,-3.8974,-3.9504,-3.9901,-3.9798,-3.9642,-3.9285,-3.795,-3.7335,-3.687,-3.5628,-3.5081,-3.4899,-3.4899,-3.4899,-3.4899,-3.4899,-3.4899,-3.4899,-3.4899,-3.4899,-3.4899,-3.4899,-3.4899,-3.4899,-3.4899,-3.4899,-3.4667,-3.3922,-3.422,-3.4054,-3.2564,-3.2348,-3.21,-3.1371,-3.0782,-3.0526,-3.0526,-3.0526,-3.0526,-3.0526,-3.0526,-3.0526,-3.0526,-3.0526,-3.0526,-3.0526,-3.0526,-3.0526,-3.0526,-3.0526,-3.0526,-3.0526,-3.0526,-3.0526,-3.0526,-3.104,-3.1669,-1.5626,-1.5511,-1.5103,-1.6033,-1.5647,-1.4991,-1.4687,-1.4071,-1.3321,-1.2452,-1.2072,-1.1737,-1.1367,-1.1697,-1.2286,-1.3086,-1.3763,0.0,0.0,0.0,0.0,0.0,0.0,0.0,0.0,0.0,0.0,0.0,0.0,0.0,0.0,0.0,-3.2182,-3.2182,-3.2182,-3.2182,-3.2182,-3.2182,-3.2444,-3.2832,-3.3837,-3.4514,-3.4993,0.0,0.0,0.0,0.0,0.0,0.0,-3.6492,-3.6492,-3.6554,-3.6892,-3.7562,-3.8351,-3.8645,-3.9222,-3.9798,-3.9677,-3.9354,-3.883,-3.7814,-3.7152,-3.6456,-3.5263,-3.4899,-3.4899,-3.4899,-3.4899,-3.4899,-3.4899,-3.4899,-3.4899,-3.4899,-3.4899,-3.4899,-3.4899,-3.4899,-3.4899,-3.4899,-3.4899,-3.475,-3.4286,-3.4601,-3.4386,-3.2911,-3.268,-3.2332,-3.1338,-3.0808,-3.0526,-3.0526,-3.0526,-3.0526,-3.0526,-3.0526,-3.0526,-3.0526,-3.0526,-3.0526,-3.0526,-3.0526,-3.0526,-3.0526,-3.0526,-3.0526,-3.0526,-3.0526,-3.0526,-3.0543,-3.1288,-3.2017,0.0,-1.3611,-1.385,-1.3869,-1.3947,-1.3895,-1.3487,-1.2822,0.0,-1.2184,-1.1785,-1.1351,-1.0999,-1.1946,-1.2521,-1.1885,0.0,0.0,0.0,0.0,0.0,0.0,0.0,0.0,0.0,0.0,0.0,0.0,0.0,0.0,0.0,0.0,0.0,-3.2182,-3.2182,-3.2182,-3.2182,-3.2182,-3.2182,-3.2255,-3.3644,-3.4312,-3.438,0.0,0.0,0.0,0.0,0.0,0.0,-3.6492,-3.6492,-3.6492,-3.6492,-3.7222,-3.8294,-3.8141,-3.8739,-3.9594,-3.9454,-3.8847,-3.8129,-3.8079,-3.7085,-3.5794,-3.5098,-3.4899,-3.4899,-3.4899,-3.4899,-3.4899,-3.4899,-3.4899,-3.4899,-3.4899,-3.4899,-3.4899,-3.4899,-3.4899,-3.4899,-3.4899,-3.4899,-3.4899,-3.4899,-3.4899,-3.4419,-3.2978,-3.2713,-3.2183,-3.0775,-3.0543,-3.0526,-3.0526,-3.0526,-3.0526,-3.0526,-3.0526,-3.0526,-3.0526,-3.0526,-3.0526,-3.0526,-3.0526,-3.0526,-3.0526,-3.0526,-3.0526,-3.0526,-3.0526,-3.0526,-3.0543,-3.1288,-3.2017,-1.0729,0.0,-1.1575,-1.152,-1.1902,-1.2172,0.0,-1.1933,-1.2012,-1.0999,-1.0912,-1.1134,-1.1384,-1.1394,-1.1854,0.0,0.0,0.0,0.0,0.0,0.0,0.0,0.0,0.0,0.0,0.0,0.0,0.0,0.0,0.0,0.0,0.0,0.0,-3.2182,-3.2182,-3.2182,-3.2182,-3.2182,-3.2182,-3.2255,-3.3644,-3.4312,-3.438,0.0,0.0,0.0,0.0,0.0,-3.6492,-3.6492,-3.6492,-3.6492,-3.6352,-3.7042,-3.8141,-3.7953,-3.8231,-3.8687,-3.8652,-3.8066,-3.7284,-3.6704,-3.5909,-3.5131,-3.4949,-3.4899,-3.4899,-3.4899,-3.4899,-3.4899,-3.4899,-3.4899,-3.4899,-3.4899,-3.4899,-3.4899,-3.4899,-3.4899,-3.4899,-3.4899,-3.4899,-3.4899,-3.4899,-3.4899,-3.4584,-3.3673,-3.3044,-3.2365,-3.147,-3.0874,-3.0526,-3.0526,-3.0526,-3.0526,-3.0526,-3.0526,-3.0526,-3.0526,-3.0526,-3.0526,-3.0526,-3.0526,-3.0526,-3.0526,-3.0526,-3.0526,-3.0526,-3.0526,-3.0526,-3.0543,-3.1288,-3.2017,-0.9776,-1.0579,-1.1352,-1.1318,-1.1644,-1.184,-1.1551,-1.1444,-1.1178,0.0,0.0,-1.0985,-1.1214,-1.1814,0.0,0.0,0.0,0.0,0.0,0.0,0.0,0.0,0.0,0.0,0.0,0.0,0.0,0.0,0.0,0.0,0.0,0.0,0.0,0.0,-3.2182,-3.2182,-3.2182,-3.2182,-3.2182,-3.2255,-3.3644,-3.4312,-3.438,0.0,0.0,0.0,0.0,0.0,-3.6492,-3.6492,-3.6429,-3.6352,-3.6274,-3.6738,-3.7562,-3.7648,-3.7841,-3.7972,-3.8231,-3.7551,-3.6473,-3.5744,-3.523,-3.4899,-3.4899,-3.4899,-3.4899,-3.4899,-3.4899,-3.4899,-3.4899,-3.4899,-3.4899,-3.4899,-3.4899,-3.4899,-3.4899,-3.4899,-3.4899,-3.4899,-3.4899,-3.4899,-3.4899,-3.4618,-3.4137,-3.3392,-3.2663,-3.1934,-3.1205,-3.0775,-3.0526,-3.0526,-3.0824,-3.0891,-3.0543,-3.0782,-3.0874,-3.0543,-3.0526,-3.0526,-3.0526,-3.0526,-3.0526,-3.0526,-3.0526,-3.0526,-3.0526,-3.0526,-3.0526,-3.0543,-3.1288,-3.2017,-0.9677,-1.0887,-1.1997,-1.1787,-1.1933,-1.2111,-1.204,0.0,0.0,0.0,0.0,0.0,0.0,-1.2711,0.0,0.0,0.0,0.0,0.0,0.0,0.0,0.0,0.0,0.0,0.0,0.0,0.0,0.0,0.0,0.0,0.0,0.0,0.0,0.0,-3.2182,-3.2182,-3.2182,-3.2182,-3.2182,-3.2255,-3.3644,-3.4312,-3.438,-3.5816,0.0,0.0,0.0,0.0,-3.6492,-3.6492,-3.6414,-3.6274,-3.6211,-3.6492,-3.7011,-3.7302,-3.7327,-3.7302,-3.7593,-3.6887,-3.5727,-3.5098,-3.4899,-3.4899,-3.4899,-3.4899,-3.4899,-3.4899,-3.4899,-3.4899,-3.4899,-3.4899,-3.4899,-3.4899,-3.4899,-3.4899,-3.4899,-3.4899,-3.4899,-3.4899,-3.4899,-3.4899,-3.4899,-3.4369,-3.3673,-3.2812,-3.2266,-3.1653,-3.0808,-3.0791,-3.0858,-3.0858,-3.1421,-3.152,-3.0907,-3.1421,-3.152,-3.0891,-3.0642,-3.0526,-3.0526,-3.0526,-3.0526,-3.0526,-3.0526,-3.0526,-3.0526,-3.0526,-3.0526,-3.0543,-3.1288,-3.2017,-1.0017,-1.1193,-1.2016,-1.0903,-1.1265,-1.1794,-1.1439,0.0,0.0,0.0,0.0,0.0,0.0,0.0,0.0,0.0,0.0,0.0,0.0,0.0,0.0,0.0,0.0,0.0,0.0,0.0,0.0,0.0,0.0,0.0,0.0,0.0,0.0,0.0,0.0,-3.2182,-3.2182,-3.2182,-3.2182,-3.2255,-3.3644,-3.4312,-3.438,-3.5816,-3.6492,0.0,0.0,-3.6492,-3.6492,-3.6492,-3.6492,-3.6429,-3.6163,-3.6523,-3.71,-3.6679,-3.6526,-3.6417,-3.5679,-3.5263,-3.5048,-3.4932,-3.4899,-3.4899,-3.4899,-3.4899,-3.4899,-3.4899,-3.4899,-3.4899,-3.4899,-3.4899,-3.4899,-3.4899,-3.4899,-3.4899,-3.4899,-3.4899,-3.4899,-3.4899,-3.4899,-3.4899,-3.4899,-3.48,-3.427,-3.2895,-3.3127,-3.2978,-3.1636,-3.1984,-3.2348,-3.2348,-3.2448,-3.2481,-3.2365,-3.2464,-3.2481,-3.2365,-3.1205,-3.0526,-3.0526,-3.0526,-3.0526,-3.0526,-3.0526,-3.0526,-3.0526,-3.0526,-3.0526,-3.0543,-3.1288,-3.2017,-0.9492,-1.0523,-1.1361,-1.1058,-1.1939,-1.2827,-1.2855,-1.2575,0.0,0.0,0.0,0.0,0.0,0.0,0.0,0.0,0.0,0.0,0.0,0.0,0.0,0.0,0.0,0.0,0.0,0.0,0.0,0.0,0.0,0.0,0.0,0.0,0.0,0.0,0.0,-3.2182,-3.2182,-3.2182,-3.2182,-3.2255,-3.3644,-3.4312,-3.438,-3.5816,-3.6492,0.0,0.0,-3.6492,-3.6492,-3.6492,-3.6414,-3.6305,-3.5751,-3.5661,-3.5753,-3.5331,-3.5594,-3.604,-3.5215,-3.4899,-3.4899,-3.4899,-3.4899,-3.4899,-3.4899,-3.4899,-3.4899,-3.4899,-3.4899,-3.4899,-3.4899,-3.4899,-3.4899,-3.4899,-3.4899,-3.4899,-3.4899,-3.4899,-3.4899,-3.4899,-3.4899,-3.4899,-3.4899,-3.4568,-3.4071,-3.3392,-3.2895,-3.2514,-3.2232,-3.215,-3.2266,-3.2646,-3.3044,-3.2961,-3.2183,-3.2464,-3.2531,-3.2133,-3.1487,-3.094,-3.0543,-3.0526,-3.0526,-3.0526,-3.0526,-3.0526,-3.0526,-3.0526,-3.0725,-3.1123,-3.1427,-3.2216,-0.9083,-0.9848,-1.068,-1.1266,0.0,-1.3296,-1.4128,-1.37,0.0,0.0,0.0,0.0,0.0,0.0,0.0,0.0,0.0,0.0,0.0,0.0,0.0,0.0,0.0,0.0,0.0,0.0,0.0,0.0,0.0,0.0,0.0,0.0,0.0,0.0,0.0,0.0,-3.2182,-3.2182,-3.2241,-3.2444,-3.3713,-3.438,-3.4581,-3.5879,-3.6492,-3.6492,-3.6492,-3.6492,-3.6476,-3.6322,-3.6183,-3.5967,-3.5355,-3.4971,-3.4739,-3.4542,-3.4972,-3.5661,-3.5098,-3.4899,-3.4899,-3.4899,-3.4899,-3.4899,-3.4899,-3.4899,-3.4899,-3.4899,-3.4899,-3.4899,-3.4899,-3.4899,-3.4899,-3.4899,-3.4899,-3.4899,-3.4899,-3.4899,-3.4899,-3.4899,-3.4899,-3.4849,-3.4667,-3.417,-3.3673,-3.3342,-3.2481,-3.2017,-3.2381,-3.2266,-3.2332,-3.2895,-3.3607,-3.3524,-3.2249,-3.263,-3.2564,-3.1686,-3.1576,-3.1246,-3.0543,-3.0526,-3.0526,-3.0526,-3.0526,-3.0526,-3.0526,-3.0526,-3.0808,-3.1328,-3.1719,-3.2464,-0.9373,-0.9798,-1.0262,-1.1039,-1.1206,0.0,-1.3961,-1.3879,0.0,-1.5364,0.0,0.0,0.0,0.0,0.0,0.0,0.0,0.0,0.0,0.0,0.0,0.0,0.0,0.0,0.0,0.0,0.0,0.0,0.0,0.0,0.0,0.0,0.0,0.0,0.0,0.0,-3.2182,-3.2182,-3.2503,-3.3157,-3.3891,-3.4647,-3.5335,-3.6148,-3.6492,-3.6492,-3.6492,-3.6492,-3.6445,-3.5814,-3.5553,-3.5476,-3.5004,-3.4872,-3.5025,-3.5169,-3.5152,-3.4965,-3.4916,-3.4899,-3.4899,-3.4899,-3.4899,-3.4899,-3.4899,-3.4899,-3.4899,-3.4899,-3.4899,-3.4899,-3.4899,-3.4899,-3.4899,-3.4899,-3.4899,-3.4899,-3.4899,-3.4899,-3.4899,-3.4899,-3.4899,-3.4667,-3.3988,-3.3822,-3.3342,-3.194,-3.2249,-3.2381,-3.1785,-3.2829,-3.3657,-3.3707,-3.4369,-3.4502,-3.3707,-3.3673,-3.311,-3.1719,-3.1576,-3.1246,-3.0543,-3.0526,-3.0526,-3.0526,-3.0526,-3.0526,-3.0526,-3.0526,-3.0543,-3.0626,-3.1984,-3.2663,-0.8363,-0.9269,-1.0181,-1.039,-1.0801,0.0,0.0,-1.432,-1.4574,-1.561,-1.6369,0.0,0.0,0.0,0.0,0.0,0.0,0.0,0.0,0.0,0.0,0.0,0.0,0.0,0.0,0.0,0.0,0.0,0.0,0.0,0.0,0.0,0.0,0.0,0.0,0.0,0.0,-3.1447,-3.2022,-3.2743,-3.3801,-3.4714,-3.54,-3.6148,-3.6261,-3.5861,-3.5861,-3.563,-3.5214,-3.4968,-3.5022,-3.5221,-3.4785,-3.4564,-3.4574,-3.454,-3.4677,-3.4899,-3.4899,-3.4899,-3.4899,-3.4899,-3.4899,-3.4899,-3.4899,-3.4899,-3.4899,-3.4899,-3.4899,-3.4899,-3.4899,-3.4899,-3.4899,-3.4899,-3.4899,-3.4899,-3.4899,-3.4899,-3.4899,-3.4899,-3.4899,-3.4667,-3.3922,-3.3789,-3.3458,-3.2448,-3.2133,-3.2266,-3.2895,-3.3044,-3.3458,-3.4386,-3.4319,-3.3905,-3.316,-3.311,-3.2481,-3.1023,-3.1328,-3.1246,-3.0543,-3.0526,-3.0526,-3.0526,-3.0526,-3.0526,-3.0526,-3.0526,-3.0758,-3.1222,-3.1769,-3.2266,-0.7998,-0.8893,-0.9905,-0.9901,0.0,0.0,-1.333,-1.4081,-1.4739,-1.6071,-1.698,0.0,0.0,0.0,0.0,0.0,0.0,0.0,0.0,0.0,0.0,0.0,0.0,0.0,0.0,0.0,0.0,0.0,0.0,0.0,0.0,0.0,0.0,0.0,0.0,0.0,0.0,-3.1068,-3.1767,-3.2742,-3.3621,-3.4371,-3.5118,-3.5646,-3.5599,-3.5168,-3.5168,-3.4906,-3.4519,-3.4403,-3.4554,-3.4838,-3.4521,-3.4455,-3.4497,-3.4399,-3.4594,-3.4899,-3.4899,-3.4899,-3.4899,-3.4899,-3.4899,-3.4899,-3.4899,-3.4899,-3.4899,-3.4899,-3.4899,-3.4899,-3.4899,-3.4899,-3.4899,-3.4899,-3.4899,-3.4899,-3.4899,-3.4899,-3.4899,-3.4899,-3.4899,-3.4584,-3.3607,-3.3442,-3.311,-3.215,-3.1586,-3.1636,-3.263,-3.2713,-3.316,-3.4419,-3.4087,-3.3408,-3.2431,-3.2348,-3.1818,-3.0593,-3.0948,-3.104,-3.0543,-3.0526,-3.0526,-3.0526,-3.0526,-3.0526,-3.0526,-3.0526,-3.0733,-3.1288,-3.1477,-3.1885,-0.848,-0.8851,-0.9269,0.0,0.0,0.0,-1.2153,-1.2883,-1.4055,-1.6979,0.0,0.0,0.0,0.0,0.0,0.0,0.0,0.0,0.0,0.0,0.0,0.0,0.0,0.0,0.0,0.0,0.0,0.0,0.0,0.0,0.0,0.0,0.0,0.0,0.0,0.0,0.0,-3.1307,-3.2012,-3.3348,-3.3363,-3.3804,-3.4475,-3.4475,-3.4475,-3.446,-3.446,-3.446,-3.4457,-3.4201,-3.4197,-3.43,-3.43,-3.4546,-3.4899,-3.4899,-3.4899,-3.4899,-3.4899,-3.4899,-3.4899,-3.4899,-3.4899,-3.4899,-3.4899,-3.4899,-3.4899,-3.4899,-3.4899,-3.4899,-3.4899,-3.4899,-3.4899,-3.4899,-3.4899,-3.4899,-3.4899,-3.4899,-3.4899,-3.4899,-3.4899,-3.4419,-3.2945,-3.2696,-3.2199,-3.0758,-3.0543,-3.0526,-3.0543,-3.1802,-3.2978,-3.3707,-3.3789,-3.321,-3.1752,-3.1576,-3.1262,-3.0576,-3.0526,-3.0526,-3.0526,-3.0526,-3.0526,-3.0526,-3.0526,-3.0526,-3.0526,-3.0526,-3.0526,-3.0543,-3.1229,-3.1576,-0.7516,-0.8399,0.0,-0.9347,0.0,0.0,0.0,-1.2813,0.0,0.0,0.0,0.0,0.0,0.0,0.0,0.0,0.0,0.0,0.0,0.0,0.0,0.0,0.0,0.0,0.0,0.0,0.0,0.0,0.0,0.0,0.0,0.0,0.0,0.0,0.0,0.0,0.0,0.0,-3.1197,-3.2063,-3.247,-3.3334,-3.4475,-3.4475,-3.4198,-3.3721,-3.3621,-3.3517,-3.3482,-3.4114,-3.4329,-3.4349,-3.4707,-3.4899,-3.4899,-3.4899,-3.4899,-3.4899,-3.4899,-3.4899,-3.4899,-3.4899,-3.4899,-3.4899,-3.4899,-3.4899,-3.4899,-3.4899,-3.4899,-3.4899,-3.4899,-3.4899,-3.4899,-3.4899,-3.4899,-3.4899,-3.4899,-3.4899,-3.4899,-3.4899,-3.4899,-3.4601,-3.3624,-3.3458,-3.3143,-3.2183,-3.162,-3.147,-3.1984,-3.2878,-3.3557,-3.3773,-3.3789,-3.321,-3.1752,-3.1576,-3.1262,-3.0576,-3.0526,-3.0526,-3.0526,-3.0526,-3.0526,-3.0526,-3.0526,-3.0526,-3.0526,-3.0526,-3.0526,-3.0526,-3.0742,-3.0858,-0.8195,-0.9107,0.0,-1.0087,-1.0863,-1.1798,-1.2168,0.0,0.0,0.0,0.0,0.0,0.0,0.0,0.0,0.0,0.0,0.0,0.0,0.0,0.0,0.0,0.0,0.0,0.0,0.0,0.0,0.0,0.0,0.0,0.0,0.0,0.0,0.0,0.0,0.0,0.0,0.0,0.0,-3.1781,-3.2231,-3.2844,-3.3602,-3.3602,-3.3356,-3.2957,-3.2998,-3.3099,-3.323,-3.4084,-3.4497,-3.4643,-3.4994,-3.5041,-3.4994,-3.4994,-3.4947,-3.4899,-3.4899,-3.4899,-3.4899,-3.4899,-3.4899,-3.4899,-3.4899,-3.4899,-3.4899,-3.4899,-3.4899,-3.4899,-3.4899,-3.4899,-3.4899,-3.4899,-3.4899,-3.4899,-3.4899,-3.4899,-3.4899,-3.4899,-3.4899,-3.4667,-3.3922,-3.3789,-3.3541,-3.2796,-3.2083,-3.1885,-3.2597,-3.3077,-3.3458,-3.3756,-3.3524,-3.2878,-3.1676,-3.1312,-3.0948,-3.0543,-3.0526,-3.0526,-3.0526,-3.0526,-3.0526,-3.0526,-3.0526,-3.0526,-3.0526,-3.0526,-3.0526,-3.0526,-3.0526,-3.0526,-0.9549,0.0,0.0,-1.1272,-1.1251,0.0,0.0,0.0,0.0,0.0,0.0,0.0,0.0,0.0,0.0,0.0,0.0,0.0,0.0,0.0,0.0,0.0,0.0,0.0,0.0,0.0,0.0,0.0,0.0,0.0,0.0,0.0,0.0,0.0,0.0,0.0,0.0,0.0,0.0,0.0,-3.2342,-3.2342,-3.2247,-3.2247,-3.2247,-3.2302,-3.2695,-3.3108,-3.3543,-3.4134,-3.4691,-3.5088,-3.5152,-3.5088,-3.5088,-3.5105,-3.4994,-3.4899,-3.4899,-3.4899,-3.4899,-3.4899,-3.4899,-3.4899,-3.4899,-3.4899,-3.4899,-3.4899,-3.4899,-3.4899,-3.4899,-3.4899,-3.4899,-3.4899,-3.4899,-3.4899,-3.4899,-3.4899,-3.4899,-3.4899,-3.4899,-3.4684,-3.4005,-3.3889,-3.364,-3.2895,-3.2232,-3.2034,-3.2613,-3.2746,-3.3011,-3.3624,-3.3077,-3.2398,-3.1686,-3.0898,-3.0526,-3.0526,-3.0526,-3.0526,-3.0526,-3.0526,-3.0526,-3.0526,-3.0526,-3.0526,-3.0526,-3.0526,-3.0526,-3.0526,-3.0526,-3.0526,0.0,-0.8726,0.0,0.0,0.0,0.0,0.0,0.0,0.0,0.0,0.0,0.0,0.0,0.0,0.0,0.0,0.0,0.0,0.0,0.0,0.0,0.0,0.0,0.0,0.0,0.0,0.0,0.0,0.0,0.0,0.0,0.0,0.0,0.0,0.0,0.0,-3.0524,-3.1175,-3.1766,0.0,-3.2398,-3.2398,-3.2342,-3.2342,-3.2492,-3.2695,-3.3198,-3.3649,-3.4086,-3.493,-3.5198,-3.5105,-3.5337,-3.5198,-3.4947,-3.5041,-3.4994,-3.4899,-3.4899,-3.4899,-3.4899,-3.4899,-3.4899,-3.4899,-3.4899,-3.4899,-3.4899,-3.4899,-3.4899,-3.4899,-3.4899,-3.4899,-3.4899,-3.4899,-3.4899,-3.4899,-3.4899,-3.4899,-3.4899,-3.4899,-3.4899,-3.4849,-3.4684,-3.4651,-3.4402,-3.3657,-3.3425,-3.3176,-3.2746,-3.3193,-3.3392,-3.2961,-3.2779,-3.2398,-3.1686,-3.0898,-3.0526,-3.0526,-3.0526,-3.0526,-3.0526,-3.0526,-3.0526,-3.0526,-3.0526,-3.0526,-3.0526,-3.0526,-3.0526,-3.0526,-3.0526,-3.0526,0.0,0.0,0.0,0.0,0.0,0.0,0.0,0.0,0.0,0.0,0.0,0.0,0.0,0.0,0.0,0.0,0.0,0.0,0.0,0.0,0.0,0.0,0.0,0.0,0.0,0.0,0.0,0.0,0.0,0.0,0.0,0.0,0.0,0.0,0.0,0.0,-3.0999,-3.158,-3.2064,-3.2302,-3.2342,-3.2547,-3.2788,-3.2695,-3.2749,-3.2841,-3.3649,-3.4119,-3.4333,-3.5071,-3.5291,-3.5198,-3.5354,-3.5245,-3.4994,-3.5088,-3.4994,-3.4899,-3.4899,-3.4899,-3.4899,-3.4899,-3.4899,-3.4899,-3.4899,-3.4899,-3.4899,-3.4899,-3.4899,-3.4899,-3.4899,-3.4899,-3.4899,-3.4899,-3.4899,-3.4899,-3.4899,-3.4899,-3.4899,-3.4899,-3.4899,-3.4899,-3.4899,-3.4899,-3.4651,-3.3905,-3.3491,-3.3243,-3.3226,-3.2945,-3.2878,-3.3176,-3.258,-3.2034,-3.1609,-3.0898,-3.0526,-3.0526,-3.0526,-3.0526,-3.0526,-3.0526,-3.0526,-3.0526,-3.0526,-3.0526,-3.0526,-3.0526,-3.0526,-3.0526,-3.0526,-3.0526,0.0,0.0,0.0,0.0,0.0,0.0,0.0,0.0,0.0,0.0,0.0,0.0,0.0,0.0,0.0,0.0,0.0,0.0,0.0,0.0,0.0,0.0,0.0,0.0,0.0,0.0,0.0,0.0,0.0,0.0,0.0,0.0,0.0,0.0,0.0,-3.054,-3.1422,-3.2064,-3.2287,-3.215,-3.2398,-3.2749,-3.3182,-3.3303,-3.3251,-3.3161,-3.407,-3.448,-3.4642,-3.5135,-3.5291,-3.5291,-3.5291,-3.5198,-3.5041,-3.5088,-3.4994,-3.4899,-3.4899,-3.4899,-3.4899,-3.4899,-3.4899,-3.4899,-3.4899,-3.4899,-3.4899,-3.4899,-3.4899,-3.4899,-3.4899,-3.4899,-3.4899,-3.4899,-3.4899,-3.4899,-3.4899,-3.4899,-3.4899,-3.4899,-3.4899,-3.4899,-3.4899,-3.4899,-3.4684,-3.4071,-3.3458,-3.3243,-3.3723,-3.2862,-3.2597,-3.3673,-3.2597,-3.1868,-3.1984,-3.109,-3.0576,-3.0667,-3.0593,-3.0526,-3.0526,-3.0526,-3.0526,-3.0526,-3.0526,-3.0526,-3.0526,-3.0526,-3.0526,-3.0526,-3.0526,-3.0526,0.0,0.0,0.0,0.0,0.0,0.0,0.0,0.0,0.0,0.0,0.0,0.0,0.0,0.0,0.0,0.0,0.0,0.0,0.0,0.0,0.0,0.0,0.0,0.0,0.0,0.0,0.0,0.0,0.0,0.0,0.0,0.0,-2.7973,-2.8853,-2.9518,0.0,-3.1087,-3.1838,-3.2135,-3.2038,-3.2641,-3.3039,-3.3251,-3.4153,-3.4496,-3.4431,-3.4512,-3.488,-3.5337,-3.5446,-3.5383,-3.5291,-3.5291,-3.5152,-3.4947,-3.5071,-3.5024,-3.4899,-3.4899,-3.4899,-3.4899,-3.4899,-3.4899,-3.4899,-3.4899,-3.4899,-3.4899,-3.4899,-3.4899,-3.4899,-3.4899,-3.4899,-3.4899,-3.4899,-3.4899,-3.4899,-3.4899,-3.4899,-3.4899,-3.4899,-3.4899,-3.4899,-3.4899,-3.4899,-3.4866,-3.4767,-3.4667,-3.4402,-3.3856,-3.4187,-3.4286,-3.3839,-3.3044,-3.2796,-3.3442,-3.1669,-3.0791,-3.1394,-3.0874,-3.0526,-3.0526,-3.0526,-3.0526,-3.0526,-3.0526,-3.0526,-3.0526,-3.0526,-3.0526,-3.0526,-3.0526,-3.0526,-0.6642,0.0,0.0,0.0,0.0,0.0,0.0,0.0,0.0,0.0,0.0,0.0,0.0,0.0,0.0,0.0,0.0,0.0,0.0,0.0,0.0,0.0,0.0,0.0,0.0,0.0,0.0,0.0,0.0,0.0,0.0,-2.6739,-2.7611,-2.8828,-2.9459,0.0,-3.1567,-3.191,-3.2038,-3.1996,-3.2586,-3.3093,-3.3443,-3.4235,-3.4675,-3.4691,-3.5008,-3.5211,-3.54,-3.54,-3.5291,-3.5198,-3.5198,-3.5041,-3.4899,-3.4977,-3.493,-3.4899,-3.4899,-3.4899,-3.4899,-3.4899,-3.4899,-3.4899,-3.4899,-3.4899,-3.4899,-3.4899,-3.4899,-3.4899,-3.4899,-3.4899,-3.4899,-3.4899,-3.4899,-3.4899,-3.4899,-3.4899,-3.4899,-3.4899,-3.4899,-3.4899,-3.4899,-3.4899,-3.4899,-3.4899,-3.4551,-3.4319,-3.4386,-3.3972,-3.369,-3.3773,-3.3127,-3.2812,-3.3143,-3.1918,-3.1229,-3.156,-3.0924,-3.0526,-3.0526,-3.0526,-3.0526,-3.0526,-3.0526,-3.0526,-3.0526,-3.0526,-3.0526,-3.0526,-3.0526,-3.0526,0.0,0.0,0.0,0.0,0.0,0.0,0.0,0.0,0.0,0.0,0.0,0.0,0.0,0.0,0.0,0.0,0.0,0.0,0.0,0.0,0.0,0.0,0.0,0.0,0.0,0.0,0.0,0.0,0.0,0.0,-2.5615,-2.6327,-2.7296,-2.8545,-2.9177,-3.0089,-3.1369,-3.1535,-3.1758,-3.1981,-3.2322,-3.2772,-3.3326,-3.3746,-3.4182,-3.457,-3.5161,-3.5283,-3.5006,-3.4961,-3.4914,-3.4822,-3.4758,-3.4828,-3.4899,-3.4899,-3.4899,-3.4899,-3.4899,-3.4899,-3.4899,-3.4899,-3.4899,-3.4899,-3.4899,-3.4899,-3.4899,-3.4899,-3.4899,-3.4899,-3.4899,-3.4899,-3.4899,-3.4899,-3.4899,-3.4899,-3.4899,-3.475,-3.4618,-3.4618,-3.4468,-3.4386,-3.4584,-3.4618,-3.4667,-3.4866,-3.4419,-3.427,-3.4816,-3.3938,-3.3458,-3.4005,-3.3408,-3.3044,-3.3226,-3.2249,-3.1702,-3.1885,-3.1023,-3.0526,-3.0526,-3.0526,-3.0526,-3.0526,-3.0526,-3.0526,-3.0526,-3.0526,-3.0526,-3.0526,-3.0526,-3.0526,0.0,0.0,0.0,0.0,0.0,0.0,0.0,0.0,0.0,0.0,0.0,0.0,0.0,0.0,0.0,0.0,0.0,0.0,0.0,0.0,0.0,0.0,0.0,0.0,0.0,0.0,0.0,0.0,0.0,0.0,-2.5014,-2.6089,-2.7051,-2.772,-2.8355,-2.9019,-2.9738,-3.0323,-3.105,-3.1981,-3.179,-3.1977,-3.2556,-3.2508,-3.3069,-3.4072,-3.4944,-3.4889,-3.4236,-3.413,-3.4039,-3.4039,-3.3902,-3.427,-3.4899,-3.4899,-3.4899,-3.4899,-3.4899,-3.4899,-3.4899,-3.4899,-3.4899,-3.4899,-3.4899,-3.4899,-3.4899,-3.4899,-3.4899,-3.4899,-3.4899,-3.4899,-3.4899,-3.4899,-3.4899,-3.4899,-3.4899,-3.4336,-3.3856,-3.3856,-3.3276,-3.3027,-3.3723,-3.3856,-3.4087,-3.4783,-3.4866,-3.4849,-3.4899,-3.4833,-3.48,-3.4833,-3.417,-3.4021,-3.4717,-3.2845,-3.1918,-3.258,-3.1305,-3.0526,-3.0526,-3.0526,-3.0526,-3.0526,-3.0526,-3.0526,-3.0526,-3.0526,-3.0526,-3.0526,-3.0526,-3.0526,0.0,0.0,0.0,0.0,0.0,0.0,0.0,0.0,0.0,0.0,0.0,0.0,0.0,0.0,0.0,0.0,0.0,0.0,0.0,0.0,0.0,0.0,0.0,0.0,0.0,0.0,0.0,0.0,0.0,0.0,-2.4985,-2.5684,-2.6641,-2.7666,-2.8293,-2.8917,-2.9579,-2.9804,-3.0083,-3.0433,-3.0738,-3.1103,-3.1625,-3.1997,-3.2512,-3.3184,-3.3511,-3.401,-3.4609,-3.408,-3.4163,-3.4549,-3.4502,-3.4667,-3.4899,-3.4899,-3.4899,-3.4899,-3.4899,-3.4899,-3.4899,-3.4899,-3.4899,-3.4899,-3.4899,-3.4899,-3.4899,-3.4899,-3.4899,-3.4899,-3.4899,-3.4899,-3.4899,-3.4899,-3.4402,-3.3988,-3.4154,-3.3988,-3.3657,-3.3176,-3.3243,-3.3475,-3.374,-3.4187,-3.4601,-3.4849,-3.4899,-3.4899,-3.4899,-3.4899,-3.4899,-3.4899,-3.4237,-3.3905,-3.417,-3.2613,-3.1735,-3.1984,-3.1073,-3.0526,-3.0526,-3.0526,-3.0526,-3.0526,-3.0526,-3.0526,-3.0526,-3.0526,-3.0526,-3.0526,-3.0526,-3.0526,-0.4877,0.0,0.0,0.0,0.0,0.0,0.0,0.0,0.0,0.0,0.0,0.0,0.0,0.0,0.0,0.0,0.0,0.0,0.0,0.0,0.0,0.0,0.0,0.0,0.0,0.0,0.0,0.0,0.0,0.0,-2.4948,-2.5685,-2.6552,-2.7627,-2.8037,-2.8606,-2.925,-2.925,-2.937,-2.9579,-2.9735,-3.0134,-3.0749,-3.0942,-3.1502,-3.2315,-3.2067,-3.2663,-3.3756,-3.3259,-3.3491,-3.4154,-3.4154,-3.4452,-3.4899,-3.4899,-3.4899,-3.4899,-3.4899,-3.4899,-3.4899,-3.4899,-3.4899,-3.4899,-3.4899,-3.4899,-3.4899,-3.4899,-3.4899,-3.4899,-3.4899,-3.4717,-3.4468,-3.422,-3.364,-3.316,-3.3077,-3.3061,-3.2911,-3.2431,-3.2531,-3.2779,-3.3027,-3.3673,-3.4237,-3.4485,-3.4733,-3.4899,-3.4899,-3.4899,-3.48,-3.4551,-3.4087,-3.369,-3.3442,-3.2315,-3.1576,-3.1576,-3.0924,-3.0526,-3.0526,-3.0526,-3.0526,-3.0526,-3.0526,-3.0526,-3.0526,-3.0526,-3.0526,-3.0526,-3.0526,-3.0526,0.0,0.0,0.0,0.0,0.0,0.0,0.0,0.0,0.0,0.0,0.0,0.0,0.0,0.0,0.0,0.0,0.0,0.0,0.0,0.0,0.0,0.0,0.0,0.0,0.0,0.0,0.0,0.0,0.0,-2.4781,-2.4978,-2.6082,-2.6982,-2.7575,-2.7625,-2.7889,-2.8562,-2.8562,-2.8891,-2.9505,-2.8876,-2.9068,-2.9959,-2.9312,-3.0003,-3.151,-3.0782,-3.0882,-3.1543,-3.1576,-3.2034,-3.268,-3.268,-3.3557,-3.4833,-3.4833,-3.4833,-3.4849,-3.4833,-3.4833,-3.4833,-3.4849,-3.4849,-3.4833,-3.4883,-3.4883,-3.4866,-3.4883,-3.4899,-3.4883,-3.4866,-3.4319,-3.3574,-3.2862,-3.2663,-3.2464,-3.1769,-3.156,-3.1543,-3.1543,-3.1023,-3.0733,-3.1461,-3.2216,-3.2928,-3.3657,-3.4369,-3.4833,-3.4833,-3.4833,-3.4551,-3.3839,-3.374,-3.3442,-3.2713,-3.2,-3.1543,-3.1543,-3.0924,-3.0526,-3.0526,-3.0526,-3.0526,-3.0526,-3.0526,-3.0526,-3.0526,-3.0526,-3.0526,-3.0526,-3.0526,-3.0526,-0.4622,0.0,0.0,0.0,0.0,0.0,0.0,0.0,0.0,0.0,0.0,0.0,0.0,0.0,0.0,0.0,0.0,0.0,0.0,0.0,0.0,0.0,0.0,0.0,0.0,0.0,0.0,0.0,0.0,-2.4161,-2.4816,-2.646,-2.7408,-2.7575,-2.7625,-2.7715,-2.7859,-2.7859,-2.7949,-2.8128,-2.7949,-2.8167,-2.8743,-2.8621,-2.9153,-3.0277,-3.0065,-3.0314,-3.0874,-3.1361,-3.2034,-3.268,-3.268,-3.2945,-3.3292,-3.3292,-3.3549,-3.376,-3.3437,-3.3073,-3.2935,-3.3822,-3.3732,-3.3528,-3.4598,-3.4518,-3.4203,-3.475,-3.4899,-3.4767,-3.4237,-3.3557,-3.2945,-3.2729,-3.2299,-3.1868,-3.1626,-3.1205,-3.0824,-3.0824,-3.109,-3.1345,-3.1543,-3.2216,-3.2746,-3.2961,-3.316,-3.3292,-3.3292,-3.3292,-3.3226,-3.3011,-3.2531,-3.215,-3.1934,-3.1239,-3.0824,-3.0824,-3.0626,-3.0526,-3.0526,-3.0526,-3.0526,-3.0526,-3.0526,-3.0526,-3.0526,-3.0526,-3.0526,-3.0526,-3.0526,-3.0526,-0.5274,0.0,0.0,0.0,0.0,0.0,0.0,0.0,0.0,0.0,0.0,0.0,0.0,0.0,0.0,0.0,0.0,0.0,0.0,0.0,0.0,0.0,0.0,0.0,0.0,0.0,0.0,0.0,-2.2703,-2.3622,-2.4685,-2.627,-2.7106,-2.7156,-2.7475,-2.7625,-2.7625,-2.7625,-2.7625,-2.7625,-2.7625,-2.7845,-2.8304,-2.8543,-2.9058,-2.9793,-3.0027,-3.0258,-3.0543,-3.0948,-3.1586,-3.2249,-3.2249,-3.2431,-3.268,-3.268,-3.2857,-3.3079,-3.279,-3.2524,-3.2434,-3.311,-3.3051,-3.2851,-3.3736,-3.3673,-3.3425,-3.3856,-3.3972,-3.3806,-3.3077,-3.2564,-3.2166,-3.1851,-3.147,-3.1113,-3.1113,-3.0824,-3.0526,-3.0526,-3.0874,-3.1113,-3.1113,-3.1752,-3.2249,-3.2249,-3.2497,-3.268,-3.268,-3.268,-3.2564,-3.2266,-3.1868,-3.1461,-3.1189,-3.0775,-3.0526,-3.0526,-3.0526,-3.0526,-3.0526,-3.0526,-3.0526,-3.0526,-3.0526,-3.0526,-3.0526,-3.0526,-3.0526,-3.0526,-3.0526,-3.0526,-0.5979,-0.6058,0.0,0.0,0.0,0.0,-0.7875,-0.7822,0.0,0.0,0.0,0.0,0.0,0.0,0.0,0.0,0.0,0.0,0.0,0.0,0.0,0.0,0.0,0.0,0.0,0.0,0.0,-2.1513,-2.2191,-2.3193,-2.4577,-2.5692,-2.637,-2.6482,-2.7051,-2.738,-2.7505,-2.7505,-2.755,-2.7625,-2.7625,-2.7795,-2.8255,-2.8748,-2.9212,-2.9661,-3.0054,-3.0284,-3.0342,-3.0384,-3.0865,-3.1461,-3.1461,-3.1885,-3.2448,-3.2448,-3.2448,-3.2448,-3.2448,-3.2448,-3.2464,-3.2558,-3.2542,-3.2481,-3.2674,-3.2613,-3.258,-3.2663,-3.263,-3.2431,-3.1785,-3.1527,-3.1295,-3.0675,-3.0526,-3.0526,-3.0526,-3.0526,-3.0526,-3.0526,-3.0526,-3.0526,-3.0526,-3.1014,-3.1461,-3.1461,-3.205,-3.2448,-3.2448,-3.2448,-3.2199,-3.157,-3.1461,-3.1196,-3.0576,-3.0526,-3.0526,-3.0526,-3.0526,-3.0526,-3.0526,-3.0526,-3.0526,-3.0526,-3.0526,-3.0526,-3.0526,-3.0526,-3.0526,-3.0526,-3.0526,-3.0526,-0.6374,-0.6489,-0.6612,-0.6578,0.0,0.0,0.0,-0.7396,0.0,0.0,0.0,0.0,0.0,0.0,0.0,0.0,0.0,0.0,0.0,0.0,0.0,0.0,0.0,0.0,0.0,0.0,-2.0693,-2.0215,-2.1676,-2.3119,-2.4315,-2.5153,-2.5652,-2.5794,-2.5929,-2.6243,-2.6782,-2.6782,-2.7051,-2.7625,-2.7625,-2.766,-2.776,-2.7845,-2.8174,-2.8575,-2.8717,-2.895,-2.9393,-2.9793,-3.0238,-3.0683,-3.0683,-3.0808,-3.094,-3.094,-3.094,-3.094,-3.094,-3.094,-3.1007,-3.1608,-3.1416,-3.1139,-3.2347,-3.2303,-3.1951,-3.2531,-3.2266,-3.1802,-3.1626,-3.1146,-3.0692,-3.0543,-3.0526,-3.0526,-3.0526,-3.0526,-3.0526,-3.0526,-3.0526,-3.0526,-3.0526,-3.06,-3.0683,-3.0683,-3.0858,-3.094,-3.094,-3.094,-3.0891,-3.0742,-3.0683,-3.0675,-3.0526,-3.0526,-3.0526,-3.0526,-3.0526,-3.0526,-3.0526,-3.0526,-3.0526,-3.0526,-3.0526,-3.0526,-3.0526,-3.0526,-3.0526,-3.0526,-3.0526,-3.0526,-0.7079,-0.7238,-0.7472,-0.7367,0.0,0.0,0.0,0.0,0.0,0.0,0.0,0.0,0.0,0.0,0.0,0.0,0.0,0.0,0.0,0.0,0.0,0.0,0.0,0.0,0.0,0.0,-1.9939,-2.0156,-2.1569,-2.2681,-2.3291,-2.4288,-2.4889,-2.5058,-2.5403,-2.5764,-2.6093,-2.6093,-2.6273,-2.6602,-2.6916,-2.7081,-2.7145,-2.7694,-2.8076,-2.8288,-2.8591,-2.8826,-2.9136,-2.9617,-2.9941,-3.0156,-3.0426,-3.0526,-3.0526,-3.0526,-3.0526,-3.0526,-3.0526,-3.0526,-3.0559,-3.0908,-3.0825,-3.0642,-3.1406,-3.1347,-3.1139,-3.1504,-3.1355,-3.1031,-3.1031,-3.0808,-3.0526,-3.0526,-3.0526,-3.0526,-3.0526,-3.0526,-3.0526,-3.0526,-3.0526,-3.0526,-3.0526,-3.0526,-3.0526,-3.0526,-3.0526,-3.0526,-3.0526,-3.0526,-3.0526,-3.0526,-3.0526,-3.0526,-3.0526,-3.0526,-3.0526,-3.0526,-3.0526,-3.0526,-3.0526,-3.0526,-3.0526,-3.0526,-3.0526,-3.0526,-3.0526,-3.0526,-3.0526,-3.0526,-3.0526,-3.0526,0.0,0.0,0.0,0.0,0.0,-0.8796,0.0,0.0,0.0,-0.924,0.0,0.0,0.0,0.0,0.0,0.0,0.0,0.0,0.0,0.0,0.0,0.0,0.0,0.0,0.0,0.0,-1.9037,-2.0329,-2.1137,-2.178,-2.2281,-2.34,-2.4146,-2.4282,-2.488,-2.5239,-2.542,-2.542,-2.548,-2.5615,-2.6153,-2.6408,-2.6422,-2.7476,-2.7959,-2.8023,-2.8544,-2.8795,-2.8842,-2.9438,-2.9661,-2.9705,-3.03,-3.0526,-3.0526,-3.0526,-3.0526,-3.0526,-3.0526,-3.0526,-3.0526,-3.0526,-3.0526,-3.0526,-3.0526,-3.0526,-3.0526,-3.0526,-3.0526,-3.0526,-3.0526,-3.0526,-3.0526,-3.0526,-3.0526,-3.0526,-3.0526,-3.0526,-3.0526,-3.0526,-3.0526,-3.0526,-3.0526,-3.0526,-3.0526,-3.0526,-3.0526,-3.0526,-3.0526,-3.0526,-3.0526,-3.0526,-3.0526,-3.0526,-3.0526,-3.0526,-3.0526,-3.0526,-3.0526,-3.0526,-3.0526,-3.0526,-3.0526,-3.0526,-3.0526,-3.0526,-3.0526,-3.0526,-3.0526,-3.0526,-3.0526,-3.0526,0.0,0.0,0.0,0.0,-0.9393,0.0,0.0,0.0,-0.927,-0.9088,0.0,0.0,0.0,0.0,0.0,0.0,0.0,0.0,0.0,0.0,0.0,0.0,0.0,0.0,0.0,0.0,0.0,-1.9593,-1.9451,-2.0147,-2.2134,-2.2849,-2.3363,-2.3628,-2.3688,-2.406,-2.4686,-2.4686,-2.5031,-2.5615,-2.5689,-2.5719,-2.5749,-2.6441,-2.6789,-2.6819,-2.7504,-2.776,-2.7845,-2.8795,-2.9166,-2.9257,-3.0156,-3.0526,-3.0526,-3.0526,-3.0526,-3.0526,-3.0526,-3.0526,-3.0526,-3.0526,-3.0526,-3.0526,-3.0526,-3.0526,-3.0526,-3.0526,-3.0526,-3.0526,-3.0526,-3.0526,-3.0526,-3.0526,-3.0526,-3.0526,-3.0526,-3.0526,-3.0526,-3.0526,-3.0526,-3.0526,-3.0526,-3.0526,-3.0526,-3.0526,-3.0526,-3.0526,-3.0526,-3.0526,-3.0526,-3.0526,-3.0526,-3.0526,-3.0526,-3.0526,-3.0526,-3.0526,-3.0526,-3.0526,-3.0526,-3.0526,-3.0526,-3.0526,-3.0526,-3.0526,-3.0526,-3.0526,-3.0526,-3.0526,-3.0526,-3.0526,0.0,0.0,0.0,0.0,0.0,0.0,0.0,0.0,-0.9182,0.0,0.0,0.0,0.0,0.0,0.0,0.0,0.0,0.0,0.0,0.0,0.0,0.0,0.0,0.0,0.0,0.0,0.0,0.0,0.0,-1.9762,-2.1945,-2.2381,-2.279,-2.3246,-2.3422,-2.3643,-2.397,-2.3999,-2.4163,-2.4448,-2.4852,-2.5046,-2.5061,-2.5719,-2.6019,-2.6063,-2.6722,-2.7006,-2.7135,-2.8529,-2.9074,-2.9134,-2.9639,-3.0145,-3.0526,-3.0526,-3.0526,-3.0526,-3.0526,-3.0526,-3.0526,-3.0526,-3.0526,-3.0526,-3.0526,-3.0526,-3.0526,-3.0526,-3.0526,-3.0526,-3.0526,-3.0526,-3.0526,-3.0526,-3.0526,-3.0526,-3.0526,-3.0526,-3.0526,-3.0526,-3.0526,-3.0526,-3.0526,-3.0526,-3.0526,-3.0526,-3.0526,-3.0526,-3.0526,-3.0526,-3.0526,-3.0526,-3.0526,-3.0526,-3.0526,-3.0526,-3.0526,-3.0526,-3.0526,-3.0526,-3.0526,-3.0526,-3.0593,-3.0773,-3.0773,-3.0878,-3.1078,-3.1078,-3.1078,-3.1078,-3.0675,-3.0526,-0.8397,0.0,0.0,0.0,0.0,0.0,0.0,0.0,0.0,0.0,0.0,0.0,0.0,0.0,0.0,0.0,0.0,0.0,0.0,0.0,0.0,0.0,0.0,0.0,0.0,0.0,0.0,0.0,0.0,0.0,-2.1365,-2.1901,-2.2352,-2.2864,-2.3245,-2.3466,-2.3509,-2.3566,-2.3595,-2.361,-2.4103,-2.4343,-2.4373,-2.5031,-2.5345,-2.5375,-2.6033,-2.6318,-2.6444,-2.7937,-2.8661,-2.8878,-2.923,-2.9748,-3.0212,-3.0212,-3.0344,-3.0526,-3.0526,-3.0526,-3.0526,-3.0526,-3.0526,-3.0526,-3.0526,-3.0526,-3.0526,-3.0526,-3.0526,-3.0526,-3.0526,-3.0526,-3.0526,-3.0526,-3.0526,-3.0526,-3.0526,-3.0526,-3.0526,-3.0526,-3.0526,-3.0526,-3.0526,-3.0526,-3.0526,-3.0526,-3.0526,-3.0526,-3.0526,-3.0526,-3.0526,-3.0526,-3.0526,-3.0526,-3.0526,-3.0526,-3.0526,-3.0526,-3.0609,-3.0651,-3.0651,-3.0716,-3.0878,-3.1134,-3.1134,-3.1252,-3.1504,-3.1504,-3.1504,-3.1483,-3.0998,-3.0757,0.0,0.0,0.0,-0.8965,0.0,0.0,0.0,0.0,-0.9658,0.0,0.0,0.0,0.0,0.0,0.0,-1.0558,0.0,0.0,0.0,0.0,0.0,0.0,0.0,0.0,0.0,0.0,0.0,0.0,0.0,0.0,-1.9991,-2.1322,-2.209,-2.2205,-2.2922,-2.3363,-2.3509,-2.3566,-2.3595,-2.3595,-2.3625,-2.3625,-2.3655,-2.4343,-2.4612,-2.4657,-2.536,-2.5644,-2.5738,-2.666,-2.7506,-2.8211,-2.9075,-2.9417,-2.945,-2.945,-2.9897,-3.0526,-3.0526,-3.0526,-3.0526,-3.0526,-3.0526,-3.0526,-3.0526,-3.0526,-3.0526,-3.0526,-3.0526,-3.0526,-3.0526,-3.0526,-3.0526,-3.0526,-3.0526,-3.0526,-3.0526,-3.0526,-3.0526,-3.0526,-3.0526,-3.0526,-3.0526,-3.0526,-3.0526,-3.0526,-3.0526,-3.0526,-3.0526,-3.0526,-3.0526,-3.0526,-3.0526,-3.0526,-3.0526,-3.0526,-3.0526,-3.0526,-3.0797,-3.0975,-3.0975,-3.1291,-3.1466,-3.1466,-3.1466,-3.1483,-3.1504,-3.1504,-3.1504,-3.1504,-3.1483,-3.1466,0.0,0.0,-1.0006,-0.9219,0.0,0.0,0.0,0.0,0.0,0.0,0.0,0.0,0.0,0.0,-1.1816,-1.1273,-1.0935,0.0,0.0,0.0,0.0,0.0,0.0,0.0,0.0,0.0,0.0,0.0,0.0,0.0,0.0,-2.0509,-2.1175,-2.2061,-2.2381,-2.2775,-2.3216,-2.3422,-2.3538,-2.3538,-2.3566,-2.3595,-2.361,-2.3834,-2.3939,-2.3984,-2.4672,-2.4956,-2.5032,-2.6134,-2.6769,-2.7016,-2.7593,-2.8304,-2.9034,-2.9296,-2.9284,-2.9258,-3.0192,-3.0493,-3.0526,-3.0526,-3.0526,-3.0526,-3.0526,-3.0526,-3.0526,-3.0526,-3.0526,-3.0526,-3.0526,-3.0526,-3.0526,-3.0526,-3.0526,-3.0526,-3.0526,-3.0526,-3.0526,-3.0526,-3.0526,-3.0526,-3.0526,-3.0526,-3.0526,-3.0526,-3.0526,-3.0526,-3.0526,-3.0526,-3.0526,-3.0526,-3.0526,-3.0526,-3.0526,-3.0526,-3.0526,-3.0526,-3.0609,-3.0773,-3.0975,-3.1095,-3.1351,-3.1765,-3.1748,-3.1875,-3.209,-3.209,-3.209,-3.209,-3.209,-3.1746,-0.9256,-0.9742,0.0,0.0,-0.9745,0.0,-0.9385,0.0,0.0,0.0,0.0,0.0,0.0,0.0,0.0,-1.1641,-1.1033,0.0,0.0,0.0,0.0,0.0,0.0,0.0,0.0,0.0,-1.3591,-1.5848,0.0,0.0,0.0,0.0,-2.0567,-2.1612,-2.2016,-2.2527,-2.3157,-2.3378,-2.3509,-2.3538,-2.3566,-2.3595,-2.3595,-2.3595,-2.3595,-2.3625,-2.4073,-2.4253,-2.4342,-2.5251,-2.5808,-2.6068,-2.6513,-2.7348,-2.8436,-2.8682,-2.8784,-2.8926,-3.0106,-3.0508,-3.0526,-3.0526,-3.0526,-3.0526,-3.0526,-3.0526,-3.0526,-3.0526,-3.0526,-3.0526,-3.0526,-3.0526,-3.0526,-3.0526,-3.0526,-3.0526,-3.0526,-3.0526,-3.0526,-3.0526,-3.0526,-3.0526,-3.0526,-3.0526,-3.0526,-3.0526,-3.0526,-3.0526,-3.0526,-3.0526,-3.0526,-3.0526,-3.0526,-3.0526,-3.0526,-3.0526,-3.0568,-3.0692,-3.0797,-3.0998,-3.1312,-3.1428,-3.1654,-3.2073,-3.2073,-3.2179,-3.2406,-3.2406,-3.2354,-3.2232,-3.2354,-3.1965]},{"header":{"parameterUnit":"m.s-1","parameterCategory":1,"la1":30.6,"la2":29.2853,"lo1":-89.7004,"lo2":-87.6739,"dy":0.0162,"dx":0.0183,"nx":112,"ny":82,"refTime":"2024-07-31T12:00:00:Z","depth":0,"parameterNumber":3,"parameterNumberName":"V-component_of_WINDS"},"data":[0.0,0.0,0.0,0.0,0.0,0.0,0.0,0.0,0.0,0.0,0.0,0.0,0.0,0.0,0.0,0.0,0.0,0.0,0.0,0.0,0.0,0.0,0.0,0.0,0.0,0.0,0.0,0.0,0.0,0.0,0.0,0.0,0.0,0.0,0.0,0.0,0.0,0.0,0.0,0.0,0.0,0.0,0.0,0.0,0.0,0.0,0.0,0.0,0.0,0.0,0.0,0.0,0.0,0.0,0.0,0.0,0.0,0.0,0.0,0.0,0.0,0.0,0.0,0.0,0.0,0.0,0.0,0.0,0.0,0.0,0.0,0.0,0.0,0.0,0.0,0.0,0.0,0.0,0.0,0.0,0.0,0.0,0.0,0.0,0.0,0.0,0.0,0.0,0.0,0.0,0.0,-1.0579,-1.1916,-1.2746,-1.2746,-1.2349,-1.1717,-1.074,0.0,0.0,0.0,0.0,0.0,0.0,0.0,0.0,0.0,0.0,0.0,0.0,0.0,0.0,0.0,0.0,0.0,0.0,0.0,0.0,0.0,0.0,0.0,0.0,0.0,0.0,0.0,0.0,0.0,0.0,0.0,0.0,0.0,0.0,0.0,0.0,0.0,0.0,0.0,0.0,0.0,0.0,0.0,0.0,0.0,0.0,0.0,0.0,0.0,0.0,0.0,0.0,0.0,0.0,0.0,0.0,0.0,0.0,0.0,0.0,0.0,0.0,0.0,0.0,0.0,0.0,0.0,0.0,0.0,0.0,0.0,0.0,0.0,0.0,0.0,0.0,0.0,0.0,0.0,0.0,0.0,0.0,0.0,0.0,0.0,0.0,0.0,0.0,0.0,0.0,0.0,0.0,0.0,0.0,0.0,0.0,0.0,0.0,0.0,0.0,0.0,0.0,0.0,0.0,-1.141,-1.2827,-1.3212,-1.3346,-1.3346,-1.2796,-1.2079,-1.1176,0.0,0.0,0.0,0.0,0.0,0.0,0.0,0.0,0.0,0.0,0.0,0.0,0.0,0.0,0.0,0.0,0.0,0.0,0.0,0.0,0.0,0.0,0.0,0.0,0.0,0.0,0.0,0.0,0.0,0.0,0.0,0.0,0.0,0.0,0.0,0.0,0.0,0.0,0.0,0.0,0.0,0.0,0.0,0.0,0.0,0.0,0.0,0.0,0.0,0.0,0.0,0.0,0.0,0.0,0.0,0.0,0.0,0.0,0.0,0.0,0.0,0.0,0.0,0.0,0.0,0.0,0.0,0.0,0.0,0.0,0.0,0.0,0.0,0.0,0.0,0.0,0.0,0.0,0.0,0.0,0.0,0.0,0.0,0.0,0.0,0.0,0.0,0.0,0.0,0.0,0.0,0.0,0.0,0.0,0.0,0.0,0.0,0.0,0.0,0.0,0.0,0.0,0.0,-1.1606,-1.2555,-1.3517,-1.3917,-1.3837,-1.3243,-1.2797,-1.2082,-1.1019,-1.0199,0.0,0.0,0.0,0.0,0.0,0.0,0.0,0.0,0.0,0.0,0.0,0.0,0.0,0.0,0.0,0.0,0.0,0.0,0.0,0.0,0.0,0.0,0.0,0.0,0.0,0.0,0.0,0.0,0.0,0.0,0.0,0.0,0.0,0.0,0.0,0.0,0.0,0.0,0.0,0.0,0.0,0.0,0.0,0.0,0.0,0.0,0.0,0.0,0.0,0.0,0.0,0.0,0.0,0.0,0.0,0.0,0.0,0.0,0.0,0.0,0.0,0.0,0.0,0.0,0.0,0.0,0.0,0.0,0.0,0.0,0.0,0.0,0.0,0.0,0.0,0.0,0.0,0.0,0.0,0.0,0.0,0.0,0.0,0.0,0.0,0.0,0.0,0.0,0.0,0.0,0.0,0.0,0.0,0.0,0.0,0.0,0.0,0.0,0.0,0.0,0.0,0.0,-1.2979,-1.3399,-1.4045,-1.4391,-1.4321,-1.3454,-1.2781,-1.2018,-1.122,-1.0059,0.0,0.0,0.0,0.0,0.0,0.0,0.0,0.0,0.0,0.0,0.0,0.0,0.0,0.0,0.0,0.0,0.0,0.0,0.0,0.0,0.0,0.0,0.0,0.0,0.0,0.0,0.0,0.0,0.0,0.0,0.0,0.0,0.0,0.0,0.0,0.0,0.0,0.0,0.0,0.0,0.0,0.0,0.0,0.0,0.0,0.0,0.0,0.0,0.0,0.0,0.0,0.0,0.0,0.0,0.0,0.0,0.0,0.0,0.0,0.0,0.0,0.0,0.0,0.0,0.0,0.0,0.0,0.0,0.0,0.0,0.0,0.0,0.0,0.0,0.0,0.0,0.0,0.0,0.0,0.0,0.0,0.0,0.0,0.0,0.0,0.0,0.0,0.0,0.0,0.0,0.0,0.0,0.0,0.0,0.0,0.0,0.0,0.0,0.0,0.0,0.0,0.0,-1.3869,-1.4341,-1.5176,-1.4959,-1.4675,-1.4584,-1.2997,-1.2135,-1.2281,-1.0086,0.0,0.0,0.0,0.0,0.0,0.0,0.0,0.0,0.0,0.0,0.0,0.0,0.0,0.0,0.0,0.0,0.0,0.0,0.0,0.0,0.0,0.0,0.0,0.0,0.0,0.0,0.0,0.0,0.0,0.0,0.0,0.0,0.0,0.0,0.0,0.0,0.0,0.0,0.0,0.0,0.0,0.0,0.0,0.0,0.0,0.0,0.0,0.0,0.0,0.0,0.0,0.0,0.0,0.0,0.0,0.0,0.0,0.0,0.0,0.0,0.0,0.0,0.0,0.0,0.0,0.0,0.0,0.0,0.0,0.0,0.0,0.0,0.0,0.0,0.0,0.0,0.0,0.0,0.0,0.0,0.0,0.0,0.0,0.0,0.0,0.0,0.0,0.0,0.0,0.0,0.0,0.0,0.0,0.0,0.0,0.0,0.0,0.0,0.0,0.0,0.0,0.0,-1.4256,-1.4693,0.0,-1.5531,-1.5286,-1.4591,-1.3595,-1.2919,-1.2726,0.0,0.0,0.0,0.0,0.0,0.0,0.0,0.0,0.0,0.0,0.0,0.0,0.0,0.0,0.0,0.0,0.0,0.0,0.0,0.0,0.0,0.0,0.0,0.0,0.0,0.0,0.0,0.0,0.0,0.0,0.0,0.0,0.0,0.0,0.0,0.0,0.0,0.0,0.0,0.0,0.0,0.0,0.0,0.0,0.0,0.0,0.0,0.0,0.0,0.0,0.0,0.0,0.0,0.0,0.0,0.0,0.0,0.0,0.0,0.0,0.0,0.0,0.0,0.0,0.0,0.0,0.0,0.0,0.0,0.0,0.0,0.0,0.0,0.0,0.0,0.0,0.0,0.0,0.0,0.0,0.0,0.0,0.0,0.0,0.0,0.0,0.0,0.0,0.0,0.0,0.0,0.0,0.0,0.0,0.0,0.0,0.0,0.0,0.0,0.0,0.0,0.0,-1.4339,-1.4818,-1.5236,0.0,-1.6084,-1.5718,-1.481,-1.3992,-1.3276,-1.2725,0.0,0.0,0.0,0.0,0.0,0.0,0.0,0.0,0.0,0.0,0.0,0.0,0.0,0.0,0.0,0.0,0.0,0.0,0.0,0.0,0.0,0.0,0.0,0.0,0.0,0.0,0.0,0.0,0.0,0.0,0.0,0.0,0.0,0.0,0.0,0.0,0.0,0.0,0.0,0.0,0.0,0.0,0.0,0.0,0.0,0.0,0.0,0.0,0.0,0.0,0.0,0.0,0.0,0.0,0.0,0.0,0.0,0.0,0.0,0.0,0.0,0.0,0.0,0.0,0.0,0.0,0.0,0.0,0.0,0.0,0.0,0.0,0.0,0.0,0.0,0.0,0.0,0.0,0.0,0.0,0.0,0.0,0.0,0.0,0.0,0.0,0.0,0.0,0.0,0.0,0.0,0.0,0.0,0.0,0.0,0.0,0.0,0.0,0.0,0.0,0.0,0.0,-1.5437,-1.5728,-1.6112,-1.7103,-1.6549,-1.592,-1.5416,-1.4123,-1.3008,0.0,0.0,0.0,0.0,0.0,0.0,0.0,0.0,0.0,0.0,0.0,0.0,0.0,0.0,0.0,0.0,0.0,0.0,0.0,0.0,0.0,0.0,0.0,0.0,0.0,0.0,0.0,0.0,0.0,0.0,0.0,0.0,0.0,0.0,0.0,0.0,0.0,0.0,0.0,0.0,0.0,0.0,0.0,0.0,0.0,0.0,0.0,0.0,0.0,0.0,0.0,0.0,0.0,0.0,0.0,0.0,0.0,0.0,0.0,0.0,0.0,0.0,0.0,0.0,0.0,0.0,0.0,0.0,0.0,0.0,0.0,0.0,0.0,0.0,0.0,0.0,0.0,0.0,0.0,0.0,0.0,0.0,0.0,0.0,0.0,0.0,0.0,0.0,0.0,0.0,0.0,0.0,0.0,0.0,0.0,0.0,0.0,0.0,0.0,0.0,0.0,0.0,0.0,-1.5437,-1.6053,-1.6558,-1.7148,-1.6978,-1.6528,-1.5656,-1.4856,-1.3996,-1.3061,0.0,0.0,0.0,0.0,0.0,0.0,0.0,0.0,0.0,0.0,0.0,0.0,0.0,0.0,0.0,0.0,0.0,0.0,0.0,0.0,0.0,0.0,0.0,0.0,0.0,0.0,0.0,0.0,0.0,0.0,0.0,0.0,0.0,0.0,0.0,0.0,0.0,0.0,0.0,0.0,0.0,0.0,0.0,0.0,0.0,0.0,0.0,0.0,0.0,0.0,0.0,0.0,0.0,0.0,0.0,0.0,0.0,0.0,0.0,0.0,0.0,0.0,0.0,0.0,0.0,0.0,0.0,0.0,0.0,0.0,0.0,0.0,0.0,0.0,0.0,0.0,0.0,0.0,0.0,0.0,0.0,0.0,0.0,0.0,0.0,0.0,0.0,0.0,0.0,0.0,0.0,0.0,0.0,0.0,0.0,0.0,0.0,0.0,0.0,0.0,0.0,0.0,-1.5752,-1.6527,-1.7171,-1.7816,-1.7699,-1.7158,-1.6126,-1.5563,-1.4607,-1.3125,0.0,0.0,0.0,0.0,0.0,0.0,0.0,0.0,0.0,0.0,0.0,0.0,0.0,0.0,0.0,0.0,0.0,0.0,0.0,0.0,0.0,0.0,0.0,0.0,0.0,0.0,0.0,0.0,0.0,0.0,0.0,0.0,0.0,0.0,0.0,0.0,0.0,0.0,0.0,0.0,0.0,0.0,0.0,0.0,0.0,0.0,0.0,0.0,0.0,0.0,0.0,0.0,0.0,0.0,0.0,0.0,0.0,0.0,0.0,0.0,0.0,0.0,0.0,0.0,0.0,0.0,0.0,0.0,0.0,0.0,0.0,0.0,0.0,0.0,0.0,0.0,0.0,0.0,0.0,0.0,0.0,0.0,0.0,0.0,0.0,0.0,0.0,0.0,0.0,0.0,0.0,0.0,0.0,0.0,0.0,0.0,0.0,0.0,0.0,0.0,0.0,0.0,-1.6233,-1.7017,-1.7796,-1.8867,-1.8436,-1.7686,-1.6708,-1.6165,-1.4982,-1.2912,0.0,0.0,0.0,0.0,0.0,0.0,0.0,0.0,0.0,0.0,0.0,0.0,0.0,0.0,0.0,0.0,0.0,0.0,0.0,0.0,0.0,0.0,0.0,0.0,0.0,0.0,0.0,0.0,0.0,0.0,0.0,0.0,0.0,0.0,0.0,0.0,0.0,0.0,0.0,0.0,0.0,0.0,0.0,0.0,0.0,0.0,0.0,0.0,0.0,0.0,0.0,0.0,0.0,0.0,0.0,0.0,0.0,0.0,0.0,0.0,-1.2258,0.0,0.0,0.0,0.0,0.0,0.0,0.0,0.0,0.0,0.0,0.0,0.0,0.0,0.0,0.0,0.0,0.0,0.0,0.0,0.0,0.0,0.0,0.0,0.0,0.0,0.0,0.0,0.0,0.0,0.0,0.0,0.0,0.0,0.0,0.0,0.0,0.0,0.0,0.0,0.0,0.0,-1.6233,-1.7364,-1.8265,-1.8931,-1.8434,-1.7706,-1.6685,-1.6124,-1.5073,-1.3361,0.0,0.0,0.0,0.0,0.0,0.0,0.0,0.0,0.0,0.0,0.0,0.0,0.0,0.0,0.0,0.0,0.0,0.0,0.0,0.0,0.0,0.0,0.0,0.0,0.0,0.0,0.0,0.0,0.0,0.0,0.0,0.0,0.0,0.0,0.0,0.0,0.0,0.0,0.0,0.0,0.0,0.0,0.0,0.0,0.0,0.0,0.0,0.0,0.0,0.0,0.0,0.0,0.0,0.0,0.0,0.0,0.0,0.0,0.0,0.0,0.0,-1.2984,0.0,0.0,0.0,0.0,0.0,0.0,0.0,0.0,0.0,0.0,0.0,0.0,0.0,0.0,0.0,0.0,0.0,0.0,0.0,0.0,0.0,0.0,0.0,0.0,0.0,0.0,0.0,0.0,0.0,0.0,0.0,0.0,0.0,0.0,0.0,0.0,0.0,0.0,0.0,0.0,-1.6271,-1.7501,-1.8521,-1.9285,-1.8865,-1.8227,-1.7436,-1.6646,-1.552,-1.3975,-1.3094,0.0,0.0,0.0,0.0,0.0,0.0,0.0,0.0,0.0,0.0,0.0,0.0,0.0,0.0,0.0,0.0,0.0,0.0,0.0,0.0,0.0,0.0,0.0,0.0,0.0,0.0,0.0,0.0,0.0,0.0,0.0,0.0,0.0,0.0,0.0,0.0,0.0,0.0,0.0,0.0,0.0,0.0,0.0,0.0,0.0,0.0,0.0,0.0,0.0,0.0,0.0,0.0,0.0,0.0,-1.8224,-1.8322,-1.7562,-1.7378,-1.7523,-1.5328,-1.4318,-1.427,0.0,0.0,0.0,0.0,0.0,0.0,0.0,0.0,0.0,0.0,0.0,0.0,0.0,0.0,0.0,0.0,0.0,0.0,0.0,0.0,0.0,0.0,0.0,0.0,0.0,-1.4947,-1.4537,0.0,0.0,0.0,0.0,0.0,0.0,0.0,0.0,0.0,0.0,0.0,0.0,-1.6471,-1.7652,-1.8719,-1.9698,-1.9258,-1.8694,-1.8242,-1.7196,-1.6032,-1.474,-1.4067,-1.3128,0.0,0.0,0.0,0.0,0.0,0.0,0.0,0.0,0.0,0.0,0.0,0.0,0.0,0.0,0.0,0.0,0.0,0.0,0.0,0.0,0.0,0.0,0.0,0.0,0.0,0.0,0.0,0.0,0.0,0.0,0.0,0.0,-1.0067,-1.1833,0.0,0.0,0.0,0.0,0.0,0.0,0.0,0.0,0.0,0.0,0.0,0.0,0.0,0.0,-1.9415,-1.9775,-2.0202,-2.0669,-1.9618,-1.9631,-2.0531,-1.9298,-1.8689,-1.8696,-1.8422,0.0,-1.6706,-1.631,0.0,0.0,0.0,0.0,0.0,0.0,0.0,0.0,0.0,0.0,0.0,0.0,0.0,0.0,0.0,0.0,0.0,0.0,0.0,0.0,0.0,0.0,-1.5896,-1.5143,-1.5268,-1.5521,0.0,-1.4595,-1.4002,-1.4411,0.0,0.0,0.0,0.0,0.0,0.0,0.0,0.0,-1.7112,-1.8242,-1.9145,-1.9748,-1.8907,-1.8292,-1.8216,-1.7135,-1.6256,-1.5648,-1.5145,-1.4588,-1.3936,-1.3072,0.0,0.0,0.0,0.0,0.0,0.0,0.0,0.0,0.0,0.0,0.0,0.0,0.0,0.0,0.0,0.0,0.0,0.0,0.0,0.0,0.0,0.0,0.0,0.0,0.0,0.0,0.0,0.0,0.0,-1.0474,-1.2214,-1.365,-1.4007,-1.4251,0.0,0.0,0.0,0.0,0.0,0.0,0.0,0.0,0.0,-1.8993,-1.9594,-2.0207,-2.0869,-2.145,-2.1894,-2.2275,-2.1744,-2.1614,-2.1954,-2.0986,-2.0727,-2.105,-2.0716,-2.0223,-1.9506,-1.7913,-1.6574,-1.552,0.0,0.0,0.0,0.0,0.0,-1.5532,-1.5711,0.0,0.0,0.0,0.0,0.0,0.0,0.0,0.0,0.0,0.0,0.0,0.0,0.0,0.0,-1.6618,-1.6684,-1.7059,-1.779,-1.706,-1.6162,0.0,-1.5952,-1.563,-1.4375,0.0,0.0,0.0,0.0,0.0,-1.7702,-1.853,-1.9233,-1.9748,-1.8844,-1.8204,-1.8204,-1.7174,-1.6293,-1.5832,-1.5615,-1.5148,-1.4373,-1.3863,-1.3128,0.0,0.0,0.0,0.0,0.0,0.0,0.0,0.0,0.0,0.0,0.0,0.0,0.0,0.0,0.0,0.0,0.0,0.0,0.0,0.0,0.0,0.0,0.0,0.0,0.0,0.0,0.0,0.0,-1.2426,-1.3946,-1.5238,-1.5535,-1.5768,0.0,0.0,0.0,0.0,0.0,0.0,-1.7849,-1.8836,-1.9699,-2.0453,-2.0996,-2.1638,-2.2274,-2.2874,-2.328,-2.3417,-2.3389,-2.3246,-2.3045,-2.2491,-2.2503,-2.2775,-2.2491,-2.2058,-2.1452,-1.9504,-1.7662,-1.6258,-1.7469,-1.7111,-1.6092,-1.7224,-1.7135,-1.6531,-1.6842,-1.6919,-1.6863,-1.6246,0.0,-1.6439,-1.4676,0.0,0.0,0.0,0.0,-1.6655,-1.736,0.0,-1.7903,-1.7739,-1.7812,-1.8226,-1.9346,-1.8965,-1.8178,0.0,-1.7842,-1.7677,-1.6019,0.0,0.0,0.0,0.0,-1.7463,-1.8304,-1.8894,-1.9371,-1.9761,-1.897,-1.8355,-1.8216,-1.73,-1.6542,-1.602,-1.5976,-1.5579,-1.4605,-1.4652,-1.4121,-1.2851,0.0,0.0,0.0,0.0,0.0,0.0,0.0,0.0,0.0,0.0,0.0,0.0,0.0,0.0,0.0,0.0,0.0,0.0,0.0,0.0,0.0,0.0,0.0,0.0,0.0,0.0,0.0,0.0,0.0,-1.6499,-1.6964,0.0,0.0,0.0,0.0,-1.8474,-1.8952,-1.9532,-2.031,-2.0839,-2.1445,-2.2054,-2.2609,-2.3152,-2.3706,-2.3862,-2.394,-2.3976,-2.3935,-2.3947,-2.3947,-2.3881,-2.3537,-2.3045,-2.3604,-2.3144,-2.1833,-2.0893,-1.9505,-1.8041,-1.8861,-1.8249,-1.6912,-1.766,-1.7498,-1.6757,-1.671,-1.6478,-1.6314,-1.7219,-1.7193,-1.6951,-1.7397,-1.6963,0.0,0.0,-1.7063,-1.7057,-1.7564,-1.7999,-1.8279,-1.7823,-1.805,-1.8596,-1.9414,-1.9574,-1.9562,0.0,-1.8882,-1.8166,-1.8053,0.0,-1.8078,-1.8041,-1.853,-1.887,-1.8933,-1.9447,-1.9773,-1.9798,-1.9309,-1.8769,-1.8242,-1.7664,-1.7099,-1.6504,-1.6479,-1.6032,-1.5108,-1.5511,-1.4919,-1.321,-1.2979,0.0,0.0,0.0,0.0,0.0,0.0,0.0,0.0,0.0,0.0,0.0,0.0,0.0,0.0,0.0,0.0,0.0,0.0,0.0,0.0,0.0,0.0,0.0,0.0,0.0,0.0,0.0,0.0,-1.827,-1.8363,0.0,0.0,-1.9086,-1.9245,-1.98,-2.0064,-2.0594,-2.1555,-2.208,-2.265,-2.3183,-2.3388,-2.3737,-2.4254,-2.4456,-2.4626,-2.4816,-2.4966,-2.4966,-2.4828,-2.4828,-2.4677,-2.4457,-2.4167,-2.3897,-2.3501,-2.2731,-2.133,-1.9722,-2.0445,-1.9813,-1.8506,-1.925,-1.9055,-1.8418,-1.8389,-1.8154,-1.7962,-1.8208,-1.7994,-1.7513,-1.7441,-1.7449,-1.7591,-1.7823,-1.7885,-1.8009,-1.8346,-1.8647,-1.8785,-1.863,-1.8713,-1.9167,-2.0319,-2.027,-2.0297,-2.1256,-2.0828,-2.0087,-1.9359,-1.9233,-1.912,-1.8781,-1.8907,-1.9096,-1.9484,-1.9685,-1.9798,-1.9798,-1.9334,-1.8807,-1.8254,-1.7702,-1.7137,-1.6559,-1.6522,-1.6076,-1.5153,-1.5534,-1.5071,-1.3512,-1.3456,-1.2502,0.0,0.0,0.0,0.0,0.0,0.0,0.0,0.0,0.0,0.0,0.0,0.0,0.0,0.0,0.0,0.0,0.0,0.0,0.0,0.0,0.0,0.0,0.0,0.0,0.0,0.0,-1.7313,-1.943,-1.9573,-1.9691,-2.0296,-2.0482,-2.0705,-2.1063,-2.1437,-2.1993,-2.269,-2.322,-2.3664,-2.4013,-2.4194,-2.4446,-2.4783,-2.4933,-2.5102,-2.5312,-2.5465,-2.5453,-2.5312,-2.5312,-2.5312,-2.5241,-2.4719,-2.459,-2.4713,-2.4214,-2.3149,-2.175,-2.1856,-2.0956,-1.9775,-2.0114,-2.0053,-1.964,-1.936,-1.9246,-1.9203,-1.9145,-1.8665,-1.8072,-1.7891,-1.8131,-1.8495,-1.8471,-1.8582,-1.8682,-1.8859,-1.9008,-1.9075,-1.9075,-1.9075,-1.9452,-2.0805,-2.0797,-2.1,-2.2278,-2.1995,-2.1255,-2.0501,-2.0363,-2.0188,-1.966,-1.9572,-1.9635,-1.9786,-1.9798,-1.9798,-1.9798,-1.9497,-1.8995,-1.8267,-1.7911,-1.737,-1.6559,-1.6522,-1.6219,-1.5367,-1.562,-1.5163,-1.3754,-1.3357,-1.2462,-1.0984,0.0,0.0,0.0,0.0,0.0,0.0,0.0,0.0,0.0,0.0,0.0,0.0,0.0,0.0,0.0,0.0,0.0,0.0,0.0,0.0,0.0,0.0,0.0,-1.6664,-1.79,-1.9057,-1.9943,-2.0407,-2.0625,-2.0573,-2.1604,-2.2246,-2.2246,-2.3207,-2.3797,-2.3797,-2.4278,-2.4542,-2.4542,-2.5059,-2.5336,-2.5336,-2.5348,-2.536,-2.536,-2.536,-2.536,-2.536,-2.536,-2.5348,-2.5336,-2.5336,-2.5324,-2.5312,-2.5312,-2.4862,-2.4016,-2.2994,-2.1779,-2.0523,-2.037,-2.037,-2.038,-1.9588,-1.9608,-1.9907,-1.9897,-1.9288,-1.8605,-1.8987,-1.9153,-1.9121,-1.9121,-1.9151,-1.9085,-1.9085,-1.9085,-1.9075,-1.9075,-1.9075,-1.9462,-2.0805,-2.106,-2.1502,-2.2823,-2.2272,-2.1531,-2.1518,-2.1506,-2.133,-2.0832,-2.0731,0.0,-1.9899,-1.9811,-1.9798,-1.9798,-1.9798,-1.9371,-1.8317,-1.8346,-1.7852,-1.6622,-1.6633,-1.6392,-1.5788,-1.5773,-1.5198,-1.4026,-1.2776,-1.2014,-1.1752,0.0,0.0,0.0,0.0,0.0,0.0,0.0,0.0,0.0,0.0,0.0,0.0,0.0,0.0,0.0,0.0,0.0,0.0,0.0,0.0,0.0,0.0,-1.9168,-1.8493,-1.9408,-2.0357,-2.0958,-2.1484,-2.191,-2.2262,-2.2974,-2.334,-2.334,-2.3941,-2.4314,-2.4314,-2.4807,-2.5095,-2.5095,-2.5612,-2.5877,-2.5877,-2.6286,-2.649,-2.649,-2.649,-2.649,-2.649,-2.649,-2.6262,-2.5877,-2.5877,-2.5661,-2.5312,-2.5312,-2.4862,-2.4013,-2.3245,-2.2271,-2.1393,-2.0727,-2.051,-2.046,-1.9919,-1.9905,-2.0004,-1.9419,-1.9242,-1.9265,-1.9223,-1.9756,-2.0338,-2.0144,-1.9864,-1.964,-1.964,-1.9391,-1.9075,-1.9075,-1.9075,-1.933,-2.0161,-2.0741,-2.1376,-2.2175,-2.2515,-2.256,-2.2159,-2.2083,-2.1895,-2.1343,0.0,0.0,-2.0451,-2.0062,-1.9798,-1.9798,-1.9798,-1.9522,-1.8857,-1.8478,-1.7949,0.0,-1.6473,-1.58,-1.5322,-1.5271,-1.4979,-1.4314,-1.3226,-1.2802,0.0,0.0,0.0,0.0,0.0,0.0,0.0,0.0,0.0,0.0,0.0,0.0,0.0,0.0,0.0,0.0,0.0,0.0,0.0,0.0,0.0,0.0,-2.0003,-2.0885,-2.0836,-2.1161,-2.14,-2.1391,-2.2065,-2.2642,-2.2955,-2.3652,-2.4085,-2.4085,-2.4554,-2.4939,-2.5168,-2.548,-2.5745,-2.5985,-2.6286,-2.6454,-2.6454,-2.6767,-2.6935,-2.6935,-2.6935,-2.6935,-2.6935,-2.6935,-2.6755,0.0,-2.6454,-2.6274,-2.5973,-2.5733,-2.5337,0.0,0.0,0.0,0.0,0.0,-2.0867,-2.0527,-2.0273,-2.0358,-2.0404,-1.9873,-2.0009,-2.0242,-2.0148,-2.0561,-2.1042,-2.1011,-2.0533,-2.0038,-2.0038,-1.9696,-1.9354,-1.9354,-1.921,-1.9264,-1.9977,-2.0613,-2.1313,-2.1978,0.0,0.0,-2.2711,-2.2661,-2.2472,-2.192,-2.1368,-2.0928,0.0,-2.0162,-1.9798,-1.9798,-1.9798,-1.9597,-1.907,-1.878,0.0,0.0,0.0,-1.5799,-1.4854,-1.4697,0.0,0.0,0.0,0.0,0.0,0.0,0.0,0.0,-1.3989,-1.4082,0.0,0.0,0.0,0.0,0.0,0.0,0.0,0.0,0.0,0.0,0.0,0.0,0.0,0.0,0.0,0.0,-2.1118,-2.2247,-2.3286,-2.2923,-2.2385,-2.174,-2.2587,-2.3216,-2.3147,-2.4037,-2.4602,-2.4602,-2.5095,-2.56,-2.6069,0.0,0.0,0.0,0.0,-2.7019,-2.7019,-2.7079,-2.7115,-2.7115,-2.7115,-2.7115,-2.7115,-2.7115,-2.7079,-2.7019,-2.7019,-2.6995,-2.6899,-2.6394,-2.608,-2.5742,-2.3812,-2.2957,-2.2734,-2.1983,-2.1242,0.0,0.0,0.0,0.0,-2.0906,-2.0974,-2.1108,-2.1135,-2.1237,-2.1321,-2.1649,-2.1167,-2.0503,-2.0503,-2.0131,-1.9827,-1.9827,-1.9406,-1.9264,-1.9846,-2.0549,-2.125,-2.1865,-2.2555,-2.3078,-2.3078,-2.3078,-2.2915,-2.2472,-2.1933,0.0,-2.0882,-2.0263,-1.9874,-1.9811,0.0,0.0,-1.9108,-1.9157,-1.8532,-1.6963,-1.6807,-1.6087,-1.4549,-1.425,-1.418,-1.4363,-1.4195,-1.4535,-1.5477,-1.5956,-1.6074,-1.5832,-1.4704,-1.4601,0.0,0.0,0.0,0.0,0.0,0.0,0.0,0.0,0.0,0.0,0.0,0.0,0.0,0.0,0.0,-2.3226,-2.3988,-2.4378,-2.4608,-2.4533,-2.4234,-2.3491,-2.3952,-2.4341,-2.4249,-2.4795,-2.5155,-2.5155,-2.5648,-2.5985,-2.6093,-2.6526,0.0,-2.6935,-2.7344,-2.7572,-2.7572,-2.7993,-2.821,-2.821,0.0,0.0,-2.821,-2.821,-2.7969,-2.7572,-2.7572,-2.7332,-2.6923,-2.6815,-2.6119,-2.4969,-2.3579,-2.2574,-2.1907,-2.1165,-2.0712,-2.0566,-2.0566,-2.0644,-2.0654,-2.0654,-2.0712,-2.0692,-2.075,-2.1145,0.0,-2.1562,-2.1203,-2.0979,-2.0979,-2.0379,-1.9827,-1.9827,-1.9406,-1.9142,-1.9264,-2.0226,-2.1123,-2.125,-2.2261,-2.3078,-2.3078,-2.3078,-2.304,-2.2927,-2.251,-2.1945,-2.1393,-2.084,-2.0326,-1.9849,-1.9798,-1.9761,-1.966,-1.9271,-1.8883,-1.856,-1.7313,-1.6101,-1.4948,-1.4847,-1.4839,-1.4871,-1.5025,-1.5403,-1.5967,-1.6267,-1.6634,-1.6983,-1.6298,-1.5659,0.0,0.0,0.0,0.0,0.0,0.0,0.0,0.0,0.0,0.0,0.0,-2.0098,-2.157,0.0,-2.3055,-2.4504,-2.4864,-2.5204,-2.5826,-2.5914,-2.5375,-2.4053,-2.4367,-2.4669,-2.4538,-2.4999,-2.542,-2.5685,-2.5949,-2.6334,-2.6875,-2.7176,-2.744,-2.7717,-2.7981,-2.8114,-2.8114,-2.8378,-2.851,-2.851,-2.851,-2.851,-2.851,-2.851,-2.8366,-2.8114,-2.8114,-2.7969,-2.7705,-2.744,-2.6769,-2.5784,-2.4312,-2.2928,-2.168,-2.0867,-2.0566,-2.0566,-2.0566,-2.0566,-2.0566,-2.0566,-2.0634,-2.0624,-2.0886,-2.1332,-2.1768,-2.1675,-2.1556,-2.1455,-2.1455,-2.0948,-2.0379,-2.0151,-1.9748,-1.9422,-1.9116,-2.0161,-2.1123,-2.1123,-2.2199,-2.3078,-2.3078,-2.3078,-2.3078,-2.3078,-2.2661,-2.2209,-2.1933,-2.1418,-2.0853,-2.0288,-2.0238,-2.0112,-1.9823,-1.9107,-1.8509,-1.8232,-1.6977,-1.5844,-1.5049,-1.4997,-1.5101,-1.5339,-1.5499,-1.5773,-1.6245,-1.6401,-1.6584,-1.6839,-1.6523,-1.6195,0.0,0.0,0.0,0.0,0.0,0.0,0.0,0.0,-1.9648,-2.0683,-2.1743,-2.2785,-2.3703,-2.3969,-2.4326,-2.5202,-2.5467,-2.5864,-2.6862,-2.6989,-2.6371,-2.4653,-2.4785,-2.495,-2.4683,-2.5059,-2.5528,-2.6057,-2.6202,-2.6695,-2.7669,-2.7813,-2.8065,-2.8498,-2.851,-2.851,-2.851,-2.851,-2.851,-2.851,-2.851,-2.851,-2.851,-2.851,-2.851,-2.851,-2.851,-2.851,-2.8474,-2.8053,-2.7406,-2.6612,-2.5105,-2.3549,-2.1948,-2.1025,-2.0635,-2.0566,-2.0566,-2.0566,-2.0566,-2.0566,-2.0634,-2.0722,-2.1148,-2.1527,-2.1788,-2.1838,-2.1807,-2.1807,-2.1807,-2.1455,-2.1021,-2.0648,-2.0151,-1.9734,-1.9349,-2.0227,-2.1123,-2.1123,-2.2199,-2.3078,-2.3078,-2.3078,-2.3078,-2.3078,-2.2761,-2.2435,-2.2322,-2.192,-2.1443,-2.0891,-2.0882,-2.0589,-2.0024,-1.9013,-1.8184,-1.7578,-1.6651,-1.5879,-1.5319,-1.5266,-1.5442,-1.5815,-1.5825,-1.6011,-1.6384,-1.6467,-1.6508,-1.6519,-1.6607,-1.6636,-1.6204,-1.5936,-1.6598,-1.9067,-1.9076,-1.922,0.0,0.0,-2.2443,-2.3475,-2.3745,-2.4055,-2.4747,-2.5272,-2.5863,-2.6483,-2.7087,-2.7535,-2.7664,-2.7661,-2.7367,-2.6492,-2.6354,-2.6006,-2.5296,-2.5276,-2.5528,-2.6057,-2.6562,-2.7103,-2.7693,-2.8162,-2.845,-2.851,-2.851,-2.851,-2.851,-2.851,-2.851,-2.851,-2.851,-2.851,-2.851,-2.851,-2.851,-2.851,-2.851,-2.851,-2.851,-2.845,-2.7616,-2.6347,-2.5447,-2.4245,-2.2796,-2.161,-2.0908,-2.0566,-2.0566,-2.0566,-2.0566,-2.0566,-2.0624,-2.0682,-2.0924,-2.1379,-2.1814,-2.1828,-2.1807,-2.1807,-2.1807,-2.1455,-2.1104,-2.1052,-2.0379,-1.9817,-1.9765,-2.0468,-2.1123,-2.1123,-2.2199,-2.3078,-2.3078,-2.3078,-2.3078,-2.3078,-2.3027,-2.2862,-2.2372,-2.2259,-2.2008,-2.1455,-2.1393,-2.1179,-2.0668,-1.9576,-1.8679,-1.8066,-1.74,-1.6783,-1.6275,-1.6218,-1.6249,-1.6301,-1.6301,-1.6332,-1.6384,-1.6777,-1.6915,-1.6974,-1.7683,-1.7144,-1.9375,-1.9459,0.0,0.0,-2.1594,-2.2313,-2.3313,-2.3617,-2.3863,-2.4507,-2.4882,-2.5205,-2.5472,-2.5725,-2.6104,0.0,-2.7355,-2.7902,-2.8254,-2.831,-2.8056,-2.7284,-2.6784,-2.6231,-2.5506,-2.5341,-2.5661,-2.6514,-2.6803,-2.7296,-2.8138,-2.839,-2.851,-2.851,-2.851,-2.851,-2.851,-2.851,-2.851,-2.851,-2.851,-2.851,-2.851,-2.851,-2.851,-2.851,-2.851,-2.851,-2.8431,-2.7926,-2.7742,-2.7441,-2.5738,-2.4858,-2.4413,-2.214,-2.1222,-2.1026,-2.0742,-2.0566,-2.0566,-2.0566,-2.0624,-2.0672,-2.0924,-2.1369,-2.1803,-2.1828,-2.1807,-2.1807,-2.1807,-2.1662,-2.1445,-2.1176,-2.0617,-2.0079,-1.982,-2.0512,-2.1123,-2.1123,-2.2199,-2.3078,-2.3078,-2.3078,-2.3078,-2.3078,-2.3078,-2.299,-2.2824,-2.2786,-2.2585,-2.202,-2.1681,-2.1225,-2.0655,-1.9922,-1.905,-1.8025,-1.7467,-1.6944,-1.6431,-1.6384,-1.6498,-1.6757,-1.6767,-1.6891,-1.7171,-1.7357,-1.7389,-1.7389,-1.803,-1.7557,-2.1706,0.0,0.0,-2.271,-2.3837,-2.4713,-2.4293,-2.4632,-2.512,-2.5331,-2.5692,-2.5893,-2.5893,-2.6034,-2.6357,-2.6975,-2.7607,-2.824,-2.8858,-2.8788,-2.8432,-2.7664,-2.7133,-2.6544,-2.5838,-2.5473,-2.5829,-2.7138,-2.6998,-2.7404,-2.845,-2.851,-2.851,-2.851,-2.851,-2.851,-2.851,-2.851,-2.851,-2.851,-2.851,-2.851,-2.851,-2.851,-2.851,-2.851,-2.851,-2.851,-2.8431,-2.7846,-2.7638,-2.7554,-2.5804,-2.5105,-2.4798,-2.2664,-2.1565,-2.1102,-2.0751,-2.0566,-2.0566,-2.0566,-2.0634,-2.0779,-2.1011,-2.1379,-2.1803,-2.1828,-2.1807,-2.1807,-2.1807,-2.1807,-2.1725,-2.1383,-2.0948,-2.0493,-2.0038,-2.0642,-2.1232,-2.1158,-2.2199,-2.3078,-2.3078,-2.3078,-2.3078,-2.3078,-2.3078,-2.3078,-2.3078,-2.3078,-2.2975,-2.2585,-2.2046,-2.1423,-2.0779,-2.0127,-1.9297,-1.8189,-1.7629,-1.7169,-1.6746,-1.6757,-1.6901,-1.7162,-1.7172,-1.7337,-1.7668,-1.7854,-1.7916,-1.7916,-1.8361,-1.8177,0.0,0.0,-2.2763,-2.4718,-2.5423,-2.5751,-2.6056,-2.6301,-2.6453,-2.6481,-2.6136,-2.5893,-2.5893,-2.6385,-2.6989,-2.7636,-2.8268,-2.8872,-2.949,-2.9069,-2.8432,-2.7664,-2.7602,-2.726,0.0,-2.5791,-2.6031,-2.7838,-2.7285,-2.7404,-2.845,-2.851,-2.851,-2.851,-2.851,-2.851,-2.851,-2.851,-2.851,-2.851,-2.851,-2.851,-2.851,-2.851,-2.851,-2.851,-2.851,-2.851,-2.851,-2.851,-2.7429,-2.5841,-2.583,-2.4734,-2.3183,-2.3097,-2.2056,-2.0614,-2.0595,-2.0613,-2.0566,-2.0566,-2.0741,-2.1003,-2.1138,-2.1476,-2.1803,-2.1828,-2.1807,-2.1807,-2.1807,-2.1807,-2.1797,-2.1787,-2.1424,-2.0969,-2.0503,-2.1134,-2.1655,-2.1163,-2.2199,-2.3078,-2.3078,-2.3078,-2.3078,-2.3078,-2.3078,-2.3078,-2.3078,-2.3078,-2.3065,-2.3053,-2.2623,-2.1981,-2.1355,-2.0228,-1.929,-1.8632,-1.8047,-1.7688,-1.7688,-1.7688,-1.7698,-1.7657,-1.7657,-1.7657,-1.7668,-1.8154,-1.8361,-1.8371,-1.8837,-1.9054,0.0,0.0,-2.5203,-2.6296,-2.6819,-2.718,-2.7484,-2.7195,-2.6799,-2.6323,-2.6134,-2.5901,-2.543,-2.5673,-2.6301,-2.737,-2.7852,-2.8436,-2.9462,-2.9434,-2.9077,-2.8413,-2.8242,0.0,0.0,0.0,0.0,-2.7911,-2.7285,-2.7404,-2.845,-2.851,-2.851,-2.851,-2.851,-2.851,-2.851,-2.851,-2.851,-2.851,-2.851,-2.851,-2.851,-2.851,-2.851,-2.851,-2.851,-2.851,-2.8431,-2.7846,-2.7627,-2.7332,-2.4935,-2.3644,-2.3063,-2.3122,-2.2703,-2.2114,-2.1005,-2.0608,-2.0632,-2.0635,-2.0809,-2.1148,-2.1312,-2.1543,-2.1828,-2.1807,-2.1807,-2.1807,-2.1807,-2.1807,-2.1807,-2.1807,-2.1455,-2.1073,-2.0917,-2.1625,-2.2147,-2.1667,-2.273,-2.359,-2.314,-2.3078,-2.3078,-2.3078,-2.3078,-2.3078,-2.3078,-2.3078,-2.3078,-2.3078,-2.2915,-2.2358,-2.1233,-2.0523,-1.9616,-1.8522,-1.8009,-1.7668,-1.7668,-1.7668,-1.7874,-1.8154,-1.8164,-1.8309,-1.862,-1.8764,-1.8837,-1.8847,-1.9058,-1.8942,-2.4402,-2.5664,-2.6887,-2.7775,-2.8188,-2.841,-2.8576,-2.7742,-2.6792,-2.609,-2.5667,-2.5169,-2.4523,-2.4409,-2.5063,-2.6977,-2.7338,-2.8053,-2.9907,-2.9978,-2.9741,-2.9331,-2.9265,-2.9242,0.0,0.0,0.0,-2.8802,-2.7829,-2.7661,-2.8834,-2.8657,-2.851,-2.851,-2.851,-2.851,-2.851,-2.851,-2.851,-2.851,-2.851,-2.851,-2.851,-2.851,-2.851,-2.851,-2.851,-2.851,-2.8431,-2.7926,-2.7615,-2.7321,-2.4946,-2.3644,-2.3083,-2.3076,-2.3095,-2.2982,-2.1841,-2.138,-2.1176,-2.0947,-2.1134,-2.1406,-2.1363,-2.1522,-2.1807,-2.1807,-2.1807,-2.1807,-2.1807,-2.1807,-2.1807,-2.1807,-2.158,-2.1311,-2.1155,-2.1985,-2.2731,-2.217,-2.3128,-2.3879,-2.3502,-2.3215,-2.3078,-2.3078,-2.3078,-2.3078,-2.3078,-2.3078,-2.3005,-2.275,-2.275,-2.2187,-2.0869,-2.0448,-1.9816,-1.8749,-1.8371,-1.8206,-1.8206,-1.8206,-1.834,-1.862,-1.862,-1.8775,-1.9075,-1.9075,-1.9075,-1.9075,-1.9075,-1.8942,-2.5935,-2.6903,-2.7811,-2.9135,-2.9443,-2.9412,-2.9412,-2.7997,-2.6494,-2.5755,-2.4804,-2.3818,0.0,0.0,-2.3605,-2.6498,-2.6803,-2.7705,-3.0754,-3.0711,-3.0409,0.0,0.0,0.0,0.0,0.0,0.0,-3.0405,0.0,-2.8309,-2.9679,-2.8961,-2.851,-2.8578,-2.851,-2.851,-2.851,-2.851,-2.851,-2.851,-2.851,-2.851,-2.851,-2.851,-2.851,-2.851,-2.851,-2.851,-2.851,-2.8431,-2.7418,-2.5819,-2.5735,-2.4648,-2.3135,-2.3135,-2.3135,-2.3096,-2.3137,-2.273,-2.2182,-2.1637,-2.159,-2.1699,-2.1366,-2.1522,-2.1807,-2.1807,-2.1807,-2.1807,-2.1807,-2.1807,-2.1807,-2.1807,-2.1807,-2.1683,-2.1248,-2.228,-2.3177,-2.2731,-2.3393,-2.4029,-2.4004,-2.354,-2.3115,-2.3078,-2.3078,-2.3078,-2.3078,-2.3078,-2.2823,-2.2175,-2.2039,-2.1542,-2.0226,-2.0096,-1.9846,-1.9131,-1.9075,-1.9075,-1.9075,-1.9075,-1.9075,-1.9075,-1.9075,-1.9075,-1.9075,-1.9075,-1.9075,-1.9075,-1.9075,-1.9075,-2.6058,-2.758,-2.9104,-2.995,-2.9797,-2.9412,-2.9412,-2.7869,-2.6137,-2.49,-2.4063,-2.3158,-2.1987,0.0,0.0,-2.5258,-2.659,0.0,-3.0397,-3.0991,0.0,-3.123,0.0,-3.1741,-3.1285,-3.1076,0.0,0.0,-2.9835,-2.9189,-3.048,-2.925,-2.8736,-2.9406,-2.8803,-2.851,-2.851,-2.851,-2.851,-2.851,-2.851,-2.851,-2.851,-2.851,-2.851,-2.851,-2.851,-2.851,-2.8431,-2.7765,-2.7255,-2.667,-2.5337,-2.4573,-2.4069,-2.3396,-2.3135,-2.3125,-2.3134,-2.282,-2.2389,-2.1958,-2.1737,-2.1749,-2.1649,-2.169,-2.1807,-2.1807,-2.1807,-2.1807,-2.1807,-2.1807,-2.1807,-2.1807,-2.1807,-2.1776,-2.1652,-2.236,-2.3089,-2.313,-2.3948,-2.4481,-2.4067,-2.3879,-2.364,-2.314,-2.2689,-2.2555,-2.3065,-2.2689,-2.2298,-2.2113,-2.1678,-2.0985,-2.0161,-2.0096,-1.9846,-1.9131,-1.9075,-1.9075,-1.9075,-1.9075,-1.9075,-1.9075,-1.9075,-1.9075,-1.9075,-1.9075,-1.9075,-1.9075,-1.9075,-1.9075,-2.7411,-2.875,-3.0012,-3.0674,-3.0351,-2.9704,-2.9119,-2.738,-2.5364,-2.3379,-2.2671,0.0,-2.0254,0.0,0.0,0.0,0.0,0.0,-3.0452,-3.1389,-3.1948,0.0,-3.2595,0.0,-3.2328,-3.2222,-3.2277,0.0,-3.0937,-3.0258,-3.1402,-3.0228,-2.9626,-2.9704,-2.925,-2.8882,-2.851,-2.851,-2.851,-2.851,-2.851,-2.851,-2.851,-2.851,-2.851,-2.851,0.0,-2.851,-2.8431,-2.7926,-2.7255,-2.6505,-2.5495,-2.4573,-2.382,-2.3309,-2.3135,-2.3135,-2.3135,-2.2988,-2.2715,-2.2295,-2.2241,-2.2362,-2.189,-2.1913,-2.2066,-2.1859,-2.1807,-2.1807,-2.1807,-2.1807,-2.1807,-2.1807,-2.1807,-2.1807,-2.1807,-2.2402,-2.3143,-2.3688,-2.4278,-2.4452,-2.3663,-2.3527,-2.328,-2.2333,-2.1865,-2.1815,-2.2187,-2.1877,-2.1553,-2.1227,-2.0858,-2.0355,-1.9715,-1.9649,-1.9518,-1.9131,-1.9075,-1.9075,-1.9075,-1.9075,-1.9075,-1.9075,-1.9075,-1.9075,-1.9075,-1.9075,-1.9075,-1.9075,-1.9075,-1.9075,-2.9058,-2.9955,-3.0655,-3.112,-3.0819,-3.0006,-2.8458,-2.6472,-2.4194,-2.167,0.0,-2.0347,-1.853,-1.9386,-2.1055,-2.3238,0.0,-2.6924,-3.0492,-3.1582,-3.2259,-3.3045,-3.3269,-3.3326,-3.3326,-3.3326,-3.3326,-3.3326,-3.2028,-3.1489,-3.2232,-3.1415,-3.0594,-2.9845,-2.9845,-2.9484,-2.8657,-2.8657,-2.8578,-2.851,-2.851,-2.851,-2.851,-2.851,-2.851,-2.851,0.0,0.0,-2.851,-2.8351,-2.7336,-2.583,-2.5652,-2.4563,-2.3135,-2.3135,-2.3135,-2.3135,-2.3135,-2.3135,-2.3076,-2.2715,-2.2899,-2.3036,-2.2191,-2.2147,-2.2397,-2.1932,-2.1807,-2.1807,-2.1807,-2.1807,-2.1807,-2.1807,-2.1807,-2.1807,-2.1807,-2.2402,-2.3239,-2.4143,-2.4408,-2.4142,-2.322,-2.3039,-2.2567,-2.1406,-2.106,-2.0996,-2.0996,-2.0996,-2.0741,-2.0161,-2.0042,-1.9715,-1.9142,-1.9075,-1.9075,-1.9075,-1.9075,-1.9075,-1.9075,-1.9075,-1.9075,-1.9075,-1.9075,-1.9075,-1.9075,-1.9075,-1.9075,-1.9075,-1.9075,-1.9075,-2.9058,-3.0226,-3.0958,-3.0655,-3.0413,-2.9626,-2.7303,-2.4702,0.0,0.0,-1.9546,-1.8637,-1.8268,-1.9541,-2.1188,-2.2849,0.0,0.0,0.0,0.0,-3.1213,0.0,0.0,0.0,0.0,0.0,0.0,0.0,0.0,0.0,-3.3086,-3.1723,-3.082,-3.067,-3.067,-3.0291,-2.9471,-2.9471,-2.9184,-2.851,-2.851,-2.851,-2.851,-2.851,-2.851,-2.851,0.0,0.0,-2.8431,-2.7684,-2.6753,-2.5746,-2.4999,-2.4069,-2.3135,-2.3135,-2.3135,-2.3135,-2.3135,-2.3135,-2.3125,-2.3057,-2.3061,-2.3096,-2.2563,-2.2471,-2.2397,-2.1932,-2.1807,-2.1807,-2.1807,-2.1807,-2.1807,-2.1807,-2.1807,-2.1807,-2.1807,-2.2402,-2.3054,-2.325,-2.3716,-2.4026,-2.3537,-2.3015,-2.2488,-2.2008,-2.0985,-2.0291,-2.0291,-2.0291,-2.0226,-2.0096,-1.9584,-1.9198,-1.9131,-1.9075,-1.9075,-1.9075,-1.9075,-1.9075,-1.9075,-1.9075,-1.9075,-1.9075,-1.9075,-1.9075,-1.9075,-1.9075,-1.9075,-1.9075,-1.9075,-1.9075,-2.9884,-3.0541,-3.0885,-3.1228,-3.0541,-2.909,-2.6409,0.0,0.0,0.0,-1.8668,-1.7992,-1.7285,0.0,0.0,0.0,0.0,0.0,0.0,0.0,0.0,0.0,0.0,0.0,0.0,0.0,0.0,0.0,0.0,0.0,-3.3326,-3.2173,-3.1489,-3.1489,-3.1119,-3.0745,-3.0291,-2.9922,-2.9484,-2.9106,-2.8736,-2.851,-2.851,-2.851,-2.851,-2.851,0.0,0.0,-2.851,-2.8018,-2.708,-2.5746,-2.5326,-2.4317,-2.3135,-2.3135,-2.3135,-2.3135,-2.3135,-2.3135,-2.3105,-2.2967,-2.3103,-2.3106,-2.2736,-2.2613,-2.2397,-2.1932,-2.1807,-2.1807,-2.1807,-2.1807,-2.1807,-2.1807,-2.1807,-2.1807,-2.1807,-2.2101,-2.2478,-2.2927,-2.3287,-2.3318,-2.2662,-2.2275,-2.1733,-2.0671,-1.9966,-1.9584,-1.9584,-1.9584,-1.9584,-1.9584,-1.9264,-1.9075,-1.9075,-1.9075,-1.9075,-1.9075,-1.9075,-1.9075,-1.9075,-1.9075,-1.9075,-1.9075,-1.9075,-1.9075,-1.9075,-1.9075,-1.9075,-1.9075,-1.9075,-1.9075,-3.0698,-3.1087,-3.1103,-3.1836,-3.0657,-2.8602,-2.5718,-2.3409,0.0,0.0,-1.7976,-1.7485,-1.6578,0.0,0.0,0.0,0.0,0.0,0.0,0.0,0.0,0.0,0.0,0.0,0.0,0.0,0.0,0.0,0.0,0.0,0.0,-3.2704,-3.239,-3.239,-3.1723,-3.1341,-3.1193,-3.038,-2.9845,-2.9704,-2.8882,-2.851,-2.851,-2.851,-2.851,-2.851,0.0,0.0,0.0,-2.851,-2.758,-2.608,-2.5913,-2.4819,-2.3396,-2.3135,-2.3135,-2.3135,-2.3135,-2.3144,-2.3153,-2.2988,-2.3018,-2.3096,-2.2788,-2.2621,-2.2397,-2.1932,-2.1807,-2.1807,-2.1807,-2.1807,-2.1807,-2.1807,-2.1807,-2.1807,-2.1807,-2.1807,-2.1959,-2.2628,-2.2777,-2.2464,-2.1712,-2.1468,-2.0876,-1.9533,-1.9198,-1.9075,-1.9075,-1.9075,-1.9075,-1.9075,-1.9075,-1.9075,-1.9075,-1.9075,-1.9075,-1.9075,-1.9075,-1.9075,-1.9075,-1.9075,-1.9075,-1.9075,-1.9075,-1.9075,-1.9075,-1.9075,-1.9075,-1.9075,-1.9075,-1.9075,-3.0845,-3.1965,-3.2546,-3.1545,-3.0275,-2.8367,-2.5137,0.0,0.0,-1.8514,-1.7239,-1.6532,-1.7024,-1.7271,0.0,0.0,0.0,-2.2876,0.0,0.0,0.0,0.0,0.0,0.0,0.0,0.0,0.0,0.0,0.0,0.0,0.0,-3.3241,-3.3171,-3.3171,-3.31,-3.2704,-3.2015,-3.118,-3.0443,-2.9704,-2.8882,-2.851,-2.851,-2.851,-2.851,-2.851,0.0,0.0,0.0,-2.851,-2.7926,-2.701,-2.6163,-2.5242,-2.4241,-2.3396,-2.3135,-2.3135,-2.3135,-2.3232,-2.3424,-2.3253,-2.3197,-2.3036,-2.2412,-2.2285,-2.2397,-2.1932,-2.1807,-2.1807,-2.1807,-2.1807,-2.1807,-2.1807,-2.1807,-2.1807,-2.1807,-2.1807,-2.1807,-2.1883,-2.1883,-2.1807,-2.1583,-2.0917,-2.039,-2.0052,-1.9462,-1.9075,-1.9075,-1.9075,-1.9075,-1.9075,-1.9075,-1.9075,-1.9075,-1.9075,-1.9075,-1.9075,-1.9075,-1.9075,-1.9075,-1.9075,-1.9075,-1.9075,-1.9075,-1.9075,-1.9075,-1.9075,-1.9075,-1.9075,-1.9075,-1.9075,-3.0101,-3.147,-3.2159,-3.1371,-2.9911,-2.7857,-2.4952,0.0,-1.9425,-1.8407,-1.7131,-1.6271,-1.6548,-1.6932,-1.7624,0.0,-1.9627,-2.0938,-2.3671,0.0,0.0,0.0,0.0,0.0,0.0,0.0,0.0,0.0,0.0,0.0,0.0,-3.3326,-3.3326,-3.3326,-3.3326,-3.3171,-3.286,-3.2015,-3.1193,-3.0443,-2.9626,-2.8961,-2.851,-2.851,-2.851,-2.851,0.0,0.0,0.0,-2.851,-2.8018,-2.7103,-2.6163,-2.5242,-2.4413,-2.3484,-2.3135,-2.3135,-2.3319,-2.3406,-2.3471,-2.3099,-2.295,-2.292,-2.2439,-2.2216,-2.2045,-2.1859,-2.1807,-2.1807,-2.1807,-2.1807,-2.1807,-2.1807,-2.1807,-2.1807,-2.1807,-2.1807,-2.1807,-2.1807,-2.1807,-2.1582,-2.0944,-2.0792,-2.0502,-1.9642,-1.9504,-1.9453,-1.9106,-1.9075,-1.9075,-1.9075,-1.9075,-1.9075,-1.9075,-1.9075,-1.9075,-1.9075,-1.9075,-1.9075,-1.9075,-1.9075,-1.9075,-1.9075,-1.9075,-1.9075,-1.9075,-1.9075,-1.9075,-1.9075,-1.9075,-1.9075,-2.9313,-3.0803,-3.1665,-3.1115,-2.9412,-2.7253,0.0,-2.1641,-1.9102,-1.8345,-1.7131,-1.6207,-1.6289,-1.6789,-1.7467,-1.8344,-1.8994,-2.0294,-2.2869,0.0,0.0,0.0,0.0,0.0,0.0,0.0,0.0,0.0,0.0,0.0,0.0,-3.3326,-3.3326,-3.3326,-3.3326,-3.3326,-3.3326,-3.2461,-3.1783,-3.1267,-3.0228,-2.9406,-2.8882,-2.8578,-2.851,0.0,0.0,0.0,0.0,-2.851,-2.8179,-2.751,-2.6588,-2.5663,-2.4744,-2.381,-2.3396,-2.3232,-2.3406,-2.359,-2.3634,-2.3132,-2.2951,-2.2848,-2.2556,-2.217,-2.1807,-2.1807,-2.1807,-2.1807,-2.1807,-2.1807,-2.1807,-2.1807,-2.1807,-2.1807,-2.1807,-2.1807,-2.1807,-2.1807,-2.1807,-2.1559,-2.0762,-2.0897,-2.069,-1.9458,-1.9619,-1.9661,-1.9127,-1.9075,-1.9075,-1.9075,-1.9075,-1.9075,-1.9075,-1.9075,-1.9075,-1.9075,-1.9075,-1.9075,-1.9075,-1.9075,-1.9075,-1.9075,-1.9075,-1.9075,-1.9075,-1.9075,-1.9075,-1.9075,-1.9075,-1.9147,-2.8502,-3.0166,-3.1345,-3.0675,-2.8809,-2.655,0.0,-2.1514,-1.9102,-1.8345,-1.7131,-1.6262,-1.6543,-1.6931,-1.7599,-1.8881,-2.0033,-2.1692,-2.4312,0.0,0.0,0.0,0.0,0.0,0.0,0.0,0.0,0.0,0.0,0.0,0.0,0.0,-3.3326,-3.3326,-3.3326,-3.3326,-3.3326,-3.2461,-3.2074,-3.2074,-3.0443,-2.9704,-2.9626,-2.8882,0.0,0.0,0.0,0.0,0.0,-2.851,-2.851,-2.8431,-2.751,-2.6588,-2.5652,-2.4829,-2.4079,-2.3503,-2.3503,-2.3764,-2.4125,-2.3665,-2.3392,-2.3101,-2.2635,-2.217,-2.1807,-2.1807,-2.1807,-2.1807,-2.1807,-2.1807,-2.1807,-2.1807,-2.1807,-2.1807,-2.1807,-2.1807,-2.1807,-2.1807,-2.1807,-2.1652,-2.1186,-2.1114,-2.0803,-1.9893,-1.9827,-1.9661,-1.9127,-1.9075,-1.9075,-1.9075,-1.9075,-1.9075,-1.9075,-1.9075,-1.9075,-1.9075,-1.9075,-1.9075,-1.9075,-1.9075,-1.9075,-1.9075,-1.9075,-1.9075,-1.9075,-1.9075,-1.9075,-1.9075,-1.9075,-1.938,-2.508,-2.6744,-2.7848,-2.6273,-2.5233,-2.4124,-2.2157,-2.0058,-1.8455,-1.8124,-1.7227,-1.657,-1.6815,-1.6981,-1.7855,-2.027,-2.0954,0.0,0.0,0.0,0.0,0.0,0.0,0.0,0.0,0.0,0.0,0.0,0.0,0.0,0.0,0.0,-3.3326,-3.3326,-3.3326,-3.3326,-3.3326,-3.3016,-3.2618,-3.2074,-3.1044,-3.0215,-2.9704,-2.8882,0.0,0.0,0.0,0.0,0.0,-2.851,-2.851,-2.8431,-2.751,-2.6588,-2.5652,-2.4829,-2.409,-2.3503,-2.3677,-2.3937,-2.4074,-2.3484,-2.3216,-2.3039,-2.2263,-2.1921,-2.1807,-2.1807,-2.1807,-2.1807,-2.1807,-2.1807,-2.1807,-2.1807,-2.1807,-2.1807,-2.1807,-2.1807,-2.1807,-2.1807,-2.1807,-2.1662,-2.1197,-2.1383,-2.128,-2.0348,-2.0213,-2.0058,-1.9603,-1.9328,-1.9075,-1.9075,-1.9075,-1.9075,-1.9075,-1.9075,-1.9075,-1.9075,-1.9075,-1.9075,-1.9075,-1.9075,-1.9075,-1.9075,-1.9075,-1.9075,-1.9075,-1.9075,-1.9075,-1.9075,-1.9396,-1.9789,-2.2629,-2.4114,-2.5012,-2.377,-2.3088,-2.2329,-2.0879,-1.9278,-1.8084,-1.8033,-1.7321,-1.6841,-1.7093,-1.7506,-1.8475,-2.0541,-2.15,0.0,0.0,0.0,0.0,0.0,0.0,0.0,0.0,0.0,0.0,0.0,0.0,0.0,0.0,0.0,-3.3326,-3.3326,-3.3326,-3.3326,-3.3326,-3.3326,-3.3016,-3.2547,-3.1415,-3.067,-3.0152,0.0,0.0,0.0,0.0,0.0,0.0,-2.851,-2.851,-2.8431,-2.7926,-2.6917,-2.5746,-2.5337,-2.4509,-2.3677,-2.3841,-2.3998,-2.4029,-2.3629,-2.3215,-2.278,-2.2035,-2.1807,-2.1807,-2.1807,-2.1807,-2.1807,-2.1807,-2.1807,-2.1807,-2.1807,-2.1807,-2.1807,-2.1807,-2.1807,-2.1807,-2.1807,-2.1807,-2.1714,-2.1424,-2.1621,-2.1487,-2.0565,-2.042,-2.0203,-1.9582,-1.9251,-1.9075,-1.9075,-1.9075,-1.9075,-1.9075,-1.9075,-1.9075,-1.9075,-1.9075,-1.9075,-1.9075,-1.9075,-1.9075,-1.9075,-1.9075,-1.9075,-1.9075,-1.9075,-1.9075,-1.9085,-1.9551,-2.0006,0.0,-2.2102,-2.2712,-2.2632,-2.1892,-2.0994,-2.028,-1.901,0.0,-1.7979,-1.7471,-1.715,-1.7517,-1.8395,-1.9372,-2.0178,0.0,0.0,0.0,0.0,0.0,0.0,0.0,0.0,0.0,0.0,0.0,0.0,0.0,0.0,0.0,0.0,0.0,-3.3326,-3.3326,-3.3326,-3.3326,-3.3326,-3.3326,-3.3255,-3.1649,-3.0895,-3.082,0.0,0.0,0.0,0.0,0.0,0.0,-2.851,-2.851,-2.851,-2.851,-2.7418,-2.583,-2.6091,-2.5158,-2.379,-2.4059,-2.4039,-2.3826,-2.3795,-2.3174,-2.2366,-2.1932,-2.1807,-2.1807,-2.1807,-2.1807,-2.1807,-2.1807,-2.1807,-2.1807,-2.1807,-2.1807,-2.1807,-2.1807,-2.1807,-2.1807,-2.1807,-2.1807,-2.1807,-2.1807,-2.1807,-2.1507,-2.0607,-2.0441,-2.011,-1.923,-1.9085,-1.9075,-1.9075,-1.9075,-1.9075,-1.9075,-1.9075,-1.9075,-1.9075,-1.9075,-1.9075,-1.9075,-1.9075,-1.9075,-1.9075,-1.9075,-1.9075,-1.9075,-1.9075,-1.9075,-1.9085,-1.9551,-2.0006,-1.8771,0.0,-1.9748,-1.8985,-1.8956,-1.8923,0.0,-1.8029,-1.7977,-1.7861,-1.7548,-1.7732,-1.9135,-1.9152,-1.9924,0.0,0.0,0.0,0.0,0.0,0.0,0.0,0.0,0.0,0.0,0.0,0.0,0.0,0.0,0.0,0.0,0.0,0.0,-3.3326,-3.3326,-3.3326,-3.3326,-3.3326,-3.3326,-3.3255,-3.1649,-3.0895,-3.082,0.0,0.0,0.0,0.0,0.0,-2.851,-2.851,-2.851,-2.851,-2.8657,-2.7661,-2.6091,-2.6329,-2.5185,-2.3591,-2.3686,-2.3556,-2.3298,-2.2936,-2.2439,-2.1952,-2.1838,-2.1807,-2.1807,-2.1807,-2.1807,-2.1807,-2.1807,-2.1807,-2.1807,-2.1807,-2.1807,-2.1807,-2.1807,-2.1807,-2.1807,-2.1807,-2.1807,-2.1807,-2.1807,-2.1807,-2.1611,-2.1041,-2.0648,-2.0224,-1.9665,-1.9292,-1.9075,-1.9075,-1.9075,-1.9075,-1.9075,-1.9075,-1.9075,-1.9075,-1.9075,-1.9075,-1.9075,-1.9075,-1.9075,-1.9075,-1.9075,-1.9075,-1.9075,-1.9075,-1.9075,-1.9085,-1.9551,-2.0006,-1.8005,-1.8699,-1.9177,-1.8651,-1.8726,-1.8856,-1.8485,-1.8137,-1.7888,0.0,0.0,-1.8373,-1.9326,-1.9857,0.0,0.0,0.0,0.0,0.0,0.0,0.0,0.0,0.0,0.0,0.0,0.0,0.0,0.0,0.0,0.0,0.0,0.0,0.0,0.0,-3.3326,-3.3326,-3.3326,-3.3326,-3.3326,-3.3255,-3.1649,-3.0895,-3.082,0.0,0.0,0.0,0.0,0.0,-2.851,-2.851,-2.859,-2.8657,-2.8724,-2.8063,-2.6917,-2.673,-2.5524,-2.4075,-2.3773,-2.335,-2.2791,-2.2335,-2.2014,-2.1807,-2.1807,-2.1807,-2.1807,-2.1807,-2.1807,-2.1807,-2.1807,-2.1807,-2.1807,-2.1807,-2.1807,-2.1807,-2.1807,-2.1807,-2.1807,-2.1807,-2.1807,-2.1807,-2.1807,-2.1631,-2.1331,-2.0866,-2.041,-1.9955,-1.9499,-1.923,-1.9075,-1.9075,-1.9261,-1.9303,-1.9085,-1.9328,-1.9292,-1.9085,-1.9075,-1.9075,-1.9075,-1.9075,-1.9075,-1.9075,-1.9075,-1.9075,-1.9075,-1.9075,-1.9075,-1.9085,-1.9551,-2.0006,-1.8103,-1.9243,-2.0066,-1.9714,-1.9762,-1.986,-1.9744,0.0,0.0,0.0,0.0,0.0,0.0,-2.0844,0.0,0.0,0.0,0.0,0.0,0.0,0.0,0.0,0.0,0.0,0.0,0.0,0.0,0.0,0.0,0.0,0.0,0.0,0.0,0.0,-3.3326,-3.3326,-3.3326,-3.3326,-3.3326,-3.3255,-3.1649,-3.0895,-3.082,-2.9263,0.0,0.0,0.0,0.0,-2.851,-2.851,-2.8578,-2.8724,-2.8803,-2.8383,-2.7637,-2.6977,-2.5895,-2.4573,-2.3834,-2.3049,-2.2325,-2.1932,-2.1807,-2.1807,-2.1807,-2.1807,-2.1807,-2.1807,-2.1807,-2.1807,-2.1807,-2.1807,-2.1807,-2.1807,-2.1807,-2.1807,-2.1807,-2.1807,-2.1807,-2.1807,-2.1807,-2.1807,-2.1807,-2.1476,-2.1041,-2.0503,-2.0162,-1.9779,-1.9251,-1.9241,-1.9282,-1.9282,-1.9634,-1.9696,-1.9313,-1.9634,-1.9696,-1.9303,-1.9147,-1.9075,-1.9075,-1.9075,-1.9075,-1.9075,-1.9075,-1.9075,-1.9075,-1.9075,-1.9075,-1.9085,-1.9551,-2.0006,-1.8741,-2.0614,-2.1678,-1.9771,-2.0218,-2.0952,-2.0322,0.0,0.0,0.0,0.0,0.0,0.0,0.0,0.0,0.0,0.0,0.0,0.0,0.0,0.0,0.0,0.0,0.0,0.0,0.0,0.0,0.0,0.0,0.0,0.0,0.0,0.0,0.0,0.0,-3.3326,-3.3326,-3.3326,-3.3326,-3.3255,-3.1649,-3.0895,-3.082,-2.9263,-2.851,0.0,0.0,-2.851,-2.851,-2.851,-2.851,-2.859,-2.8895,-2.8407,-2.7452,-2.6771,-2.5576,-2.4104,-2.2621,-2.2035,-2.1901,-2.1828,-2.1807,-2.1807,-2.1807,-2.1807,-2.1807,-2.1807,-2.1807,-2.1807,-2.1807,-2.1807,-2.1807,-2.1807,-2.1807,-2.1807,-2.1807,-2.1807,-2.1807,-2.1807,-2.1807,-2.1807,-2.1807,-2.1745,-2.1414,-2.0555,-2.07,-2.0607,-1.9768,-1.9986,-2.0213,-2.0213,-2.0276,-2.0296,-2.0224,-2.0286,-2.0296,-2.0224,-1.9499,-1.9075,-1.9075,-1.9075,-1.9075,-1.9075,-1.9075,-1.9075,-1.9075,-1.9075,-1.9075,-1.9085,-1.9551,-2.0006,-1.7759,-2.0108,-2.194,-2.0798,-2.1876,-2.326,-2.3311,-2.2685,0.0,0.0,0.0,0.0,0.0,0.0,0.0,0.0,0.0,0.0,0.0,0.0,0.0,0.0,0.0,0.0,0.0,0.0,0.0,0.0,0.0,0.0,0.0,0.0,0.0,0.0,0.0,-3.3326,-3.3326,-3.3326,-3.3326,-3.3255,-3.1649,-3.0895,-3.082,-2.9263,-2.851,0.0,0.0,-2.851,-2.851,-2.851,-2.8578,-2.8621,-2.8565,-2.8366,-2.7933,-2.6263,-2.4692,-2.3182,-2.2112,-2.1807,-2.1807,-2.1807,-2.1807,-2.1807,-2.1807,-2.1807,-2.1807,-2.1807,-2.1807,-2.1807,-2.1807,-2.1807,-2.1807,-2.1807,-2.1807,-2.1807,-2.1807,-2.1807,-2.1807,-2.1807,-2.1807,-2.1807,-2.1807,-2.16,-2.129,-2.0866,-2.0555,-2.0317,-2.0141,-2.0089,-2.0162,-2.04,-2.0648,-2.0596,-2.011,-2.0286,-2.0327,-2.0079,-1.9675,-1.9334,-1.9085,-1.9075,-1.9075,-1.9075,-1.9075,-1.9075,-1.9075,-1.9075,-1.9199,-1.9448,-1.9734,-2.0131,-1.7357,-1.9751,-2.2019,-2.223,0.0,-2.5005,-2.6021,-2.5232,0.0,0.0,0.0,0.0,0.0,0.0,0.0,0.0,0.0,0.0,0.0,0.0,0.0,0.0,0.0,0.0,0.0,0.0,0.0,0.0,0.0,0.0,0.0,0.0,0.0,0.0,0.0,0.0,-3.3326,-3.3326,-3.3241,-3.3016,-3.1576,-3.082,-3.0594,-2.9184,-2.851,-2.851,-2.851,-2.851,-2.8498,-2.8378,-2.8397,-2.8482,-2.7871,-2.7569,-2.7264,-2.5327,-2.37,-2.2283,-2.1932,-2.1807,-2.1807,-2.1807,-2.1807,-2.1807,-2.1807,-2.1807,-2.1807,-2.1807,-2.1807,-2.1807,-2.1807,-2.1807,-2.1807,-2.1807,-2.1807,-2.1807,-2.1807,-2.1807,-2.1807,-2.1807,-2.1807,-2.1776,-2.1662,-2.1352,-2.1041,-2.0834,-2.0296,-2.0006,-2.0234,-2.0162,-2.0203,-2.0555,-2.1,-2.0948,-2.0151,-2.0389,-2.0348,-1.9799,-1.9827,-1.9619,-1.9085,-1.9075,-1.9075,-1.9075,-1.9075,-1.9075,-1.9075,-1.9075,-1.9251,-1.9671,-1.982,-2.0286,-1.9006,-2.0774,-2.2518,-2.3945,-2.4449,0.0,-2.6818,-2.6662,0.0,-2.8594,0.0,0.0,0.0,0.0,0.0,0.0,0.0,0.0,0.0,0.0,0.0,0.0,0.0,0.0,0.0,0.0,0.0,0.0,0.0,0.0,0.0,0.0,0.0,0.0,0.0,0.0,-3.3326,-3.3326,-3.2931,-3.216,-3.1328,-3.0519,-2.9781,-2.8882,-2.851,-2.851,-2.851,-2.851,-2.8474,-2.7981,-2.7777,-2.7717,-2.6859,-2.5569,-2.4072,-2.3722,-2.2828,-2.1849,-2.1818,-2.1807,-2.1807,-2.1807,-2.1807,-2.1807,-2.1807,-2.1807,-2.1807,-2.1807,-2.1807,-2.1807,-2.1807,-2.1807,-2.1807,-2.1807,-2.1807,-2.1807,-2.1807,-2.1807,-2.1807,-2.1807,-2.1807,-2.1662,-2.1238,-2.1135,-2.0834,-2.0056,-2.0151,-2.0234,-1.9862,-2.0514,-2.1031,-2.1062,-2.1476,-2.1559,-2.1062,-2.1041,-2.069,-1.982,-1.9827,-1.9619,-1.9085,-1.9075,-1.9075,-1.9075,-1.9075,-1.9075,-1.9075,-1.9075,-1.9085,-1.9137,-1.9986,-2.041,-1.8038,-2.0223,-2.234,-2.2932,-2.4694,0.0,0.0,-2.8411,-2.9071,-3.0802,-3.1113,0.0,0.0,0.0,0.0,0.0,0.0,0.0,0.0,0.0,0.0,0.0,0.0,0.0,0.0,0.0,0.0,0.0,0.0,0.0,0.0,0.0,0.0,0.0,0.0,0.0,0.0,-3.1722,-3.1058,-3.0268,-3.0703,-3.0443,-2.9704,-2.8882,-2.833,-2.8017,-2.8017,-2.7837,-2.7512,-2.732,-2.6995,-2.6541,-2.5622,-2.4427,-2.3102,-2.3188,-2.2627,-2.1807,-2.1807,-2.1807,-2.1807,-2.1807,-2.1807,-2.1807,-2.1807,-2.1807,-2.1807,-2.1807,-2.1807,-2.1807,-2.1807,-2.1807,-2.1807,-2.1807,-2.1807,-2.1807,-2.1807,-2.1807,-2.1807,-2.1807,-2.1807,-2.1662,-2.1197,-2.1114,-2.0907,-2.0276,-2.0079,-2.0162,-2.0555,-2.0648,-2.0907,-2.1487,-2.1445,-2.1186,-2.0721,-2.069,-2.0296,-1.9385,-1.9671,-1.9619,-1.9085,-1.9075,-1.9075,-1.9075,-1.9075,-1.9075,-1.9075,-1.9075,-1.922,-1.951,-1.9851,-2.0162,-1.7754,-2.0092,-2.2378,-2.2636,0.0,0.0,-2.9083,-3.0026,-3.1076,-3.295,-3.3326,0.0,0.0,0.0,0.0,0.0,0.0,0.0,0.0,0.0,0.0,0.0,0.0,0.0,0.0,0.0,0.0,0.0,0.0,0.0,0.0,0.0,0.0,0.0,0.0,0.0,0.0,-3.0664,-2.9883,-2.8841,-2.9615,-2.9616,-2.882,-2.8227,-2.7813,-2.7476,-2.7476,-2.7272,-2.6848,-2.6518,-2.5803,-2.485,-2.4284,-2.3349,-2.2402,-2.2553,-2.2252,-2.1807,-2.1807,-2.1807,-2.1807,-2.1807,-2.1807,-2.1807,-2.1807,-2.1807,-2.1807,-2.1807,-2.1807,-2.1807,-2.1807,-2.1807,-2.1807,-2.1807,-2.1807,-2.1807,-2.1807,-2.1807,-2.1807,-2.1807,-2.1807,-2.1611,-2.1,-2.0897,-2.069,-2.0089,-1.9737,-1.9768,-2.0389,-2.0441,-2.0721,-2.1507,-2.13,-2.0876,-2.0265,-2.0213,-1.9882,-1.9116,-1.9432,-1.9396,-1.9085,-1.9075,-1.9075,-1.9075,-1.9075,-1.9075,-1.9075,-1.9075,-1.9297,-1.9551,-1.9765,-1.9924,-1.8715,-2.0601,-2.2797,0.0,0.0,0.0,-3.0269,-3.149,-3.2714,-3.5201,0.0,0.0,0.0,0.0,0.0,0.0,0.0,0.0,0.0,0.0,0.0,0.0,0.0,0.0,0.0,0.0,0.0,0.0,0.0,0.0,0.0,0.0,0.0,0.0,0.0,0.0,0.0,-3.0365,-2.9591,-2.8107,-2.8119,-2.7619,-2.6935,-2.6935,-2.6935,-2.6923,-2.6923,-2.6923,-2.68,-2.5655,-2.4168,-2.2703,-2.2703,-2.2327,-2.1807,-2.1807,-2.1807,-2.1807,-2.1807,-2.1807,-2.1807,-2.1807,-2.1807,-2.1807,-2.1807,-2.1807,-2.1807,-2.1807,-2.1807,-2.1807,-2.1807,-2.1807,-2.1807,-2.1807,-2.1807,-2.1807,-2.1807,-2.1807,-2.1807,-2.1807,-2.1807,-2.1507,-2.0586,-2.0431,-2.012,-1.922,-1.9085,-1.9075,-1.9085,-1.9872,-2.0607,-2.1062,-2.1114,-2.0752,-1.9841,-1.9827,-1.963,-1.9106,-1.9075,-1.9075,-1.9075,-1.9075,-1.9075,-1.9075,-1.9075,-1.9075,-1.9075,-1.9075,-1.9075,-1.9085,-1.9609,-1.9827,-1.9081,-2.0789,0.0,-2.4509,0.0,0.0,0.0,-3.2528,0.0,0.0,0.0,0.0,0.0,0.0,0.0,0.0,0.0,0.0,0.0,0.0,0.0,0.0,0.0,0.0,0.0,0.0,0.0,0.0,0.0,0.0,0.0,0.0,0.0,0.0,0.0,0.0,0.0,0.0,-2.7845,-2.6904,-2.6411,-2.6396,-2.6935,-2.6935,-2.6719,-2.6346,-2.6505,-2.6068,-2.5116,-2.3776,-2.3046,-2.2628,-2.2111,-2.1807,-2.1807,-2.1807,-2.1807,-2.1807,-2.1807,-2.1807,-2.1807,-2.1807,-2.1807,-2.1807,-2.1807,-2.1807,-2.1807,-2.1807,-2.1807,-2.1807,-2.1807,-2.1807,-2.1807,-2.1807,-2.1807,-2.1807,-2.1807,-2.1807,-2.1807,-2.1807,-2.1807,-2.1621,-2.101,-2.0907,-2.071,-2.011,-1.9758,-1.9665,-1.9986,-2.0545,-2.0969,-2.1104,-2.1114,-2.0752,-1.9841,-1.9827,-1.963,-1.9106,-1.9075,-1.9075,-1.9075,-1.9075,-1.9075,-1.9075,-1.9075,-1.9075,-1.9075,-1.9075,-1.9075,-1.9075,-1.921,-1.9282,-2.0156,-2.185,0.0,-2.6107,-2.8299,-3.0534,-3.2983,0.0,0.0,0.0,0.0,0.0,0.0,0.0,0.0,0.0,0.0,0.0,0.0,0.0,0.0,0.0,0.0,0.0,0.0,0.0,0.0,0.0,0.0,0.0,0.0,0.0,0.0,0.0,0.0,0.0,0.0,0.0,0.0,-2.6082,-2.5523,-2.5661,-2.6371,-2.6371,-2.6178,-2.5865,-2.5781,-2.5169,-2.4143,-2.299,-2.2402,-2.2176,-2.1655,-2.1578,-2.1655,-2.1655,-2.1731,-2.1807,-2.1807,-2.1807,-2.1807,-2.1807,-2.1807,-2.1807,-2.1807,-2.1807,-2.1807,-2.1807,-2.1807,-2.1807,-2.1807,-2.1807,-2.1807,-2.1807,-2.1807,-2.1807,-2.1807,-2.1807,-2.1807,-2.1807,-2.1807,-2.1662,-2.1197,-2.1114,-2.0959,-2.0493,-2.0048,-1.9924,-2.0369,-2.0669,-2.0907,-2.1093,-2.0948,-2.0545,-1.9889,-1.9661,-1.9432,-1.9085,-1.9075,-1.9075,-1.9075,-1.9075,-1.9075,-1.9075,-1.9075,-1.9075,-1.9075,-1.9075,-1.9075,-1.9075,-1.9075,-1.9075,-2.1447,0.0,0.0,-2.8076,-2.9698,0.0,0.0,0.0,0.0,0.0,0.0,0.0,0.0,0.0,0.0,0.0,0.0,0.0,0.0,0.0,0.0,0.0,0.0,0.0,0.0,0.0,0.0,0.0,0.0,0.0,0.0,0.0,0.0,0.0,0.0,0.0,0.0,0.0,0.0,0.0,-2.5382,-2.5382,-2.5535,-2.5535,-2.5535,-2.5465,-2.4862,-2.4276,-2.3706,-2.2916,-2.2101,-2.1502,-2.1436,-2.1502,-2.1502,-2.1512,-2.1655,-2.1807,-2.1807,-2.1807,-2.1807,-2.1807,-2.1807,-2.1807,-2.1807,-2.1807,-2.1807,-2.1807,-2.1807,-2.1807,-2.1807,-2.1807,-2.1807,-2.1807,-2.1807,-2.1807,-2.1807,-2.1807,-2.1807,-2.1807,-2.1807,-2.1673,-2.1248,-2.1176,-2.1021,-2.0555,-2.0141,-2.0017,-2.0379,-2.0462,-2.0627,-2.101,-2.0669,-2.0245,-1.9799,-1.9401,-1.9075,-1.9075,-1.9075,-1.9075,-1.9075,-1.9075,-1.9075,-1.9075,-1.9075,-1.9075,-1.9075,-1.9075,-1.9075,-1.9075,-1.9075,-1.9075,0.0,-2.3031,0.0,0.0,0.0,0.0,0.0,0.0,0.0,0.0,0.0,0.0,0.0,0.0,0.0,0.0,0.0,0.0,0.0,0.0,0.0,0.0,0.0,0.0,0.0,0.0,0.0,0.0,0.0,0.0,0.0,0.0,0.0,0.0,0.0,0.0,-2.7484,-2.6744,-2.607,0.0,-2.5312,-2.5312,-2.5382,-2.5382,-2.5158,-2.4862,-2.412,-2.3452,-2.2883,-2.1721,-2.1359,-2.1512,-2.1128,-2.1359,-2.1731,-2.1578,-2.1655,-2.1807,-2.1807,-2.1807,-2.1807,-2.1807,-2.1807,-2.1807,-2.1807,-2.1807,-2.1807,-2.1807,-2.1807,-2.1807,-2.1807,-2.1807,-2.1807,-2.1807,-2.1807,-2.1807,-2.1807,-2.1807,-2.1807,-2.1807,-2.1807,-2.1776,-2.1673,-2.1652,-2.1497,-2.1031,-2.0886,-2.0731,-2.0462,-2.0741,-2.0866,-2.0596,-2.0483,-2.0245,-1.9799,-1.9401,-1.9075,-1.9075,-1.9075,-1.9075,-1.9075,-1.9075,-1.9075,-1.9075,-1.9075,-1.9075,-1.9075,-1.9075,-1.9075,-1.9075,-1.9075,-1.9075,0.0,0.0,0.0,0.0,0.0,0.0,0.0,0.0,0.0,0.0,0.0,0.0,0.0,0.0,0.0,0.0,0.0,0.0,0.0,0.0,0.0,0.0,0.0,0.0,0.0,0.0,0.0,0.0,0.0,0.0,0.0,0.0,0.0,0.0,0.0,0.0,-2.6947,-2.6264,-2.5734,-2.5465,-2.5382,-2.5087,-2.4707,-2.4862,-2.4791,-2.4636,-2.3452,-2.2798,-2.251,-2.1492,-2.1205,-2.1359,-2.1138,-2.1282,-2.1655,-2.1502,-2.1655,-2.1807,-2.1807,-2.1807,-2.1807,-2.1807,-2.1807,-2.1807,-2.1807,-2.1807,-2.1807,-2.1807,-2.1807,-2.1807,-2.1807,-2.1807,-2.1807,-2.1807,-2.1807,-2.1807,-2.1807,-2.1807,-2.1807,-2.1807,-2.1807,-2.1807,-2.1807,-2.1807,-2.1652,-2.1186,-2.0928,-2.0772,-2.0762,-2.0586,-2.0545,-2.0731,-2.0358,-2.0017,-1.9848,-1.9401,-1.9075,-1.9075,-1.9075,-1.9075,-1.9075,-1.9075,-1.9075,-1.9075,-1.9075,-1.9075,-1.9075,-1.9075,-1.9075,-1.9075,-1.9075,-1.9075,0.0,0.0,0.0,0.0,0.0,0.0,0.0,0.0,0.0,0.0,0.0,0.0,0.0,0.0,0.0,0.0,0.0,0.0,0.0,0.0,0.0,0.0,0.0,0.0,0.0,0.0,0.0,0.0,0.0,0.0,0.0,0.0,0.0,0.0,0.0,-2.7378,-2.6483,-2.5734,-2.5453,-2.5688,-2.5312,-2.4791,-2.4108,-2.3975,-2.4047,-2.4204,-2.2872,-2.2285,-2.2069,-2.1425,-2.1205,-2.1205,-2.1205,-2.1359,-2.1578,-2.1502,-2.1655,-2.1807,-2.1807,-2.1807,-2.1807,-2.1807,-2.1807,-2.1807,-2.1807,-2.1807,-2.1807,-2.1807,-2.1807,-2.1807,-2.1807,-2.1807,-2.1807,-2.1807,-2.1807,-2.1807,-2.1807,-2.1807,-2.1807,-2.1807,-2.1807,-2.1807,-2.1807,-2.1807,-2.1673,-2.129,-2.0907,-2.0772,-2.1073,-2.0534,-2.0369,-2.1041,-2.0369,-1.9913,-1.9986,-1.9427,-1.9106,-1.9256,-1.9116,-1.9075,-1.9075,-1.9075,-1.9075,-1.9075,-1.9075,-1.9075,-1.9075,-1.9075,-1.9075,-1.9075,-1.9075,-1.9075,0.0,0.0,0.0,0.0,0.0,0.0,0.0,0.0,0.0,0.0,0.0,0.0,0.0,0.0,0.0,0.0,0.0,0.0,0.0,0.0,0.0,0.0,0.0,0.0,0.0,0.0,0.0,0.0,0.0,0.0,0.0,0.0,-3.0129,-2.9233,-2.8505,0.0,-2.6905,-2.6013,-2.5676,-2.5828,-2.4933,-2.4337,-2.4047,-2.2713,-2.2295,-2.2467,-2.2199,-2.169,-2.1128,-2.0984,-2.1051,-2.1205,-2.1205,-2.1436,-2.1731,-2.1492,-2.1568,-2.1807,-2.1807,-2.1807,-2.1807,-2.1807,-2.1807,-2.1807,-2.1807,-2.1807,-2.1807,-2.1807,-2.1807,-2.1807,-2.1807,-2.1807,-2.1807,-2.1807,-2.1807,-2.1807,-2.1807,-2.1807,-2.1807,-2.1807,-2.1807,-2.1807,-2.1807,-2.1807,-2.1787,-2.1725,-2.1662,-2.1497,-2.1155,-2.1362,-2.1424,-2.1145,-2.0648,-2.0493,-2.0897,-1.9789,-1.9241,-1.9713,-1.9292,-1.9075,-1.9075,-1.9075,-1.9075,-1.9075,-1.9075,-1.9075,-1.9075,-1.9075,-1.9075,-1.9075,-1.9075,-1.9075,-1.9567,0.0,0.0,0.0,0.0,0.0,0.0,0.0,0.0,0.0,0.0,0.0,0.0,0.0,0.0,0.0,0.0,0.0,0.0,0.0,0.0,0.0,0.0,0.0,0.0,0.0,0.0,0.0,0.0,0.0,0.0,-2.9697,-2.948,-2.8206,-2.8201,0.0,-2.6371,-2.5955,-2.5828,-2.591,-2.5004,-2.4264,-2.3745,-2.266,-2.209,-2.2101,-2.1558,-2.1262,-2.1061,-2.1061,-2.1205,-2.1359,-2.1359,-2.1578,-2.1807,-2.1645,-2.1721,-2.1807,-2.1807,-2.1807,-2.1807,-2.1807,-2.1807,-2.1807,-2.1807,-2.1807,-2.1807,-2.1807,-2.1807,-2.1807,-2.1807,-2.1807,-2.1807,-2.1807,-2.1807,-2.1807,-2.1807,-2.1807,-2.1807,-2.1807,-2.1807,-2.1807,-2.1807,-2.1807,-2.1807,-2.1807,-2.159,-2.1445,-2.1487,-2.1228,-2.1052,-2.1104,-2.07,-2.0503,-2.071,-1.9944,-1.9609,-1.9817,-1.9323,-1.9075,-1.9075,-1.9075,-1.9075,-1.9075,-1.9075,-1.9075,-1.9075,-1.9075,-1.9075,-1.9075,-1.9075,-1.9075,0.0,0.0,0.0,0.0,0.0,0.0,0.0,0.0,0.0,0.0,0.0,0.0,0.0,0.0,0.0,0.0,0.0,0.0,0.0,0.0,0.0,0.0,0.0,0.0,0.0,0.0,0.0,0.0,0.0,0.0,-2.8448,-2.8857,-2.8514,-2.7207,-2.7447,-2.6974,-2.5629,-2.5765,-2.5832,-2.5898,-2.5027,-2.414,-2.3335,-2.2442,-2.1881,-2.1707,-2.1231,-2.0991,-2.1034,-2.111,-2.1187,-2.1339,-2.1404,-2.1552,-2.1807,-2.1807,-2.1807,-2.1807,-2.1807,-2.1807,-2.1807,-2.1807,-2.1807,-2.1807,-2.1807,-2.1807,-2.1807,-2.1807,-2.1807,-2.1807,-2.1807,-2.1807,-2.1807,-2.1807,-2.1807,-2.1807,-2.1807,-2.1714,-2.1631,-2.1631,-2.1538,-2.1487,-2.1611,-2.1631,-2.1662,-2.1787,-2.1507,-2.1414,-2.1756,-2.1207,-2.0907,-2.1248,-2.0876,-2.0648,-2.0762,-2.0151,-1.981,-1.9924,-1.9385,-1.9075,-1.9075,-1.9075,-1.9075,-1.9075,-1.9075,-1.9075,-1.9075,-1.9075,-1.9075,-1.9075,-1.9075,-1.9075,0.0,0.0,0.0,0.0,0.0,0.0,0.0,0.0,0.0,0.0,0.0,0.0,0.0,0.0,0.0,0.0,0.0,0.0,0.0,0.0,0.0,0.0,0.0,0.0,0.0,0.0,0.0,0.0,0.0,0.0,-2.7781,-2.7855,-2.7527,-2.6769,-2.6211,-2.5561,-2.4843,-2.5331,-2.571,-2.5898,-2.4725,-2.377,-2.2902,-2.1517,-2.0865,-2.0879,-2.11,-2.0964,-2.0571,-2.071,-2.0859,-2.0859,-2.1081,-2.1414,-2.1807,-2.1807,-2.1807,-2.1807,-2.1807,-2.1807,-2.1807,-2.1807,-2.1807,-2.1807,-2.1807,-2.1807,-2.1807,-2.1807,-2.1807,-2.1807,-2.1807,-2.1807,-2.1807,-2.1807,-2.1807,-2.1807,-2.1807,-2.1455,-2.1155,-2.1155,-2.0793,-2.0638,-2.1073,-2.1155,-2.13,-2.1735,-2.1787,-2.1776,-2.1807,-2.1766,-2.1745,-2.1766,-2.1352,-2.1259,-2.1694,-2.0524,-1.9944,-2.0358,-1.9561,-1.9075,-1.9075,-1.9075,-1.9075,-1.9075,-1.9075,-1.9075,-1.9075,-1.9075,-1.9075,-1.9075,-1.9075,-1.9075,0.0,0.0,0.0,0.0,0.0,0.0,0.0,0.0,0.0,0.0,0.0,0.0,0.0,0.0,0.0,0.0,0.0,0.0,0.0,0.0,0.0,0.0,0.0,0.0,0.0,0.0,0.0,0.0,0.0,0.0,-2.656,-2.6947,-2.6641,-2.5574,-2.57,-2.5471,-2.482,-2.5008,-2.5131,-2.5199,-2.4232,-2.3438,-2.2662,-2.1684,-2.1013,-2.0535,-2.0636,-2.0944,-2.1312,-2.109,-2.1141,-2.1484,-2.1559,-2.1662,-2.1807,-2.1807,-2.1807,-2.1807,-2.1807,-2.1807,-2.1807,-2.1807,-2.1807,-2.1807,-2.1807,-2.1807,-2.1807,-2.1807,-2.1807,-2.1807,-2.1807,-2.1807,-2.1807,-2.1807,-2.1497,-2.1238,-2.1342,-2.1238,-2.1031,-2.0731,-2.0772,-2.0917,-2.1083,-2.1362,-2.1621,-2.1776,-2.1807,-2.1807,-2.1807,-2.1807,-2.1807,-2.1807,-2.1393,-2.1186,-2.1352,-2.0379,-1.9831,-1.9986,-1.9417,-1.9075,-1.9075,-1.9075,-1.9075,-1.9075,-1.9075,-1.9075,-1.9075,-1.9075,-1.9075,-1.9075,-1.9075,-1.9075,-1.5828,0.0,0.0,0.0,0.0,0.0,0.0,0.0,0.0,0.0,0.0,0.0,0.0,0.0,0.0,0.0,0.0,0.0,0.0,0.0,0.0,0.0,0.0,0.0,0.0,0.0,0.0,0.0,0.0,0.0,-2.5948,-2.5911,-2.5418,-2.4335,-2.4696,-2.4758,-2.4544,-2.4544,-2.4644,-2.482,-2.4079,-2.3227,-2.234,-2.1666,-2.095,-2.0193,-2.0038,-2.041,-2.1093,-2.0783,-2.0928,-2.1342,-2.1342,-2.1528,-2.1807,-2.1807,-2.1807,-2.1807,-2.1807,-2.1807,-2.1807,-2.1807,-2.1807,-2.1807,-2.1807,-2.1807,-2.1807,-2.1807,-2.1807,-2.1807,-2.1807,-2.1694,-2.1538,-2.1383,-2.1021,-2.0721,-2.0669,-2.0659,-2.0565,-2.0265,-2.0327,-2.0483,-2.0638,-2.1041,-2.1393,-2.1549,-2.1704,-2.1807,-2.1807,-2.1807,-2.1745,-2.159,-2.13,-2.1052,-2.0897,-2.0193,-1.9827,-1.9827,-1.9323,-1.9075,-1.9075,-1.9075,-1.9075,-1.9075,-1.9075,-1.9075,-1.9075,-1.9075,-1.9075,-1.9075,-1.9075,-1.9075,0.0,0.0,0.0,0.0,0.0,0.0,0.0,0.0,0.0,0.0,0.0,0.0,0.0,0.0,0.0,0.0,0.0,0.0,0.0,0.0,0.0,0.0,0.0,0.0,0.0,0.0,0.0,0.0,0.0,-2.6,-2.5865,-2.4751,-2.3767,-2.3138,-2.3078,-2.3401,-2.3966,-2.3966,-2.4243,-2.4757,-2.423,-2.3225,-2.1866,-2.1394,-2.0621,-1.9785,-1.9328,-1.9391,-1.9806,-1.9827,-2.0017,-2.042,-2.042,-2.0969,-2.1766,-2.1766,-2.1766,-2.1776,-2.1766,-2.1766,-2.1766,-2.1776,-2.1776,-2.1766,-2.1797,-2.1797,-2.1787,-2.1797,-2.1807,-2.1797,-2.1787,-2.1445,-2.0979,-2.0534,-2.041,-2.0286,-1.9851,-1.9817,-1.9806,-1.9806,-1.9385,-1.9297,-1.9754,-2.0131,-2.0576,-2.1031,-2.1476,-2.1766,-2.1766,-2.1766,-2.159,-2.1145,-2.1083,-2.0897,-2.0441,-1.9996,-1.9806,-1.9806,-1.9323,-1.9075,-1.9075,-1.9075,-1.9075,-1.9075,-1.9075,-1.9075,-1.9075,-1.9075,-1.9075,-1.9075,-1.9075,-1.9075,-1.466,0.0,0.0,0.0,0.0,0.0,0.0,0.0,0.0,0.0,0.0,0.0,0.0,0.0,0.0,0.0,0.0,0.0,0.0,0.0,0.0,0.0,0.0,0.0,0.0,0.0,0.0,0.0,0.0,-2.535,-2.4708,-2.3825,-2.3305,-2.3138,-2.3078,-2.3153,-2.3376,-2.3376,-2.3452,-2.3602,-2.3452,-2.2911,-2.2056,-2.1862,-2.1181,-2.004,-1.99,-1.9592,-1.9292,-1.9692,-2.0017,-2.042,-2.042,-2.0586,-2.0803,-2.0803,-2.0761,-2.079,-2.0793,-2.0969,-2.1185,-2.1135,-2.0874,-2.0647,-2.1515,-2.1569,-2.1373,-2.1714,-2.1807,-2.1725,-2.1393,-2.0969,-2.0586,-2.0452,-2.0182,-1.9913,-1.9858,-1.9499,-1.9261,-1.9261,-1.9427,-1.9682,-1.9806,-2.0131,-2.0462,-2.0596,-2.0721,-2.0803,-2.0803,-2.0803,-2.0762,-2.0627,-2.0327,-2.0089,-1.9955,-1.952,-1.9261,-1.9261,-1.9137,-1.9075,-1.9075,-1.9075,-1.9075,-1.9075,-1.9075,-1.9075,-1.9075,-1.9075,-1.9075,-1.9075,-1.9075,-1.9075,-1.6112,0.0,0.0,0.0,0.0,0.0,0.0,0.0,0.0,0.0,0.0,0.0,0.0,0.0,0.0,0.0,0.0,0.0,0.0,0.0,0.0,0.0,0.0,0.0,0.0,0.0,0.0,0.0,-2.5104,-2.4568,-2.3528,-2.3038,-2.2845,-2.2786,-2.2952,-2.3078,-2.3078,-2.3078,-2.3078,-2.3078,-2.3078,-2.275,-2.2113,-2.1803,-2.1112,-2.0096,-1.9781,-1.9462,-1.9085,-1.9432,-1.9737,-2.0151,-2.0151,-2.0265,-2.042,-2.042,-2.0432,-2.037,-2.039,-2.0521,-2.0663,-2.069,-2.0452,-2.0329,-2.0978,-2.1041,-2.0886,-2.1155,-2.1228,-2.1124,-2.0669,-2.0348,-2.01,-1.9903,-1.9665,-1.9536,-1.9536,-1.9261,-1.9075,-1.9075,-1.9292,-1.9536,-1.9536,-1.9841,-2.0151,-2.0151,-2.0307,-2.042,-2.042,-2.042,-2.0348,-2.0162,-1.9913,-1.9754,-1.9489,-1.923,-1.9075,-1.9075,-1.9075,-1.9075,-1.9075,-1.9075,-1.9075,-1.9075,-1.9075,-1.9075,-1.9075,-1.9075,-1.9075,-1.9075,-1.9075,-1.9075,-1.8265,-1.8506,0.0,0.0,0.0,0.0,-2.0785,-2.0115,0.0,0.0,0.0,0.0,0.0,0.0,0.0,0.0,0.0,0.0,0.0,0.0,0.0,0.0,0.0,0.0,0.0,0.0,0.0,-2.5188,-2.4646,-2.3705,-2.2325,-2.2334,-2.2324,-2.2221,-2.2698,-2.2975,-2.2977,-2.2977,-2.3015,-2.3078,-2.3078,-2.2811,-2.2175,-2.1565,-2.0933,-2.0291,-1.9704,-1.9386,-1.933,-1.9264,-1.938,-1.9754,-1.9754,-1.9924,-2.0276,-2.0276,-2.0276,-2.0276,-2.0276,-2.0276,-2.0286,-2.0246,-2.0236,-2.0296,-2.0318,-2.0379,-2.0358,-2.041,-2.0389,-2.0265,-1.9862,-1.9796,-1.965,-1.9168,-1.9075,-1.9075,-1.9075,-1.9075,-1.9075,-1.9075,-1.9075,-1.9075,-1.9075,-1.9474,-1.9754,-1.9754,-2.0027,-2.0276,-2.0276,-2.0276,-2.012,-1.9727,-1.9754,-1.9588,-1.9106,-1.9075,-1.9075,-1.9075,-1.9075,-1.9075,-1.9075,-1.9075,-1.9075,-1.9075,-1.9075,-1.9075,-1.9075,-1.9075,-1.9075,-1.9075,-1.9075,-1.9075,-1.9472,-1.9824,-2.0051,-1.897,0.0,0.0,0.0,-1.8897,0.0,0.0,0.0,0.0,0.0,0.0,0.0,0.0,0.0,0.0,0.0,0.0,0.0,0.0,0.0,0.0,0.0,0.0,-2.4552,-2.3985,-2.345,-2.262,-2.1417,-2.1674,-2.1812,-2.1644,-2.1757,-2.202,-2.2472,-2.2472,-2.2698,-2.3078,-2.3078,-2.3005,-2.2884,-2.275,-2.231,-2.1729,-2.1542,-2.1227,-2.0677,-2.0096,-1.9637,-1.9266,-1.9266,-1.9251,-1.9334,-1.9334,-1.9334,-1.9334,-1.9334,-1.9334,-1.9375,-1.9369,-1.9346,-1.9458,-1.9919,-1.999,-1.9965,-2.0327,-2.0162,-1.9872,-1.9858,-1.9557,-1.9178,-1.9085,-1.9075,-1.9075,-1.9075,-1.9075,-1.9075,-1.9075,-1.9075,-1.9075,-1.9075,-1.9214,-1.9266,-1.9266,-1.9282,-1.9334,-1.9334,-1.9334,-1.9303,-1.921,-1.9266,-1.9168,-1.9075,-1.9075,-1.9075,-1.9075,-1.9075,-1.9075,-1.9075,-1.9075,-1.9075,-1.9075,-1.9075,-1.9075,-1.9075,-1.9075,-1.9075,-1.9075,-1.9075,-1.9075,-2.1625,-2.1634,-2.1699,-2.0804,0.0,0.0,0.0,0.0,0.0,0.0,0.0,0.0,0.0,0.0,0.0,0.0,0.0,0.0,0.0,0.0,0.0,0.0,0.0,0.0,0.0,0.0,-2.3553,-2.329,-2.2531,-2.1808,-2.1156,-2.13,-2.1352,-2.1214,-2.1411,-2.1619,-2.1895,-2.1895,-2.2046,-2.2322,-2.2585,-2.2723,-2.2677,-2.2627,-2.2433,-2.2101,-2.1741,-2.1428,-2.1071,-2.0355,-1.9911,-1.9584,-1.9198,-1.9075,-1.9075,-1.9075,-1.9075,-1.9075,-1.9075,-1.9075,-1.9096,-1.9127,-1.9075,-1.9147,-1.9435,-1.9493,-1.9458,-1.9686,-1.9592,-1.9484,-1.9484,-1.9251,-1.9075,-1.9075,-1.9075,-1.9075,-1.9075,-1.9075,-1.9075,-1.9075,-1.9075,-1.9075,-1.9075,-1.9075,-1.9075,-1.9075,-1.9075,-1.9075,-1.9075,-1.9075,-1.9075,-1.9075,-1.9075,-1.9075,-1.9075,-1.9075,-1.9075,-1.9075,-1.9075,-1.9075,-1.9075,-1.9075,-1.9075,-1.9075,-1.9075,-1.9075,-1.9075,-1.9075,-1.9075,-1.9075,-1.9075,-1.9075,0.0,0.0,0.0,0.0,0.0,-2.2187,0.0,0.0,0.0,-2.19,0.0,0.0,0.0,0.0,0.0,0.0,0.0,0.0,0.0,0.0,0.0,0.0,0.0,0.0,0.0,0.0,-2.2191,-2.238,-2.1509,-2.0941,-2.0868,-2.0977,-2.0898,-2.0739,-2.1062,-2.1272,-2.133,-2.133,-2.138,-2.1493,-2.1945,-2.2159,-2.2171,-2.2151,-2.214,-2.2091,-2.1705,-2.1502,-2.1439,-2.0613,-2.0291,-2.0226,-1.9396,-1.9075,-1.9075,-1.9075,-1.9075,-1.9075,-1.9075,-1.9075,-1.9075,-1.9075,-1.9075,-1.9075,-1.9075,-1.9075,-1.9075,-1.9075,-1.9075,-1.9075,-1.9075,-1.9075,-1.9075,-1.9075,-1.9075,-1.9075,-1.9075,-1.9075,-1.9075,-1.9075,-1.9075,-1.9075,-1.9075,-1.9075,-1.9075,-1.9075,-1.9075,-1.9075,-1.9075,-1.9075,-1.9075,-1.9075,-1.9075,-1.9075,-1.9075,-1.9075,-1.9075,-1.9075,-1.9075,-1.9075,-1.9075,-1.9075,-1.9075,-1.9075,-1.9075,-1.9075,-1.9075,-1.9075,-1.9075,-1.9075,-1.9075,-1.9075,0.0,0.0,0.0,0.0,-2.3694,0.0,0.0,0.0,-2.1972,-2.154,0.0,0.0,0.0,0.0,0.0,0.0,0.0,0.0,0.0,0.0,0.0,0.0,0.0,0.0,0.0,0.0,0.0,-2.0557,-1.988,-1.9541,-1.9755,-2.0304,-2.0399,-2.0091,-2.0142,-2.0368,-2.0806,-2.0806,-2.1004,-2.1493,-2.1556,-2.1581,-2.1606,-2.2088,-2.228,-2.2305,-2.2673,-2.2884,-2.275,-2.1502,-2.0996,-2.0869,-1.9584,-1.9075,-1.9075,-1.9075,-1.9075,-1.9075,-1.9075,-1.9075,-1.9075,-1.9075,-1.9075,-1.9075,-1.9075,-1.9075,-1.9075,-1.9075,-1.9075,-1.9075,-1.9075,-1.9075,-1.9075,-1.9075,-1.9075,-1.9075,-1.9075,-1.9075,-1.9075,-1.9075,-1.9075,-1.9075,-1.9075,-1.9075,-1.9075,-1.9075,-1.9075,-1.9075,-1.9075,-1.9075,-1.9075,-1.9075,-1.9075,-1.9075,-1.9075,-1.9075,-1.9075,-1.9075,-1.9075,-1.9075,-1.9075,-1.9075,-1.9075,-1.9075,-1.9075,-1.9075,-1.9075,-1.9075,-1.9075,-1.9075,-1.9075,-1.9075,0.0,0.0,0.0,0.0,0.0,0.0,0.0,0.0,-2.203,0.0,0.0,0.0,0.0,0.0,0.0,0.0,0.0,0.0,0.0,0.0,0.0,0.0,0.0,0.0,0.0,0.0,0.0,0.0,0.0,-1.8672,-1.9673,-1.9889,-2.0075,-2.0296,-2.0093,-2.0104,-2.0292,-2.0227,-2.0275,-2.0514,-2.0853,-2.1016,-2.1029,-2.1581,-2.1832,-2.187,-2.2422,-2.2661,-2.2568,-2.1498,-2.1123,-2.0974,-1.934,-1.8837,-1.9075,-1.9075,-1.9075,-1.9075,-1.9075,-1.9075,-1.9075,-1.9075,-1.9075,-1.9075,-1.9075,-1.9075,-1.9075,-1.9075,-1.9075,-1.9075,-1.9075,-1.9075,-1.9075,-1.9075,-1.9075,-1.9075,-1.9075,-1.9075,-1.9075,-1.9075,-1.9075,-1.9075,-1.9075,-1.9075,-1.9075,-1.9075,-1.9075,-1.9075,-1.9075,-1.9075,-1.9075,-1.9075,-1.9075,-1.9075,-1.9075,-1.9075,-1.9075,-1.9075,-1.9075,-1.9075,-1.9075,-1.9075,-1.8931,-1.8674,-1.8674,-1.8462,-1.8124,-1.8124,-1.8124,-1.8124,-1.8798,-1.9075,-2.4561,0.0,0.0,0.0,0.0,0.0,0.0,0.0,0.0,0.0,0.0,0.0,0.0,0.0,0.0,0.0,0.0,0.0,0.0,0.0,0.0,0.0,0.0,0.0,0.0,0.0,0.0,0.0,0.0,0.0,-1.9237,-1.9547,-1.9863,-2.0228,-2.0118,-2.0042,-1.999,-1.9862,-1.9798,-1.9811,-2.0225,-2.0426,-2.0451,-2.1004,-2.1267,-2.1292,-2.1845,-2.2083,-2.1993,-2.1052,-2.0728,-2.0694,-1.9073,-1.8589,-1.8878,-1.8878,-1.8961,-1.9075,-1.9075,-1.9075,-1.9075,-1.9075,-1.9075,-1.9075,-1.9075,-1.9075,-1.9075,-1.9075,-1.9075,-1.9075,-1.9075,-1.9075,-1.9075,-1.9075,-1.9075,-1.9075,-1.9075,-1.9075,-1.9075,-1.9075,-1.9075,-1.9075,-1.9075,-1.9075,-1.9075,-1.9075,-1.9075,-1.9075,-1.9075,-1.9075,-1.9075,-1.9075,-1.9075,-1.9075,-1.9075,-1.9075,-1.9075,-1.9075,-1.8942,-1.8875,-1.8875,-1.8731,-1.8462,-1.8066,-1.8066,-1.7862,-1.7373,-1.7373,-1.7373,-1.7451,-1.8259,-1.8664,0.0,0.0,0.0,-2.233,0.0,0.0,0.0,0.0,-2.3461,0.0,0.0,0.0,0.0,0.0,0.0,-1.8103,0.0,0.0,0.0,0.0,0.0,0.0,0.0,0.0,0.0,0.0,0.0,0.0,0.0,0.0,-1.8079,-1.9198,-1.9716,-1.9646,-2.0014,-2.0131,-1.999,-1.9862,-1.9798,-1.9798,-1.9823,-1.9823,-1.9849,-2.0426,-2.0743,-2.0781,-2.128,-2.1518,-2.1406,-2.0181,-1.9893,-2.0216,-1.8881,-1.8382,-1.8402,-1.8402,-1.8682,-1.9075,-1.9075,-1.9075,-1.9075,-1.9075,-1.9075,-1.9075,-1.9075,-1.9075,-1.9075,-1.9075,-1.9075,-1.9075,-1.9075,-1.9075,-1.9075,-1.9075,-1.9075,-1.9075,-1.9075,-1.9075,-1.9075,-1.9075,-1.9075,-1.9075,-1.9075,-1.9075,-1.9075,-1.9075,-1.9075,-1.9075,-1.9075,-1.9075,-1.9075,-1.9075,-1.9075,-1.9075,-1.9075,-1.9075,-1.9075,-1.9075,-1.8596,-1.8337,-1.8337,-1.7794,-1.7442,-1.7442,-1.7442,-1.7451,-1.7373,-1.7373,-1.7373,-1.7373,-1.7451,-1.7442,0.0,0.0,-2.4922,-2.2817,0.0,0.0,0.0,0.0,0.0,0.0,0.0,0.0,0.0,0.0,-2.0467,-1.9427,-1.8289,0.0,0.0,0.0,0.0,0.0,0.0,0.0,0.0,0.0,0.0,0.0,0.0,0.0,0.0,-1.8466,-1.8982,-1.969,-1.9801,-1.9973,-2.036,-2.0093,-1.9926,-1.9926,-1.9862,-1.9798,-1.9811,-1.9999,-2.0087,-2.0125,-2.0702,-2.0941,-2.0911,-2.0418,-2.0264,-2.0358,-1.9501,-1.9091,-1.8945,-1.8574,-1.8299,-1.8194,-1.8502,-1.887,-1.9075,-1.9075,-1.9075,-1.9075,-1.9075,-1.9075,-1.9075,-1.9075,-1.9075,-1.9075,-1.9075,-1.9075,-1.9075,-1.9075,-1.9075,-1.9075,-1.9075,-1.9075,-1.9075,-1.9075,-1.9075,-1.9075,-1.9075,-1.9075,-1.9075,-1.9075,-1.9075,-1.9075,-1.9075,-1.9075,-1.9075,-1.9075,-1.9075,-1.9075,-1.9075,-1.9075,-1.9075,-1.9075,-1.8942,-1.8674,-1.8337,-1.8134,-1.7647,-1.689,-1.6881,-1.6682,-1.6351,-1.6351,-1.6351,-1.6351,-1.6351,-1.6968,-2.4271,-2.4417,0.0,0.0,-2.2683,0.0,-2.1455,0.0,0.0,0.0,0.0,0.0,0.0,0.0,0.0,-1.9664,-1.8093,0.0,0.0,0.0,0.0,0.0,0.0,0.0,0.0,0.0,-1.4832,-1.5917,0.0,0.0,0.0,0.0,-1.8519,-1.946,-1.9564,-1.9842,-2.0398,-2.0144,-1.999,-1.9926,-1.9862,-1.9798,-1.9798,-1.9798,-1.9798,-1.9823,-2.02,-2.0351,-2.0335,-2.0086,-2.0073,-2.0184,-1.9529,-1.9239,-1.9,-1.8626,-1.8249,-1.7987,-1.8268,-1.8696,-1.9075,-1.9075,-1.9075,-1.9075,-1.9075,-1.9075,-1.9075,-1.9075,-1.9075,-1.9075,-1.9075,-1.9075,-1.9075,-1.9075,-1.9075,-1.9075,-1.9075,-1.9075,-1.9075,-1.9075,-1.9075,-1.9075,-1.9075,-1.9075,-1.9075,-1.9075,-1.9075,-1.9075,-1.9075,-1.9075,-1.9075,-1.9075,-1.9075,-1.9075,-1.9075,-1.9075,-1.9008,-1.8808,-1.8596,-1.8259,-1.7716,-1.751,-1.7097,-1.6342,-1.6342,-1.6132,-1.5805,-1.5805,-1.5867,-1.607,-1.5867,-1.6551]}]]